[[{"header":{"parameterUnit":"m.s-1","parameterCategory":1,"la1":30.6,"la2":29.2853,"lo1":-89.7004,"lo2":-87.6739,"dy":0.0162,"dx":0.0183,"nx":112,"ny":82,"refTime":"2024-09-10T00:00:00:Z","depth":0,"parameterNumber":2,"parameterNumberName":"U-component_of_WINDS"},"data":[0.0,0.0,0.0,0.0,0.0,0.0,0.0,0.0,0.0,0.0,0.0,0.0,0.0,0.0,0.0,0.0,0.0,0.0,0.0,0.0,0.0,0.0,0.0,0.0,0.0,0.0,0.0,0.0,0.0,0.0,0.0,0.0,0.0,0.0,0.0,0.0,0.0,0.0,0.0,0.0,0.0,0.0,0.0,0.0,0.0,0.0,0.0,0.0,0.0,0.0,0.0,0.0,0.0,0.0,0.0,0.0,0.0,0.0,0.0,0.0,0.0,0.0,0.0,0.0,0.0,0.0,0.0,0.0,0.0,0.0,0.0,0.0,0.0,0.0,0.0,0.0,0.0,0.0,0.0,0.0,0.0,0.0,0.0,0.0,0.0,0.0,0.0,0.0,0.0,0.0,0.0,-0.7475,-0.7667,-0.8701,-1.0518,-1.0697,-0.9729,-0.7546,0.0,0.0,0.0,0.0,0.0,0.0,0.0,0.0,0.0,0.0,0.0,0.0,0.0,0.0,0.0,0.0,0.0,0.0,0.0,0.0,0.0,0.0,0.0,0.0,0.0,0.0,0.0,0.0,0.0,0.0,0.0,0.0,0.0,0.0,0.0,0.0,0.0,0.0,0.0,0.0,0.0,0.0,0.0,0.0,0.0,0.0,0.0,0.0,0.0,0.0,0.0,0.0,0.0,0.0,0.0,0.0,0.0,0.0,0.0,0.0,0.0,0.0,0.0,0.0,0.0,0.0,0.0,0.0,0.0,0.0,0.0,0.0,0.0,0.0,0.0,0.0,0.0,0.0,0.0,0.0,0.0,0.0,0.0,0.0,0.0,0.0,0.0,0.0,0.0,0.0,0.0,0.0,0.0,0.0,0.0,0.0,0.0,0.0,0.0,0.0,0.0,0.0,0.0,0.0,-0.7359,-0.7666,-0.7873,-0.8701,-1.0518,-1.0602,-0.9627,-0.754,0.0,0.0,0.0,0.0,0.0,0.0,0.0,0.0,0.0,0.0,0.0,0.0,0.0,0.0,0.0,0.0,0.0,0.0,0.0,0.0,0.0,0.0,0.0,0.0,0.0,0.0,0.0,0.0,0.0,0.0,0.0,0.0,0.0,0.0,0.0,0.0,0.0,0.0,0.0,0.0,0.0,0.0,0.0,0.0,0.0,0.0,0.0,0.0,0.0,0.0,0.0,0.0,0.0,0.0,0.0,0.0,0.0,0.0,0.0,0.0,0.0,0.0,0.0,0.0,0.0,0.0,0.0,0.0,0.0,0.0,0.0,0.0,0.0,0.0,0.0,0.0,0.0,0.0,0.0,0.0,0.0,0.0,0.0,0.0,0.0,0.0,0.0,0.0,0.0,0.0,0.0,0.0,0.0,0.0,0.0,0.0,0.0,0.0,0.0,0.0,0.0,0.0,0.0,-0.6167,-0.6302,-0.7772,-0.7934,-0.8701,-1.0518,-0.9717,-0.8322,-0.6418,-0.7322,0.0,0.0,0.0,0.0,0.0,0.0,0.0,0.0,0.0,0.0,0.0,0.0,0.0,0.0,0.0,0.0,0.0,0.0,0.0,0.0,0.0,0.0,0.0,0.0,0.0,0.0,0.0,0.0,0.0,0.0,0.0,0.0,0.0,0.0,0.0,0.0,0.0,0.0,0.0,0.0,0.0,0.0,0.0,0.0,0.0,0.0,0.0,0.0,0.0,0.0,0.0,0.0,0.0,0.0,0.0,0.0,0.0,0.0,0.0,0.0,0.0,0.0,0.0,0.0,0.0,0.0,0.0,0.0,0.0,0.0,0.0,0.0,0.0,0.0,0.0,0.0,0.0,0.0,0.0,0.0,0.0,0.0,0.0,0.0,0.0,0.0,0.0,0.0,0.0,0.0,0.0,0.0,0.0,0.0,0.0,0.0,0.0,0.0,0.0,0.0,0.0,0.0,-0.4533,-0.5297,-0.7204,-0.7764,-0.8568,-0.9915,-0.8802,-0.7065,-0.4885,-0.5671,0.0,0.0,0.0,0.0,0.0,0.0,0.0,0.0,0.0,0.0,0.0,0.0,0.0,0.0,0.0,0.0,0.0,0.0,0.0,0.0,0.0,0.0,0.0,0.0,0.0,0.0,0.0,0.0,0.0,0.0,0.0,0.0,0.0,0.0,0.0,0.0,0.0,0.0,0.0,0.0,0.0,0.0,0.0,0.0,0.0,0.0,0.0,0.0,0.0,0.0,0.0,0.0,0.0,0.0,0.0,0.0,0.0,0.0,0.0,0.0,0.0,0.0,0.0,0.0,0.0,0.0,0.0,0.0,0.0,0.0,0.0,0.0,0.0,0.0,0.0,0.0,0.0,0.0,0.0,0.0,0.0,0.0,0.0,0.0,0.0,0.0,0.0,0.0,0.0,0.0,0.0,0.0,0.0,0.0,0.0,0.0,0.0,0.0,0.0,0.0,0.0,0.0,-0.2606,-0.3544,-0.5362,-0.7031,-0.803,-0.8163,-0.8066,-0.6544,-0.3122,-0.4095,0.0,0.0,0.0,0.0,0.0,0.0,0.0,0.0,0.0,0.0,0.0,0.0,0.0,0.0,0.0,0.0,0.0,0.0,0.0,0.0,0.0,0.0,0.0,0.0,0.0,0.0,0.0,0.0,0.0,0.0,0.0,0.0,0.0,0.0,0.0,0.0,0.0,0.0,0.0,0.0,0.0,0.0,0.0,0.0,0.0,0.0,0.0,0.0,0.0,0.0,0.0,0.0,0.0,0.0,0.0,0.0,0.0,0.0,0.0,0.0,0.0,0.0,0.0,0.0,0.0,0.0,0.0,0.0,0.0,0.0,0.0,0.0,0.0,0.0,0.0,0.0,0.0,0.0,0.0,0.0,0.0,0.0,0.0,0.0,0.0,0.0,0.0,0.0,0.0,0.0,0.0,0.0,0.0,0.0,0.0,0.0,0.0,0.0,0.0,0.0,0.0,0.0,-0.189,-0.2961,0.0,-0.5295,-0.6364,-0.6364,-0.5328,-0.4111,-0.2771,0.0,0.0,0.0,0.0,0.0,0.0,0.0,0.0,0.0,0.0,0.0,0.0,0.0,0.0,0.0,0.0,0.0,0.0,0.0,0.0,0.0,0.0,0.0,0.0,0.0,0.0,0.0,0.0,0.0,0.0,0.0,0.0,0.0,0.0,0.0,0.0,0.0,0.0,0.0,0.0,0.0,0.0,0.0,0.0,0.0,0.0,0.0,0.0,0.0,0.0,0.0,0.0,0.0,0.0,0.0,0.0,0.0,0.0,0.0,0.0,0.0,0.0,0.0,0.0,0.0,0.0,0.0,0.0,0.0,0.0,0.0,0.0,0.0,0.0,0.0,0.0,0.0,0.0,0.0,0.0,0.0,0.0,0.0,0.0,0.0,0.0,0.0,0.0,0.0,0.0,0.0,0.0,0.0,0.0,0.0,0.0,0.0,0.0,0.0,0.0,0.0,0.0,0.024,-0.158,-0.2693,0.0,-0.4292,-0.5162,-0.4559,-0.3435,-0.2484,-0.1887,0.0,0.0,0.0,0.0,0.0,0.0,0.0,0.0,0.0,0.0,0.0,0.0,0.0,0.0,0.0,0.0,0.0,0.0,0.0,0.0,0.0,0.0,0.0,0.0,0.0,0.0,0.0,0.0,0.0,0.0,0.0,0.0,0.0,0.0,0.0,0.0,0.0,0.0,0.0,0.0,0.0,0.0,0.0,0.0,0.0,0.0,0.0,0.0,0.0,0.0,0.0,0.0,0.0,0.0,0.0,0.0,0.0,0.0,0.0,0.0,0.0,0.0,0.0,0.0,0.0,0.0,0.0,0.0,0.0,0.0,0.0,0.0,0.0,0.0,0.0,0.0,0.0,0.0,0.0,0.0,0.0,0.0,0.0,0.0,0.0,0.0,0.0,0.0,0.0,0.0,0.0,0.0,0.0,0.0,0.0,0.0,0.0,0.0,0.0,0.0,0.0,0.0,0.0361,-0.1543,-0.2685,-0.2685,-0.4292,-0.4626,-0.2819,-0.2676,-0.1886,0.0,0.0,0.0,0.0,0.0,0.0,0.0,0.0,0.0,0.0,0.0,0.0,0.0,0.0,0.0,0.0,0.0,0.0,0.0,0.0,0.0,0.0,0.0,0.0,0.0,0.0,0.0,0.0,0.0,0.0,0.0,0.0,0.0,0.0,0.0,0.0,0.0,0.0,0.0,0.0,0.0,0.0,0.0,0.0,0.0,0.0,0.0,0.0,0.0,0.0,0.0,0.0,0.0,0.0,0.0,0.0,0.0,0.0,0.0,0.0,0.0,0.0,0.0,0.0,0.0,0.0,0.0,0.0,0.0,0.0,0.0,0.0,0.0,0.0,0.0,0.0,0.0,0.0,0.0,0.0,0.0,0.0,0.0,0.0,0.0,0.0,0.0,0.0,0.0,0.0,0.0,0.0,0.0,0.0,0.0,0.0,0.0,0.0,0.0,0.0,0.0,0.0,0.0,0.0367,-0.0453,-0.0807,-0.0807,-0.1277,-0.1344,-0.0874,-0.0781,-0.0561,-0.0059,0.0,0.0,0.0,0.0,0.0,0.0,0.0,0.0,0.0,0.0,0.0,0.0,0.0,0.0,0.0,0.0,0.0,0.0,0.0,0.0,0.0,0.0,0.0,0.0,0.0,0.0,0.0,0.0,0.0,0.0,0.0,0.0,0.0,0.0,0.0,0.0,0.0,0.0,0.0,0.0,0.0,0.0,0.0,0.0,0.0,0.0,0.0,0.0,0.0,0.0,0.0,0.0,0.0,0.0,0.0,0.0,0.0,0.0,0.0,0.0,0.0,0.0,0.0,0.0,0.0,0.0,0.0,0.0,0.0,0.0,0.0,0.0,0.0,0.0,0.0,0.0,0.0,0.0,0.0,0.0,0.0,0.0,0.0,0.0,0.0,0.0,0.0,0.0,0.0,0.0,0.0,0.0,0.0,0.0,0.0,0.0,0.0,0.0,0.0,0.0,0.0,0.0,0.0369,0.0,0.0,0.0,0.0,0.0,0.0,0.0,0.0,0.0,0.0,0.0,0.0,0.0,0.0,0.0,0.0,0.0,0.0,0.0,0.0,0.0,0.0,0.0,0.0,0.0,0.0,0.0,0.0,0.0,0.0,0.0,0.0,0.0,0.0,0.0,0.0,0.0,0.0,0.0,0.0,0.0,0.0,0.0,0.0,0.0,0.0,0.0,0.0,0.0,0.0,0.0,0.0,0.0,0.0,0.0,0.0,0.0,0.0,0.0,0.0,0.0,0.0,0.0,0.0,0.0,0.0,0.0,0.0,0.0,0.0,0.0,0.0,0.0,0.0,0.0,0.0,0.0,0.0,0.0,0.0,0.0,0.0,0.0,0.0,0.0,0.0,0.0,0.0,0.0,0.0,0.0,0.0,0.0,0.0,0.0,0.0,0.0,0.0,0.0,0.0,0.0,0.0,0.0,0.0,0.0,0.0,0.0,0.0,0.0,0.0,0.0,0.0308,0.0,0.0,0.0,0.0135,0.0202,0.0,0.0131,0.019,0.0,0.0,0.0,0.0,0.0,0.0,0.0,0.0,0.0,0.0,0.0,0.0,0.0,0.0,0.0,0.0,0.0,0.0,0.0,0.0,0.0,0.0,0.0,0.0,0.0,0.0,0.0,0.0,0.0,0.0,0.0,0.0,0.0,0.0,0.0,0.0,0.0,0.0,0.0,0.0,0.0,0.0,0.0,0.0,0.0,0.0,0.0,0.0,0.0,0.0,0.0,0.0,0.0,0.0,0.0,0.0,0.0,0.0,0.0,0.0,0.0,0.7004,0.0,0.0,0.0,0.0,0.0,0.0,0.0,0.0,0.0,0.0,0.0,0.0,0.0,0.0,0.0,0.0,0.0,0.0,0.0,0.0,0.0,0.0,0.0,0.0,0.0,0.0,0.0,0.0,0.0,0.0,0.0,0.0,0.0,0.0,0.0,0.0,0.0,0.0,0.0,0.0,0.0,0.0188,0.0,0.0,0.0,0.1277,0.1545,0.0135,0.1323,0.1543,0.0062,0.0,0.0,0.0,0.0,0.0,0.0,0.0,0.0,0.0,0.0,0.0,0.0,0.0,0.0,0.0,0.0,0.0,0.0,0.0,0.0,0.0,0.0,0.0,0.0,0.0,0.0,0.0,0.0,0.0,0.0,0.0,0.0,0.0,0.0,0.0,0.0,0.0,0.0,0.0,0.0,0.0,0.0,0.0,0.0,0.0,0.0,0.0,0.0,0.0,0.0,0.0,0.0,0.0,0.0,0.0,0.0,0.0,0.0,0.0,0.0,0.0,0.7835,0.0,0.0,0.0,0.0,0.0,0.0,0.0,0.0,0.0,0.0,0.0,0.0,0.0,0.0,0.0,0.0,0.0,0.0,0.0,0.0,0.0,0.0,0.0,0.0,0.0,0.0,0.0,0.0,0.0,0.0,0.0,0.0,0.0,0.0,0.0,0.0,0.0,0.0,0.0,0.0,0.0189,0.0,0.0,0.0,0.0874,0.1344,0.1277,0.2187,0.2662,0.2583,0.1762,0.0,0.0,0.0,0.0,0.0,0.0,0.0,0.0,0.0,0.0,0.0,0.0,0.0,0.0,0.0,0.0,0.0,0.0,0.0,0.0,0.0,0.0,0.0,0.0,0.0,0.0,0.0,0.0,0.0,0.0,0.0,0.0,0.0,0.0,0.0,0.0,0.0,0.0,0.0,0.0,0.0,0.0,0.0,0.0,0.0,0.0,0.0,0.0,0.0,0.0,0.0,0.0,0.0,0.8539,0.9335,1.069,1.0663,1.0663,1.0656,1.0141,0.9985,0.9997,0.0,0.0,0.0,0.0,0.0,0.0,0.0,0.0,0.0,0.0,0.0,0.0,0.0,0.0,0.0,0.0,0.0,0.0,0.0,0.0,0.0,0.0,0.0,0.0,0.0,1.0622,1.0595,0.0,0.0,0.0,0.0,0.0,0.0,0.0,0.0,0.0,0.0,0.0,0.0,0.019,0.0,0.0,0.0,0.0269,0.0941,0.2148,0.2524,0.3212,0.4389,0.3049,0.2356,0.0,0.0,0.0,0.0,0.0,0.0,0.0,0.0,0.0,0.0,0.0,0.0,0.0,0.0,0.0,0.0,0.0,0.0,0.0,0.0,0.0,0.0,0.0,0.0,0.0,0.0,0.0,0.0,0.0,0.0,0.0,0.0,0.0,0.0,0.0,0.0,0.0,0.0,0.0,0.0,0.0,0.0,0.0,0.0,0.0,0.0,0.0,0.6597,0.8092,0.8199,0.916,1.077,1.077,1.0984,1.1463,1.1335,1.1341,1.1457,1.1246,0.0,1.0256,1.0317,0.0,0.0,0.0,0.0,0.0,0.0,0.0,0.0,0.0,0.0,0.0,0.0,0.0,0.0,0.0,0.0,0.0,0.0,0.0,0.0,0.0,0.0,1.1043,1.1043,1.1077,1.107,0.0,1.0432,0.9937,0.9942,0.0,0.0,0.0,0.0,0.0,0.0,0.0,0.0,0.0196,0.0,0.0,0.0,0.1411,0.1814,0.0471,0.1811,0.2131,0.0788,0.0517,0.0884,0.2022,0.077,0.0,0.0,0.0,0.0,0.0,0.0,0.0,0.0,0.0,0.0,0.0,0.0,0.0,0.0,0.0,0.0,0.0,0.0,0.0,0.0,0.0,0.0,0.0,0.0,0.0,0.0,0.0,0.0,0.0,0.0,0.0,0.0,0.0,0.0,0.0,0.0,0.0,0.0,0.0,0.0,0.0,0.0,0.0,0.7458,0.8528,0.9492,1.0257,1.0386,1.0811,1.1538,1.1538,1.1653,1.1864,1.1796,1.1803,1.1864,1.1796,1.1491,1.1016,1.0826,0.9965,0.8804,0.0,0.0,0.0,0.0,0.9621,1.0677,1.0677,1.0677,0.0,1.048,0.0,0.0,0.0,0.0,0.0,0.0,0.0,0.0,0.0,0.0,0.0,1.1396,1.1484,1.1518,1.1436,1.1165,1.0772,0.0,1.0388,1.024,0.9836,0.0,0.0,0.0,0.0,0.0836,0.0066,0.0,0.0,0.0,0.074,0.1277,0.1478,0.2216,0.3212,0.445,0.3607,0.3752,0.5291,0.2893,0.1792,0.0,0.0,0.0,0.0,0.0,0.0,0.0,0.0,0.0,0.0,0.0,0.0,0.0,0.0,0.0,0.0,0.0,0.0,0.0,0.0,0.0,0.0,0.0,0.0,0.0,0.0,0.0,0.0,0.0,0.0,0.0,0.0,0.0188,0.0,0.0,0.0,0.0,0.0,0.0,0.7015,0.8515,0.9383,0.9601,1.0991,1.1789,1.1789,1.1898,1.1952,1.1945,1.1911,1.1993,1.2176,1.2135,1.2142,1.2176,1.2135,1.1972,1.1628,1.0722,0.9474,0.803,0.7432,0.7577,0.8113,0.8099,0.9481,1.1226,1.1267,1.1253,1.1192,1.1009,0.0,1.0602,1.0263,0.0,0.0,0.0,0.0,1.0975,1.1355,1.145,1.1477,1.1592,1.1701,1.1748,1.164,1.1619,1.1511,0.0,1.1029,1.0632,0.9666,0.0,0.0,0.0,0.0,0.0456,0.0066,0.0,0.0,0.0,0.0,0.074,0.2551,0.2685,0.4024,0.7165,0.6101,0.6,0.7248,0.4782,0.3417,0.3366,0.0,0.0,0.0,0.0,0.0,0.0,0.0,0.0,0.0,0.0,0.0,0.0,0.0,0.0,0.0,0.0,0.0,0.0,0.0,0.0,0.0,0.0,0.0,0.0,0.0,0.0,0.0,0.0,0.0,0.0,0.0,0.0,0.0,0.0,0.0,0.7498,0.8215,0.9228,1.0836,1.1389,1.1703,1.1932,1.2176,1.2257,1.2257,1.2264,1.2264,1.2264,1.2121,1.2203,1.2474,1.2338,1.2352,1.2474,1.2338,1.2189,1.1939,0.9725,0.8621,0.8094,0.6215,0.6621,0.8318,0.8454,0.9692,1.1402,1.1545,1.1504,1.1402,1.1531,1.1369,1.1193,1.1173,1.1002,0.0,0.0,1.124,1.1396,1.1565,1.1606,1.1613,1.1619,1.1626,1.1626,1.1619,1.1619,1.1572,0.0,1.1253,1.0496,0.8451,0.0,0.6638,0.3148,0.2491,0.1783,0.0201,0.0,0.0,0.0,0.0,0.074,0.2551,0.2685,0.3488,0.5429,0.5426,0.5426,0.5559,0.5343,0.5264,0.5252,0.4964,0.0,0.0,0.0,0.0,0.0,0.0,0.0,0.0,0.0,0.0,0.0,0.0,0.0,0.0,0.0,0.0,0.0,0.0,0.0,0.0,0.0,0.0,0.0,0.0,0.0,0.0,0.0,0.0,0.0,0.0,0.0,0.2766,0.401,0.5744,0.8376,0.9794,1.0844,1.1514,1.1932,1.2155,1.221,1.1039,1.11,1.2427,1.1106,1.1148,1.2576,1.2515,1.2596,1.2793,1.2745,1.2698,1.2644,1.2596,1.2433,1.2045,0.9966,0.8191,0.6598,0.6009,0.6261,0.719,0.8294,1.0085,1.1803,1.1667,1.1586,1.1545,1.1599,1.1477,1.1307,1.1307,1.1206,1.1118,1.1267,1.1348,1.1423,1.1579,1.1619,1.1619,1.1619,1.1687,1.1358,1.0029,0.9786,0.944,0.8093,0.8697,0.8777,0.6687,0.5393,0.4125,0.2737,0.16,0.0669,0.0067,0.0,0.0,0.0,0.0,0.074,0.2551,0.2685,0.3957,0.6898,0.7098,0.7564,0.8773,0.7663,0.706,0.7089,0.5906,0.5567,0.0,0.0,0.0,0.0,0.0,0.0,0.0,0.0,0.0,0.0,0.0,0.0,0.0,0.0,0.0,0.0,0.0,0.0,0.0,0.0,0.0,0.0,0.0,0.0,0.0,0.0,0.0,0.0,0.0,0.1074,0.3731,0.505,0.6888,0.9655,1.1068,1.1884,1.1979,1.2223,1.2073,1.1343,1.0097,0.9761,1.0431,0.9803,1.0161,1.1684,1.2404,1.2861,1.2963,1.2963,1.2901,1.2807,1.2807,1.2664,1.228,1.0252,0.8536,0.6965,0.633,0.6578,0.7452,0.8547,1.0259,1.1945,1.1701,1.1619,1.1619,1.1619,1.1552,1.147,1.147,1.1396,1.1341,1.1443,1.147,1.1491,1.1592,1.1619,1.1619,1.1619,1.1694,1.1147,0.9157,0.876,0.8061,0.531,0.5757,0.5976,0.3935,0.2082,0.0617,-0.0135,-0.0606,-0.0941,-0.0941,-0.0404,0.0,0.0,0.0,0.074,0.2551,0.3289,0.4891,0.7831,0.8568,0.9437,1.0651,0.9576,0.8933,0.8913,0.7711,0.7348,0.792,0.0,0.0,0.0,0.0,0.0,0.0,0.0,0.0,0.0,0.0,0.0,0.0,0.0,0.0,0.0,0.0,0.0,0.0,0.0,0.0,0.0,0.0,0.0,0.0,0.0,0.0,0.0,0.0,0.1568,0.5454,0.591,0.7581,1.1423,1.2053,1.2146,1.2146,1.2203,1.1401,0.9387,0.9228,0.8238,0.6311,0.8415,0.9557,0.9638,1.1906,1.2969,1.2976,1.2976,1.2969,1.2889,1.2889,1.2722,1.2338,1.0346,0.9417,0.9066,0.7068,0.7469,0.9125,0.9162,1.0272,1.1809,1.1667,1.1619,1.1619,1.1619,1.1619,1.1619,1.1619,1.1619,1.1619,1.1619,1.1619,1.1619,1.1619,1.1619,1.1619,1.1619,1.1619,1.1038,0.9064,0.8631,0.7472,0.356,0.2752,0.2086,0.0214,-0.1544,-0.3391,-0.5276,-0.3992,0.0,-0.2685,-0.1142,-0.0067,0.0,0.0,0.0741,0.2554,0.4364,0.6168,0.7902,0.9709,1.0724,1.0724,1.0724,1.0724,1.0724,1.0439,1.0222,1.0066,0.0,0.0,0.0,0.0,0.0,0.0,0.0,0.0,0.0,0.0,0.0,0.0,0.0,0.0,0.0,0.0,0.0,0.0,0.0,0.0,0.0,0.0,0.0,0.0,0.0,0.0,0.0,0.0,0.1636,0.5867,0.6142,0.7134,0.9981,1.012,0.9444,0.8033,0.7965,0.7781,0.7168,0.5641,0.5327,0.6311,0.704,0.8127,0.9749,1.2044,1.3173,1.3281,1.3281,1.2307,1.065,1.065,0.9683,0.805,0.7408,0.7221,0.7084,0.6502,0.6641,0.7257,0.8655,1.0272,1.1809,1.1667,1.1619,1.1619,1.1619,1.1619,1.1619,1.1619,1.1619,1.1619,1.1619,1.1619,1.1619,1.1619,1.1619,1.1619,1.1619,1.1619,1.0671,0.7331,0.6604,0.5446,0.1529,-0.0363,-0.1449,-0.2023,-0.241,-0.3347,-0.5276,-0.5036,0.0,-0.2887,-0.2283,-0.1484,-0.0137,0.0,0.0754,0.2558,0.4379,0.6118,0.7882,0.9698,1.0772,1.0813,1.082,1.082,1.082,1.0697,1.1091,0.0,0.0,0.0,0.0,0.0,0.0,0.0,0.0,0.0,0.0,0.0,0.0,0.0,0.0,0.0,0.0,0.0,0.0,0.0,0.0,0.0,0.0,0.0,0.0,0.0,0.0,0.0,0.0,0.0867,0.2782,0.6139,0.6317,0.716,0.9452,0.8595,0.7477,0.6331,0.6291,0.5922,0.4976,0.3756,0.3275,0.3619,0.4685,0.5851,0.7132,0.9365,1.0479,1.0632,1.0632,0.9843,0.0,0.8536,0.7765,0.6485,0.637,0.6357,0.0,0.0,0.0,0.0,0.0,0.9703,1.0627,1.1378,1.1619,1.1619,1.1619,1.1619,1.1619,1.1619,1.1619,1.1619,1.1619,1.1619,1.1619,1.1619,1.1619,1.1619,1.1619,1.1619,1.0743,0.7693,0.7038,0.6098,0.3056,0.0872,0.0,-0.1525,-0.2927,-0.4296,-0.5417,-0.4842,-0.3891,-0.287,-0.205,-0.1167,-0.0138,0.0,0.0417,0.147,0.3261,0.0,0.0,0.0,1.0122,1.0968,1.1097,0.0,0.0,0.0,0.0,0.0,0.0,0.0,0.0,0.8753,0.733,0.0,0.0,0.0,0.0,0.0,0.0,0.0,0.0,0.0,0.0,0.0,0.0,0.0,0.0,0.0,0.0,0.0,0.0,0.0,0.0,0.0,0.0,0.175,0.3856,0.5926,0.6088,0.6893,0.876,0.7055,0.5838,0.5596,0.0,0.0,0.0,0.0,0.1834,0.0,0.2276,0.3369,0.3447,0.5625,0.671,0.67,0.67,0.6533,0.6366,0.6366,0.6032,0.5521,0.5465,0.5358,0.542,0.5783,0.5966,0.6171,0.7955,0.8616,0.9024,1.0976,0.0,0.0,1.1647,1.1647,1.164,1.1626,1.1633,1.1647,1.1647,1.1653,1.1667,1.1667,1.1667,1.1667,1.1667,1.1667,1.1155,0.9179,0.8729,0.814,0.6185,0.4436,0.2687,0.0942,-0.2653,-0.5341,-0.5554,-0.4087,-0.2938,-0.2728,-0.1331,-0.0211,0.0,0.0,0.0,0.0,0.1688,0.3509,0.5457,0.7553,0.9446,1.1143,1.1362,1.1443,1.1443,1.1606,1.1755,1.1884,0.9899,0.8919,0.8852,0.8108,0.5917,0.0,0.0,0.0,0.0,0.0,0.0,0.0,0.0,0.0,0.0,0.0,0.0,0.0,0.0,0.0,0.0,0.0,0.0,0.0,0.0,0.0,0.0,0.0408,0.1485,0.3747,0.3801,0.4028,0.452,0.4028,0.2961,0.1318,0.1247,0.1008,0.0595,0.0595,0.0427,0.0,0.2242,0.3346,0.3318,0.0,0.0,0.67,0.67,0.57,0.4027,0.4027,0.1929,-0.1425,-0.1506,-0.1413,-0.1069,0.241,0.3721,0.3918,0.5852,0.7511,0.9159,1.1237,1.1898,1.1789,1.1789,1.1789,1.1769,1.1653,1.1701,0.0,1.1789,1.1877,1.1979,1.1979,1.1979,1.1979,1.1979,1.1979,1.1447,0.9494,0.8976,0.825,0.6338,0.5557,0.5156,0.4716,0.0287,-0.3778,-0.5341,-0.521,-0.4329,-0.2868,-0.238,-0.1617,-0.0142,0.0,0.0,0.0,0.1662,0.3519,0.5463,0.8862,1.1043,1.1525,1.1667,1.1748,1.1748,1.202,1.2176,1.2203,1.023,0.8502,0.6992,0.5021,0.3747,0.0,0.0,0.0,0.0,0.0,0.0,0.0,0.0,0.0,0.0,0.0,-0.2604,-0.1653,0.0,-0.1284,-0.0155,0.0,0.0,0.0,0.0,0.0,0.0,0.0994,0.2092,0.3213,0.3215,0.3215,0.3384,0.2201,0.1102,0.0085,0.0,0.0,0.0,0.0,0.0,0.0,0.1129,0.1641,0.1624,0.2817,0.3309,0.3358,0.3358,0.2771,0.1597,0.0504,-0.1258,-0.3441,-0.4612,-0.4332,-0.305,-0.0977,0.0562,0.1895,0.4906,0.6612,0.7902,1.1027,1.2013,1.1945,1.1945,1.1945,1.1932,1.1864,1.1891,1.1945,1.1945,1.1999,1.2135,1.2135,1.2135,1.2135,1.2135,1.2135,1.1836,1.0847,1.0568,1.0224,0.9255,0.8127,0.7327,0.7327,0.4131,0.1222,0.0287,0.0143,0.0498,0.1424,0.0712,0.043,0.1382,0.0587,0.0,0.0,0.2668,0.4796,0.5716,0.9523,1.1762,1.1837,1.1986,1.2094,1.2162,1.1306,1.0898,1.0963,0.7785,0.5767,0.4739,0.2553,0.1566,0.0,0.0,0.0,0.0,0.0,0.0,0.0,-0.2462,-0.2176,-0.2801,-0.3842,-0.3812,-0.1068,-0.1701,-0.2042,-0.0321,0.0,0.0,0.0,0.0,-0.0169,-0.0669,0.1346,0.2714,0.2653,0.2676,0.2688,0.2688,0.1042,0.0,0.0,0.0,0.0,0.0,0.0,0.0,0.0,0.0,0.0,0.0,0.0,0.0,0.0,0.0,0.0,-0.0084,-0.2355,-0.3273,-0.3441,-0.5282,-0.5002,-0.3312,-0.2816,-0.1556,0.0482,0.4579,0.6072,0.6616,1.0736,1.2128,1.2108,1.2108,1.2108,1.2101,1.2149,1.2081,1.2108,1.2108,1.2128,1.2149,1.2149,1.2149,1.2149,1.2149,1.2149,1.2149,1.2149,1.2128,1.2108,1.2108,1.0705,0.9492,0.947,0.808,0.6716,0.596,0.5822,0.5825,0.5812,0.416,0.2939,0.2887,0.1194,0.0,0.0,0.3325,0.5578,0.5951,0.9414,1.1694,1.2108,1.2223,1.2136,1.1914,1.0313,0.9312,0.9017,0.51,0.3145,0.3064,0.1005,0.0,-0.4265,-0.2383,-0.0454,-0.2281,-0.1357,-0.0555,0.0,-0.1636,-0.0741,-0.2532,-0.1736,-0.1042,-0.2304,-0.1375,-0.0329,0.0,0.0,0.0,0.0,0.0,-0.0779,-0.2933,-0.1037,0.0347,0.0347,0.0347,0.0348,0.0348,0.0174,0.0,0.0,0.0,0.0,0.0,0.0,0.0,0.0,0.0,0.0,0.0,0.0,0.0,0.0,0.0,0.0,-0.0085,-0.2362,-0.3273,-0.3357,-0.3608,-0.3606,-0.3184,-0.1175,-0.025,0.0493,0.4731,0.6148,0.6629,1.0975,1.2372,1.2264,1.2264,1.2264,1.2237,1.2176,1.2155,1.2264,1.2264,1.2352,1.2454,1.2454,1.2454,1.2454,1.2454,1.2454,1.2454,1.2454,1.2352,1.2264,1.2264,1.1992,1.1689,1.1483,1.1408,1.0127,0.6337,0.5936,0.5953,0.5818,0.4226,0.2997,0.2894,0.1136,0.0,0.0,0.1977,0.4,0.5879,0.8061,1.015,1.2181,1.2284,1.1484,0.9756,0.9636,0.8693,0.682,0.4496,0.3352,0.3184,0.1009,0.0,-0.2185,-0.1013,-0.0207,-0.106,-0.0648,-0.0515,-0.2518,-0.146,-0.0542,-0.2464,-0.2364,-0.1741,-0.133,-0.16,-0.1532,0.0,0.0,0.0,0.0,-0.1219,-0.2445,-0.3296,-0.3855,-0.414,-0.4114,-0.4134,-0.3532,-0.221,-0.2122,-0.1504,-0.0089,0.0,0.0,0.0,0.0,0.0,0.0,0.0,0.0,0.0,0.0,0.0,0.0,0.0,-0.0682,-0.1946,-0.2945,-0.4111,-0.5282,-0.5282,-0.4528,-0.3274,-0.2268,-0.1174,0.0333,0.333,0.5189,0.663,0.963,1.1451,1.2413,1.2413,1.2413,1.24,1.2338,1.2366,1.2413,1.2413,1.2454,1.2522,1.261,1.2637,1.2657,1.2745,1.2698,1.2637,1.2637,1.1578,1.0626,1.0626,1.0521,1.0411,1.0283,1.132,1.1492,0.9735,0.9536,0.9546,0.9503,0.7783,0.5732,0.3257,0.231,0.1323,0.0078,0.1858,0.3392,0.4237,0.6236,0.7795,0.8765,0.8842,0.8471,0.7709,0.6462,0.5395,0.4662,0.2514,0.1434,0.1358,0.0422,0.0,-0.0486,0.0,-0.0144,-0.0736,-0.0452,-0.0538,-0.2502,-0.1427,-0.0403,-0.1804,-0.2258,-0.187,-0.0257,-0.1383,-0.1911,-0.0262,0.0,0.0,0.0,-0.2116,-0.3793,-0.4287,-0.6551,-0.8102,-0.8129,-0.747,-0.6085,-0.3775,-0.3587,-0.2511,-0.009,0.0,0.0,0.0,0.0,0.0,0.0,0.0,0.0,0.0,0.0,0.0,0.0,0.0,-0.0853,-0.2352,-0.2436,-0.3358,-0.4863,-0.4863,-0.3944,-0.2436,-0.2436,-0.1429,0.0168,0.1726,0.3566,0.5694,0.7814,0.95,1.0826,1.0791,1.0779,1.0934,1.1482,1.125,1.094,1.1454,1.1227,1.0783,1.0911,1.0946,1.0969,1.1148,1.1015,1.094,1.0905,0.9635,0.8549,0.8521,0.8456,0.8391,0.8364,0.9547,1.0492,1.0457,1.048,1.0706,1.1164,0.9516,0.7225,0.4321,0.397,0.3132,0.102,0.2271,0.313,0.313,0.4552,0.5658,0.6288,0.6305,0.6059,0.561,0.3921,0.2894,0.2363,0.0761,0.0,0.0,0.0,0.0,-0.0487,0.0,-0.0507,-0.2507,-0.1475,-0.0554,-0.2616,-0.1498,0.0,-0.0085,-0.0086,-0.0087,0.0,-0.0087,-0.0087,0.0,0.0,0.0,0.0,-0.206,-0.447,-0.6697,-0.9104,-1.0624,0.0,-0.8482,-0.6102,-0.3814,-0.36,-0.2519,-0.0091,0.0,0.0,0.0,0.0,0.0,0.0,0.0,0.0,0.0,0.0,0.0,0.0,0.0,0.0,-0.0084,-0.0084,-0.0168,-0.0168,-0.0168,-0.0168,-0.0084,-0.0084,-0.0084,0.0,0.0083,0.1404,0.3531,0.5614,0.6446,0.6511,0.6516,0.6488,0.6881,0.8905,0.805,0.6896,0.8952,0.8032,0.646,0.6532,0.6469,0.6469,0.6472,0.6472,0.6532,0.6463,0.6446,0.6422,0.6427,0.641,0.6304,0.6155,0.6277,0.6379,0.6225,0.6354,0.7123,0.877,0.7309,0.6089,0.6166,0.6176,0.5318,0.3208,0.3052,0.313,0.313,0.3166,0.4139,0.6208,0.6271,0.5288,0.3215,0.3168,0.211,0.0086,0.0,0.0,0.0,0.0,0.0,-0.0143,0.0,-0.0149,-0.0858,-0.0478,-0.0162,-0.0914,-0.0504,0.0,0.0,0.0,-0.0426,-0.1801,-0.0946,-0.0432,-0.183,-0.0879,0.0,0.0,-0.2074,-0.3868,-0.452,-0.6803,0.0,0.0,0.0,0.0,-0.4046,-0.5017,-0.4212,-0.018,0.0,0.0,0.0,0.0,0.0,0.0,0.0,0.0,0.0,0.0,0.0,0.0,0.0,0.0,0.0,0.0,0.0,0.0,0.0,0.0,0.0,0.0,0.0,-0.0168,-0.1674,-0.1753,-0.0665,0.2925,0.5131,0.6284,0.6339,0.6295,0.6414,0.7111,0.6881,0.6417,0.7146,0.6802,0.6307,0.6374,0.6432,0.6479,0.6529,0.6502,0.6462,0.6438,0.523,0.4216,0.4198,0.4169,0.4142,0.4124,0.5303,0.6264,0.621,0.6271,0.7014,0.8962,0.8674,0.8347,0.8452,0.7146,0.5431,0.3442,0.1912,0.1035,0.1044,0.1048,0.1373,0.2099,0.2107,0.1803,0.1087,0.1007,0.0679,0.0,0.0,0.0,0.0,0.0,0.0,0.0,0.0,0.0,0.0,0.0,0.0,0.0,0.0,0.0,0.0,0.0,-0.0667,-0.2694,-0.2027,-0.187,-0.4064,-0.3336,-0.2225,-0.1441,-0.3441,-0.4611,-0.357,-0.5565,-0.6732,0.0,0.0,0.0,-0.4048,-0.5845,-0.5493,-0.1541,-0.136,-0.1358,-0.1353,-0.0451,0.0,0.0,0.0,0.0,0.0,0.0,0.0,0.0,0.0,0.0,0.0,0.0,0.0,0.0,0.0,0.0,0.0,0.0,-0.0505,-0.1346,-0.2771,-0.386,-0.4099,-0.1394,0.0565,0.1757,0.1749,0.1733,0.1951,0.2664,0.2347,0.1955,0.2611,0.223,0.1764,0.1791,0.1808,0.1988,0.2924,0.308,0.3226,0.4042,0.3018,0.2017,0.2009,0.1995,0.1984,0.1984,0.3173,0.4055,0.4086,0.4049,0.5046,0.7906,0.8308,0.8651,0.9516,0.8317,0.6662,0.4612,0.2409,0.0803,0.0081,0.0,0.0,0.0,0.0,0.0,0.0,0.0,0.0,0.0,0.0,0.0,0.0,0.0,0.0,0.0,0.0,0.0,0.0,0.0,0.0,0.0,0.0,0.0,0.0,0.0,-0.065,-0.287,-0.3292,-0.4082,-0.6445,-0.6956,-0.6368,-0.4084,-0.5908,-0.6456,-0.3912,0.0,0.0,0.0,0.0,0.0,-0.3725,0.0,-0.6383,-0.415,-0.3967,-0.3949,-0.3818,-0.1456,-0.0091,0.0,0.0,0.0,0.0,0.0,0.0,0.0,0.0,0.0,0.0,0.0,0.0,0.0,0.0,0.0,0.0,0.0,-0.1346,-0.3274,-0.3524,-0.4863,-0.669,-0.6948,-0.6788,-0.6549,-0.6477,-0.6404,-0.5962,-0.4031,-0.4808,-0.5991,-0.4221,-0.5047,-0.6513,-0.6659,-0.67,-0.6118,-0.4027,-0.3441,-0.2846,-0.0664,-0.0248,-0.033,-0.0163,-0.0163,-0.0163,-0.0163,-0.0081,0.0,0.0,0.0,0.1526,0.5578,0.623,0.7117,0.9235,0.9302,0.8482,0.6479,0.4257,0.2088,0.0163,0.0,0.0,0.0,0.0,0.0,0.0,0.0,0.0,0.0,0.0,0.0,0.0,0.0,0.0,0.0,0.0,0.0,0.0,0.0,0.0,0.0,0.0,0.0,0.0,0.0,-0.1081,-0.4629,-0.4293,-0.4665,-0.8314,-0.798,-0.7087,-0.6528,-0.7082,-0.6574,-0.405,0.0,-0.3694,-0.1194,-0.3207,0.0,0.0,-0.5993,-0.7091,-0.6471,-0.6474,-0.5628,-0.3685,-0.3056,-0.1797,0.0,0.0,0.0,0.0,0.0,0.0,0.0,0.0,0.0,0.0,0.0,0.0,0.0,0.0,0.0,0.0,0.0,-0.0337,-0.1262,-0.4612,-0.6199,-0.7201,-1.0511,-0.9516,-0.6639,-0.6618,-0.6644,-0.6501,-0.5953,-0.6187,-0.6511,-0.6075,-0.6279,-0.6649,-0.6691,-0.6659,-0.6533,-0.5948,-0.5867,-0.5193,-0.2928,-0.3819,-0.453,-0.2879,-0.253,-0.2516,-0.2435,-0.1064,0.0,0.0,0.0,0.0909,0.3574,0.394,0.4829,0.7037,0.5764,0.4555,0.415,0.2061,0.0577,0.0,0.0,0.0,0.0,0.0,0.0,0.0,0.0,0.0,0.0,0.0,0.0,0.0,0.0,0.0,0.0,0.0,0.0,0.0,0.0,0.0,0.0,0.0,0.0,0.0,0.0,-0.1265,-0.5265,-0.5405,-0.6344,-1.0492,-1.0779,-1.0054,-0.9113,-0.9166,-0.8307,-0.576,-0.5482,0.0,-0.3509,-0.4595,-0.5767,0.0,-0.8346,-0.9069,-0.8985,-0.9056,-0.8402,-0.6838,-0.576,-0.4493,-0.3134,-0.3134,-0.2597,-0.1614,-0.1614,-0.0983,0.0,0.0,0.0,0.0,0.0,0.0,0.0,0.0,0.0,0.0,0.0,-0.0589,-0.1765,-0.436,-0.6449,-0.854,-1.1048,-1.092,-0.9603,-0.9509,-0.9435,-0.9467,-0.9467,-0.9467,-0.9486,-0.9581,-0.9616,-0.9559,-0.9608,-0.9662,-0.9378,-0.8373,-0.8207,-0.7535,-0.5282,-0.5837,-0.6308,-0.5065,-0.4051,-0.3376,-0.3294,-0.1492,0.0,0.0,0.0,0.0417,0.1568,0.2622,0.3686,0.4977,0.403,0.3294,0.3352,0.1248,0.0,0.0,0.0,0.0,0.0,0.0,0.0,0.0,0.0,0.0,0.0,0.0,0.0,0.0,0.0,0.0,0.0,0.0,0.0,0.0,0.0,0.0,0.0,0.0,0.0,0.0,0.0,-0.1232,-0.527,-0.6326,-0.812,-1.2498,-1.3763,-1.3547,-1.1652,-1.1705,-1.0938,-0.8416,-0.808,-0.7944,-0.7555,-0.7787,-0.8783,-1.0932,-1.1613,-1.1765,-1.1432,-1.1522,-1.1441,-1.086,-0.8418,-0.7124,-0.706,-0.7057,-0.5901,-0.358,-0.358,-0.233,0.0,0.0,0.0,0.0,0.0,0.0,0.0,0.0,0.0,0.0,0.0,-0.1178,-0.3023,-0.3274,-0.5867,-0.9207,-0.9878,-1.1386,-1.2943,-1.3017,-1.3017,-1.3017,-1.3017,-1.3258,-1.3549,-1.3734,-1.3952,-1.4119,-1.4264,-1.4052,-1.33,-1.1374,-1.071,-0.9878,-0.7622,-0.7118,-0.7201,-0.7539,-0.5533,-0.3776,-0.3776,-0.1681,0.0,0.0,0.0,0.0,0.0,0.1426,0.2429,0.2517,0.2495,0.2491,0.2515,0.1,0.0,0.0,0.0,0.0,0.0,0.0,0.0,0.0,0.0,0.0,0.0,0.0,0.0,0.0,0.0,0.0,0.0,0.0,0.0,0.0,0.0,0.0,0.0,0.0,0.0,0.0,0.0,-0.1199,-0.513,-0.6212,-0.7946,-1.2355,-1.3519,-1.3934,-1.4017,-1.4218,-1.3468,-1.0845,-1.0624,-0.9848,-0.7384,-0.9339,0.0,0.0,-1.3052,-1.4185,-1.3887,-1.3919,-1.2963,-1.0837,-0.8327,-0.707,-0.7057,-0.7057,-0.5901,-0.358,-0.358,-0.233,0.0,0.0,0.0,0.0,0.0,0.0,0.0,0.0,0.0,0.0,0.0,-0.0253,-0.0842,-0.2687,-0.386,-0.5114,-0.879,-1.0299,-1.0876,-1.2751,-1.3322,-1.3322,-1.3322,-1.4534,-1.6,-1.6065,-1.7357,-1.8722,-1.876,-1.7384,-1.5909,-1.5573,-1.4113,-1.2222,-0.9961,-0.9457,-0.9961,-1.189,-0.8957,-0.6115,-0.6115,-0.2687,0.0,0.0,0.0,0.0,0.0,-0.125,-0.2159,-0.2179,-0.2178,-0.2177,-0.2181,-0.0839,0.0,0.0,0.0,0.0,0.0,0.0,0.0,0.0,0.0,0.0,0.0,0.0,0.0,0.0,0.0,0.0,0.0,0.0,0.0,0.0,0.0,0.0,0.0,0.0,-0.0276,-0.1226,-0.1449,-0.2653,-0.6428,-0.7575,-0.8964,-1.2089,-1.3112,-1.3702,-1.4306,-1.459,-1.433,-1.3258,-1.3244,-1.2783,-1.1413,-1.2373,-1.293,-1.2812,-1.3894,-1.4557,-1.4407,-1.4401,-1.3827,-1.2597,-1.1433,-1.0806,-1.0806,-1.0806,-0.9646,-0.7239,-0.5987,-0.4194,-0.1866,-0.0613,0.0,0.0,0.0,0.0,0.0,0.0,0.0,0.0,0.0,0.0,-0.0168,-0.1262,-0.2352,-0.3692,-0.5784,-0.7285,-0.8624,-1.0882,-1.2395,-1.339,-1.3308,-1.4877,-1.6565,-1.6565,-1.8191,-1.9907,-1.9907,-1.9095,-1.8028,-1.6893,-1.4946,-1.3065,-1.1973,-1.1801,-1.2056,-1.3148,-1.0715,-0.8123,-0.6867,-0.3944,-0.1346,-0.0168,-0.1009,-0.1765,-0.1765,-0.4757,-0.5915,-0.3523,-0.4363,-0.5114,-0.5114,-0.4111,-0.3449,-0.3467,-0.3468,-0.3502,-0.3578,-0.236,-0.1763,-0.1882,-0.0628,0.0,0.0,0.0,0.0,0.0,0.0,0.0,0.0,0.0,0.0,0.0,0.0,0.0,0.0,0.0,-0.0545,-0.2356,-0.2808,-0.3959,-0.7634,-0.876,-0.9744,-1.198,-1.2752,-1.3308,-1.398,-1.4326,-1.4604,-1.4841,-1.493,-1.4977,-1.4991,-1.4733,0.0,-1.4638,-1.4428,0.0,-1.4299,-1.4299,-1.4299,-1.4299,-1.4299,-1.4299,-1.4299,-1.4299,-1.3135,-1.0629,-0.8288,-0.5853,-0.3522,-0.1132,0.0,0.0,0.0,0.0,0.0,0.0,0.0,0.0,0.0,0.0,0.0,0.0,-0.1092,-0.2677,-0.3096,-0.4512,-0.6343,-0.8593,-1.0859,-1.279,-1.309,-1.5167,-1.7302,-1.7302,-1.9248,-2.1281,-2.1281,-2.0958,-1.9907,-1.722,-1.535,-1.3969,-1.348,-1.3403,-1.3403,-1.3403,-1.1635,-0.9545,-0.7706,-0.5198,-0.2771,-0.1009,-0.2268,-0.3358,-0.3358,-0.6871,-0.804,-0.4444,-0.6035,-0.7455,-0.7372,-0.6954,-0.6707,-0.6724,-0.6741,-0.6809,-0.6852,-0.5138,-0.3958,-0.3578,-0.1703,-0.0538,0.0,0.0,0.0,0.0,0.0,0.0,0.0,0.0,0.0,0.0,0.0,0.0,0.0,0.0,-0.0539,-0.2351,-0.2718,-0.3925,-0.7783,-0.8549,-0.9407,-1.206,-1.2644,-1.3078,-1.3946,-1.4326,-1.4523,-1.455,-1.4801,-1.4814,-1.4421,-1.4584,-1.4611,-1.436,-1.4319,0.0,-1.4299,-1.4299,-1.4299,-1.4299,-1.4299,-1.4299,-1.4299,-1.4299,-1.3135,-1.0624,-0.8224,-0.5899,-0.3522,-0.1124,0.0,0.0,0.0,0.0,0.0,0.0,0.0,0.0,0.0,0.0,0.0,0.0,-0.0167,-0.058,-0.2563,-0.3471,-0.4049,-0.6269,-0.8553,-1.0798,-1.2797,-1.6319,-1.9582,-1.9582,-2.2579,-2.5819,-2.5819,-2.4271,-2.1764,-1.762,-1.6483,-1.5753,-1.3804,-1.3403,-1.3403,-1.3403,-1.1635,-1.0044,-0.9711,-0.6118,-0.3274,-0.3023,-0.3191,-0.3357,-0.3358,-0.5533,-0.6871,-0.6449,-0.8457,-0.9795,-0.9711,-0.7869,-0.6731,-0.6714,-0.6778,-0.6849,-0.6933,-0.6823,-0.5798,-0.3669,-0.3401,-0.215,0.0,0.0,0.0,0.0,0.0,0.0,0.0,0.0,0.0,0.0,0.0,0.0,0.0,0.0,-0.0807,-0.3756,-0.4406,-0.555,-0.9297,-1.0101,-1.0674,-1.1871,-1.223,-1.2583,-1.3302,-1.3654,-1.3946,-1.4217,-1.4434,-1.4563,0.0,0.0,-1.4428,-1.4306,0.0,0.0,-1.4299,-1.4299,-1.4299,-1.4299,-1.4299,-1.4299,-1.4299,-1.4211,-1.3718,-1.2741,-1.0237,-0.8502,-0.7589,-0.5135,-0.3318,-0.203,-0.2021,0.0,0.0,0.0,0.0,0.0,0.0,0.0,0.0,0.0,0.0,-0.0165,-0.0985,-0.1309,-0.1717,-0.3919,-0.5262,-0.6642,-1.0273,-1.4429,-1.7955,-1.7955,-2.014,-2.282,-2.4111,-2.3792,-2.2327,-1.9329,-1.7547,-1.5999,-1.3887,-1.3403,-1.3403,-1.3403,-1.2727,-1.1635,-1.0211,-0.7452,-0.4863,-0.3524,-0.4528,-0.5365,-0.5365,-0.854,-1.0211,-0.8874,-0.9462,-1.0044,-0.9961,-1.0466,-1.0737,-1.0697,-1.09,-1.0929,-1.1047,-0.8444,-0.657,-0.5719,-0.2866,-0.0987,0.0,0.0,0.0,0.0,0.0,0.0,0.0,0.0,0.0,0.0,0.0,0.0,0.0,0.0,-0.1009,-0.4626,-0.547,-0.6677,-1.0308,-1.1185,-1.1436,-1.1775,-1.1999,-1.2325,-1.2881,-1.3254,-1.36,-1.396,-1.4136,-1.4312,0.0,-1.4394,-1.4299,-1.4299,0.0,0.0,-1.4238,-1.4231,-1.4231,-1.4231,-1.419,-1.4163,-1.4163,-1.4055,-1.4007,-1.4,-1.1509,-1.0289,-1.0218,-0.7808,-0.5828,-0.4363,-0.4363,0.0,0.0,-0.1009,-0.0588,0.0,0.0,0.0,0.0,0.0,0.0,0.0,0.0,0.0,-0.0243,-0.1777,-0.2772,-0.3966,-0.715,-1.1647,-1.5639,-1.5639,-1.7692,-2.0231,-2.1764,-2.2166,-2.1603,-1.942,-1.771,-1.5999,-1.3887,-1.3403,-1.3403,-1.3403,-1.3403,-1.2644,-1.0382,-0.8207,-0.5951,-0.3692,-0.5282,-0.67,-0.67,-1.0044,-1.1801,-1.0211,-0.9373,-0.929,-0.9961,-1.1504,-1.2451,-1.2368,-1.2621,-1.2417,-1.1813,-0.869,-0.6649,-0.6076,-0.2776,-0.0718,0.0,0.0,0.0,0.0,0.0,0.0,0.0,0.0,0.0,0.0,0.0,0.0,0.0,0.0,-0.1009,-0.4626,-0.5432,-0.6555,-1.0479,-1.1234,-1.1307,-1.1755,-1.2088,-1.2447,-1.2895,-1.3349,-1.3682,-1.3824,-1.398,-1.4075,-1.4082,-1.4211,-1.4299,0.0,0.0,0.0,-1.4082,-1.4075,-1.4075,-1.4075,-1.3926,-1.3844,-1.3844,-1.3759,-1.3844,-1.3759,-1.1385,-1.0302,-1.0213,-0.7829,-0.6703,0.0,0.0,0.0,0.0,-0.3357,-0.2003,0.0,0.0,0.0,0.0,0.0,0.0,0.0,0.0,0.0,0.0,0.0,-0.1541,-0.3383,-0.3467,-0.8102,-1.3295,-1.3295,-1.6515,-1.9907,-1.9907,-1.9907,-1.942,-1.7138,-1.6647,-1.5999,-1.3887,-1.3403,-1.3403,-1.3403,-1.3403,-1.2727,-1.0466,-0.8207,-0.5951,-0.3692,-0.5282,-0.67,-0.67,-0.8624,-1.0044,-0.9961,-0.804,-0.7622,-0.9795,-1.0236,-1.0213,-1.0043,-1.033,-0.9486,-0.703,-0.7017,-0.5987,-0.3669,-0.358,-0.2419,0.0,0.0,0.0,0.0,0.0,0.0,0.0,0.0,0.0,0.0,0.0,0.0,0.0,0.0,-0.0672,-0.3088,-0.3555,-0.4327,-0.6871,-0.7391,-0.7464,-0.7818,-0.9238,-1.0412,-1.0633,-1.2257,-1.3532,-1.3682,-1.4014,-1.4231,0.0,0.0,-1.4258,0.0,0.0,0.0,-1.3919,-1.3824,-1.381,-1.3912,-1.3865,-1.3838,-1.3838,-1.3743,-1.3695,-1.361,-1.2778,-1.2407,-1.2231,-1.1523,-1.0219,0.0,0.0,0.0,0.0,-0.3815,-0.2829,-0.2173,-0.0588,0.0,0.0,0.0,0.0,0.0,0.0,0.0,0.0,0.0,-0.0481,-0.1062,-0.1062,-0.4702,-0.8768,-0.8768,-1.1983,-1.5354,-1.5354,-1.7665,-1.9339,-1.7138,-1.6565,-1.5999,-1.3887,-1.3403,-1.3403,-1.3403,-1.3403,-1.3148,-1.2478,-0.9207,-0.6951,-0.7873,-0.7285,-0.7285,-0.879,-1.0965,-1.1718,-1.0128,-0.9373,-0.8624,-0.7789,-0.7813,-0.7772,-0.7746,-0.7937,-0.7675,-0.6943,-0.5512,-0.4383,-0.358,-0.1971,-0.0807,0.0,0.0,0.0,0.0,0.0,0.0,0.0,0.0,0.0,0.0,0.0,0.0,0.0,0.0,-0.0538,-0.235,-0.3222,-0.4125,-0.5348,-0.6766,-0.7305,-0.6117,-0.78,-0.9014,-0.8432,-1.0552,-1.2573,-1.359,0.0,0.0,0.0,-1.4129,0.0,0.0,0.0,0.0,-1.377,-1.362,-1.3559,-1.3587,-1.3648,-1.3648,-1.3587,-1.3498,-1.3431,-1.3376,-1.3281,-1.3186,-1.3091,-1.3091,-1.2304,0.0,0.0,0.0,0.0,-0.6167,-0.4694,-0.3132,-0.1748,-0.0743,0.0,0.0,0.0,-0.0079,-0.0865,-0.1177,-0.1177,-0.1177,-0.0636,0.0,0.0,-0.2566,-0.5616,-0.6449,-0.8685,-1.0997,-1.183,-1.4095,-1.5967,-1.5491,-1.5385,-1.4698,-1.2542,-1.281,-1.3148,-1.2312,-1.281,-1.3148,-1.2305,-0.9795,-0.8123,-0.8707,-0.829,-0.8457,-0.9795,-1.1973,-1.2899,-1.1469,-1.0549,-0.9462,-0.804,-0.723,-0.6353,-0.5482,-0.5542,-0.5253,-0.4339,-0.2944,-0.224,-0.224,-0.0807,0.0,0.0,-0.0897,-0.1345,-0.1345,-0.1345,-0.0897,0.0,0.0,0.0,0.0,0.0,0.0,0.0,0.0,0.0,-0.2148,-0.3823,-0.5072,-0.5147,-0.8164,-0.9433,-0.5949,-0.729,-0.8156,-0.6562,-0.8639,0.0,0.0,-1.3838,0.0,-1.3838,0.0,0.0,0.0,0.0,0.0,-1.3607,-1.3464,-1.3315,-1.3159,-1.3295,-1.3302,-1.3159,-1.3159,-1.3091,-1.2963,-1.2963,-1.2956,-1.2942,-1.2942,-1.2935,0.0,0.0,0.0,0.0,-0.981,-0.7301,-0.3598,-0.3513,-0.2263,-0.0472,-0.0478,-0.0476,-0.0706,-0.2662,-0.3365,-0.3286,-0.3133,-0.1819,-0.0161,-0.0082,-0.1415,-0.3521,-0.5613,-0.6366,-0.6951,-0.8957,-0.955,-1.0158,-1.2363,-1.2788,-1.215,-1.019,-1.1469,-1.2388,-1.0466,-1.1712,-1.2548,-1.0544,-1.0122,-0.9369,-0.7452,-0.879,-1.0044,-1.0211,-1.2056,-1.3403,-1.3403,-1.1552,-1.0211,-1.0044,-0.8109,-0.5895,-0.3724,-0.3762,-0.2831,-0.0628,-0.0538,-0.0538,-0.0538,-0.0538,-0.0538,-0.0538,-0.2776,-0.3848,-0.3848,-0.3848,-0.2687,0.0,0.0,0.0,0.0,0.0,0.0,0.0,0.0,-0.0135,-0.0538,-0.0941,-0.1292,-0.1342,-0.3239,-0.4058,-0.1733,-0.4455,-0.6878,-0.6643,-1.0169,0.0,-1.3732,-1.3838,-1.3838,-1.3838,0.0,0.0,0.0,0.0,-1.3559,-1.3295,-1.3247,-1.3159,-1.3017,-1.3044,-1.3051,-1.301,-1.301,-1.2996,-1.2963,-1.2963,-1.2901,-1.2786,-1.2786,-1.2718,0.0,0.0,0.0,-1.1823,-1.0174,-0.8917,-0.7906,-0.6246,-0.5311,-0.4841,-0.4854,-0.4823,-0.4849,-0.5396,-0.5552,-0.5248,-0.3638,-0.2784,-0.2079,-0.0488,-0.0329,-0.0915,-0.1425,-0.2855,-0.4279,-0.4779,-0.6189,-0.7595,-0.8115,-0.8273,-0.8094,-0.7615,-0.7873,-0.8624,-0.9878,-1.0391,-1.11,-1.237,-1.1052,-1.0277,-1.1623,-1.0798,-1.0632,-1.2395,-1.3065,-1.3403,-1.3403,-1.2899,-1.189,-1.0128,-0.7972,-0.6528,-0.6049,-0.6073,-0.5958,-0.5449,-0.5454,-0.5454,-0.5454,-0.5454,-0.5454,-0.5454,-0.5987,-0.6255,-0.6255,-0.6255,-0.599,0.0,0.0,0.0,0.0,0.0,0.0,0.0,0.0,0.0,0.0,-0.0676,-0.0959,-0.0141,-0.2273,-0.3544,-0.1819,-0.4178,-0.6806,0.0,0.0,-1.2483,-1.3653,-1.3783,-1.3743,0.0,0.0,0.0,0.0,0.0,-1.3315,-1.3085,-1.301,-1.2935,-1.2861,-1.2786,-1.2786,-1.2854,-1.2854,-1.282,-1.2752,-1.2752,-1.2705,-1.2623,-1.2623,-1.2583,0.0,0.0,0.0,-1.2552,-1.1348,-1.0346,-0.9402,-0.8251,-0.7175,-0.6315,-0.6315,-0.6292,-0.6414,-0.7423,-0.7111,-0.6105,-0.4965,-0.3241,-0.1507,-0.0322,0.0,0.0,0.0,-0.0921,-0.21,-0.3107,-0.4178,-0.533,-0.6443,-0.6673,-0.6327,-0.536,-0.5951,-0.7038,-0.829,-0.9331,-1.0639,-1.2969,-1.2326,-1.1888,-1.3217,-1.2388,-1.1973,-1.3231,-1.3403,-1.3403,-1.3403,-1.3403,-1.2893,-1.1635,-1.0466,-0.8937,-0.6949,-0.6785,-0.6852,-0.7,-0.7007,-0.7023,-0.7057,-0.7057,-0.7681,-0.8753,-0.8753,-0.8753,-0.8753,-0.8753,-0.8129,0.0,0.0,0.0,0.0,0.0,0.0,0.0,0.0,0.0,0.0,-0.1223,-0.1793,-0.0281,-0.3158,-0.507,-0.3102,0.0,0.0,-0.9404,-1.0299,-1.1407,-1.3036,-1.3374,0.0,0.0,0.0,0.0,0.0,0.0,-1.3078,-1.2935,-1.28,-1.2718,-1.2698,-1.2569,-1.2562,-1.2691,-1.2698,-1.263,-1.2501,-1.2501,-1.2501,-1.2501,-1.2501,-1.2501,-1.2501,0.0,0.0,-1.2515,-1.2644,-1.1588,-0.9853,-1.0033,-0.8909,-0.7267,-0.7267,-0.7033,-0.6956,-0.8439,-0.7738,-0.6254,-0.5942,-0.3366,-0.0393,-0.0079,0.0,0.0,0.0,0.0,-0.0419,-0.2342,-0.2737,-0.3135,-0.5158,-0.5628,-0.5031,-0.3258,-0.4349,-0.5852,-0.6533,-0.8277,-1.0351,-1.2949,-1.3349,-1.3342,-1.3363,-1.3363,-1.3376,-1.3397,-1.3403,-1.3403,-1.3403,-1.3403,-1.3403,-1.3403,-1.3403,-1.1766,-0.7977,-0.7742,-0.782,-0.7971,-0.799,-0.8033,-0.8195,-0.8211,-0.9197,-1.125,-1.125,-1.125,-1.125,-1.125,-1.018,0.0,0.0,0.0,0.0,0.0,0.0,0.0,0.0,0.0,0.0,-0.0204,-0.0347,-0.0072,-0.3364,-0.4928,-0.1164,0.0,-0.6746,0.0,0.0,-1.2305,-1.0623,0.0,0.0,0.0,0.0,0.0,0.0,0.0,-1.2929,-1.2773,-1.2745,-1.2671,-1.2542,-1.2515,-1.2515,-1.2535,-1.2535,-1.2522,-1.2501,-1.2501,-1.2501,-1.2501,-1.2501,-1.2501,-1.2501,0.0,-1.2501,-1.2501,-1.2528,-1.2367,-1.203,-1.2057,-1.1817,-1.156,-1.156,-1.0469,-0.875,-0.7271,-0.6566,-0.602,-0.4146,-0.313,-0.2272,-0.0551,0.0,0.0,0.0,0.0,-0.0083,-0.041,-0.049,-0.0571,-0.098,-0.0979,-0.0899,-0.0579,-0.0829,-0.2159,-0.5939,-0.6898,-0.8337,-1.2546,-1.3105,-1.3071,-1.3193,-1.3207,-1.3254,-1.3383,-1.3403,-1.3403,-1.3403,-1.3403,-1.3403,-1.3403,-1.3403,-1.3072,-1.242,-1.2449,-1.2586,-1.2736,-1.2861,-1.3023,-1.3041,-1.3161,-1.3401,-1.3761,-1.3761,-1.3761,-1.3761,-1.3761,-1.3578,0.0,0.0,0.0,0.0,0.0,0.0,0.0,0.0,0.0,0.0,0.0,0.0,0.0,-0.1562,-0.3067,-0.352,0.0,-1.0338,-1.0284,-1.2078,0.0,0.0,0.0,0.0,0.0,0.0,0.0,0.0,0.0,0.0,-1.2617,-1.261,-1.2576,-1.2501,-1.2501,-1.2501,-1.2501,-1.2501,-1.2501,-1.2501,-1.2501,-1.2501,-1.2501,-1.2501,-1.2501,-1.2501,0.0,-1.2501,-1.2501,-1.2501,-1.2501,-1.2501,-1.2501,-1.2501,-1.2333,-1.1241,-0.948,-0.7574,-0.6597,-0.5522,-0.4381,-0.3443,-0.2349,-0.1254,-0.0314,0.0,0.0,0.0,0.0,0.0,0.0,0.0,0.0,0.0,0.0,0.0,0.0,-0.0992,-0.2811,-0.5973,-0.6612,-0.797,-1.2336,-1.2098,-1.1678,-1.2883,-1.3125,-1.32,-1.3268,-1.3349,-1.3403,-1.3403,-1.3403,-1.3403,-1.3403,-1.3403,-1.3403,-1.3403,-1.3546,-1.3661,-1.3722,-1.3865,-1.3946,-1.3946,-1.4014,-1.4095,-1.4177,-1.4177,-1.4217,-1.4299,-1.4299,-1.4299,0.0,0.0,0.0,0.0,0.0,0.0,0.0,0.0,0.0,0.0,0.0,0.0,0.0,0.0,0.0,-0.6686,-0.9912,-1.1971,-1.2503,0.0,0.0,0.0,0.0,0.0,0.0,0.0,0.0,0.0,0.0,0.0,-1.2406,-1.24,-1.24,-1.24,-1.24,-1.24,-1.24,-1.24,-1.2433,-1.2501,-1.2501,-1.2501,-1.2501,-1.2501,-1.2501,-1.2501,-1.1953,-1.1798,-1.1798,-1.1798,-1.1798,-1.1798,-1.2347,-1.2185,-1.1463,-0.8861,-0.6949,-0.5444,-0.5009,-0.3713,-0.234,-0.2348,-0.1333,0.0,0.0,0.0,0.0,0.0,0.0,0.0,0.0,0.0,0.0,0.0,-0.0403,-0.0728,-0.0737,-0.2458,-0.4752,-0.6827,-0.6902,-0.8015,-1.2247,-1.1222,-1.0473,-1.2582,-1.2996,-1.3085,-1.3119,-1.3254,-1.3349,-1.3349,-1.3376,-1.3403,-1.3403,-1.3403,-1.3403,-1.3403,-1.3512,-1.3573,-1.3573,-1.3715,-1.379,-1.379,-1.3824,-1.3899,-1.4021,-1.4021,-1.4095,-1.4245,-1.4245,-1.4265,0.0,0.0,0.0,0.0,0.0,0.0,0.0,0.0,0.0,0.0,0.0,0.0,0.0,0.0,-0.2159,-0.8808,-0.8267,-0.7734,-0.9789,0.0,0.0,0.0,0.0,0.0,0.0,0.0,0.0,0.0,0.0,0.0,-1.2176,-1.2094,-1.2094,-1.2094,-1.2094,-1.2094,-1.2094,-1.2094,-1.223,-1.2501,-1.2501,-1.2501,-1.2501,-1.2501,-1.2501,-1.2424,-1.0469,-0.9609,-0.9609,-0.9609,-0.9609,-0.9842,-1.1721,-1.1327,-0.9128,-0.5017,-0.3463,-0.3082,-0.1156,-0.0386,-0.0232,-0.0235,-0.0157,0.0,0.0,0.0,0.0,0.0,0.0,0.0,0.0,0.0,0.0,0.0,-0.1494,-0.2914,-0.2869,-0.4551,-0.6745,-0.9097,-0.7913,-0.7855,-1.2227,-1.1151,-1.0352,-1.2423,-1.2752,-1.2813,-1.2956,-1.3098,-1.3186,-1.3186,-1.3315,-1.3403,-1.3403,-1.3403,-1.3403,-1.3403,-1.341,-1.3417,-1.3417,-1.3566,-1.3648,-1.3648,-1.3777,-1.3844,-1.3858,-1.3858,-1.3939,-1.4089,-1.4089,-1.4163,0.0,0.0,0.0,0.0,0.0,0.0,0.0,0.0,0.0,0.0,0.0,0.0,0.0,-0.1093,-0.2929,-0.5437,-0.6284,-0.689,0.0,0.0,0.0,0.0,0.0,0.0,0.0,0.0,0.0,0.0,0.0,0.0,-0.8515,-0.8511,-0.8511,-0.8511,-0.8511,-0.8511,-0.8511,-0.8511,-0.8554,-0.8707,-1.1161,-1.2372,-1.2296,-1.1128,-1.0579,-1.0426,-0.8342,-0.7496,-0.75,-0.748,-0.7505,-0.7574,-0.837,-0.7342,-0.5325,-0.3711,-0.2269,-0.1067,-0.0305,0.0,0.0,0.0,0.0,0.0,0.0,0.0,0.0,0.0,0.0,0.0,0.0,-0.0941,-0.1959,-0.1959,-0.3523,-0.51,-0.5082,-0.6843,-0.8613,-0.9412,-0.8913,-0.9342,-1.2213,-1.089,-1.0146,-1.2271,-1.2671,-1.2752,-1.2807,-1.2949,-1.3078,-1.3166,-1.322,-1.3261,-1.3261,-1.3261,-1.3302,-1.3397,-1.3403,-1.3403,-1.3403,-1.3458,-1.3485,-1.3485,-1.3539,-1.3614,-1.3709,-1.3709,-1.3831,-1.4075,-1.4075,-1.4156,0.0,0.0,0.0,0.0,0.0,0.0,0.0,0.0,0.0,0.0,0.0,0.0,0.0,-0.1237,0.0,0.0,-0.4611,0.0,0.0,0.0,0.0,0.0,0.0,0.0,0.0,0.0,0.0,0.0,0.0,0.0,0.0,-0.611,-0.611,-0.611,-0.611,-0.611,-0.611,-0.611,-0.611,-0.6184,-0.8975,-1.0341,-1.0381,-0.9,-0.8389,-0.8313,-0.6184,-0.527,-0.5275,-0.5263,-0.5689,-0.6247,-0.5535,-0.4367,-0.2992,-0.2395,-0.1195,0.0,0.0,0.0,0.0,0.0,0.0,0.0,0.0,0.0,0.0,0.0,-0.0463,-0.0931,-0.0931,-0.2026,-0.3286,-0.3912,-0.5708,-0.7287,-0.7268,-0.9017,-1.0532,-1.0487,-0.9992,-1.019,-1.2187,-1.0808,-1.0075,-1.2185,-1.2589,-1.2657,-1.2657,-1.2793,-1.2963,-1.3152,-1.3214,-1.3247,-1.3247,-1.3247,-1.3288,-1.3397,-1.3403,-1.3403,-1.3403,-1.3403,-1.3403,-1.3403,-1.3403,-1.3451,-1.3559,-1.2791,-1.2574,-1.2884,-1.2884,-1.296,0.0,0.0,0.0,0.0,0.0,0.0,0.0,0.0,0.0,0.0,0.0,0.0,0.0,0.0,0.0,-0.292,0.0,0.0,0.0,0.0,0.0,0.0,0.0,0.0,0.0,0.0,0.0,0.0,0.0,0.0,0.0,-0.5736,-0.5736,-0.5736,-0.5736,-0.5736,-0.5736,-0.5736,-0.5736,-0.5736,-0.588,-0.6103,-0.633,-0.6255,-0.6255,-0.618,-0.4,-0.3096,-0.31,-0.3062,-0.4335,-0.6007,-0.3886,-0.3045,-0.2839,-0.075,0.0,0.0,0.0,0.0,0.0,0.0,0.0,0.0,0.0,0.0,0.0,0.0,-0.1438,-0.287,-0.2945,-0.3076,-0.3675,-0.5786,-0.7894,-0.9454,-0.9454,-1.1011,-1.2549,-1.2698,-1.0945,-1.0114,-1.2305,-1.0867,-1.0153,-1.2185,-1.2501,-1.2501,-1.2501,-1.2637,-1.284,-1.3132,-1.3302,-1.3397,-1.3397,-1.3397,-1.3397,-1.3397,-1.3403,-1.3403,-1.3403,-1.3403,-1.3403,-1.3403,-1.3403,-1.3403,-1.3403,-1.1131,-1.0106,-1.0302,-1.0302,-1.0359,0.0,0.0,0.0,0.0,0.0,0.0,0.0,0.0,0.0,0.0,0.0,0.0,0.0,0.0,0.0,0.0,0.0,0.0,0.0,0.0,0.0,0.0,0.0,0.0,0.0,0.0,0.0,0.0,0.0,0.0,0.0,-0.1748,-0.1748,-0.1748,-0.1748,-0.1748,-0.1748,-0.1748,-0.1748,-0.1748,-0.1755,-0.3312,-0.6022,-0.4689,-0.4022,-0.3948,-0.1866,-0.0897,-0.0897,-0.0909,-0.1295,-0.1831,-0.1203,-0.0899,-0.0825,-0.0222,0.0,0.0,0.0,0.0,0.0,0.0,0.0,0.0,0.0,0.0,0.0,0.0,-0.1428,-0.3247,-0.4675,-0.6139,-0.7405,-0.8157,-1.0015,-1.156,-1.156,-1.203,-1.2515,-1.2562,-1.2063,-1.1811,-1.2485,-1.1979,-1.1798,-1.2424,-1.2501,-1.2501,-1.2501,-1.2637,-1.2725,-1.2705,-1.284,-1.2929,-1.2929,-1.303,-1.3132,-1.3234,-1.3342,-1.3403,-1.3403,-1.3403,-1.3403,-1.3403,-1.3403,-1.3403,-1.3403,-1.2727,-1.1706,-1.0302,-1.0302,-1.0359,0.0,0.0,0.0,0.0,0.0,0.0,0.0,0.0,0.0,0.0,0.0,0.0,0.0,0.0,0.0,0.0,0.0,0.0,0.0,0.0,0.0,0.0,0.0,0.0,0.0,0.0,0.0,0.0,0.0,0.0,0.0,0.0,0.0,0.0,0.0,0.0,0.0,0.0,0.0,0.0,0.0,-0.1244,-0.3602,-0.2429,-0.1842,-0.1768,-0.0516,0.0,0.0,0.0,0.0,0.0,0.0,0.0,0.0,0.0,0.0,0.0,0.0,0.0,0.0,0.0,0.0,0.0,0.0,0.0,0.0,0.0,-0.1408,-0.3198,-0.4458,-0.6259,-0.8188,-1.0008,-1.1421,-1.2433,-1.2488,-1.2501,-1.2501,-1.2501,-1.2501,-1.2501,-1.2501,-1.2501,-1.2501,-1.2501,-1.2501,-1.2501,-1.2501,-1.2637,-1.2698,-1.2603,-1.2732,-1.282,-1.282,-1.2908,-1.3024,-1.3166,-1.3261,-1.3336,-1.3397,-1.3403,-1.3403,-1.3403,-1.3403,-1.3403,-1.3403,-1.2478,-1.1426,-1.0146,-1.023,-1.0266,0.0,0.0,0.0,0.0,0.0,0.0,0.0,0.0,0.0,0.0,0.0,0.0,0.0,0.0,0.0,0.0,0.0,0.0,0.0,0.0,0.0,0.0,0.0,0.0,0.0,0.0,0.0,0.0,0.0,0.0,0.0,0.0,0.0,0.0,0.0,0.0,0.0,0.0,0.0,0.0,0.0,0.0,0.0,0.0,0.0,0.0,0.0,0.0,0.0,0.0,0.0,0.0,0.0,0.0,0.0,0.0,0.0,0.0,0.0,0.0,0.0,0.0,0.0,0.0,0.0,0.0,0.0,0.0,-0.1384,-0.2909,-0.2909,-0.4467,-0.6981,-1.0806,-1.1719,-1.1765,-1.1901,-1.1921,-1.1921,-1.1947,-1.194,-1.194,-1.1953,-1.1953,-1.1953,-1.1953,-1.2108,-1.2192,-1.2192,-1.2467,-1.2712,-1.2712,-1.2834,-1.2922,-1.2922,-1.2935,-1.2996,-1.3125,-1.3146,-1.322,-1.3376,-1.3397,-1.3403,-1.3403,-1.3403,-1.3403,-1.3403,-1.1303,-1.0211,-1.0044,-1.0044,-0.9961,0.0,0.0,0.0,0.0,0.0,0.0,0.0,0.0,0.0,0.0,0.0,0.0,0.0,0.0,0.0,0.0,0.0,0.0,0.0,0.0,0.0,0.0,0.0,0.0,0.0,0.0,0.0,0.0,0.0,0.0,-0.0071,0.0,0.0,0.0,0.0,0.0,0.0,0.0,0.0,0.0,0.0,0.0,0.0,0.0,0.0,0.0,0.0,0.0,0.0,0.0,0.0,0.0,0.0,0.0,0.0,0.0,0.0,0.0,0.0,0.0,0.0,0.0,0.0,0.0,0.0,0.0,0.0,0.0,-0.1384,-0.2909,-0.2909,-0.4366,-0.6071,-0.7129,-0.751,-0.7591,-0.7608,-0.7646,-0.7638,-0.7631,-0.7598,-0.765,-0.7644,-0.7656,-0.7656,-0.7656,-0.8983,-1.0075,-1.0075,-1.1507,-1.2549,-1.2549,-1.2583,-1.2603,-1.2603,-1.2712,-1.2793,-1.2827,-1.2942,-1.3071,-1.3214,-1.3336,-1.3403,-1.3403,-1.3403,-1.3403,-1.3403,-1.2893,-1.1807,-1.0044,-1.0044,-0.9124,0.019,0.0592,0.1027,0.0213,0.0,0.0,0.0,0.0,0.0,0.0,0.0,0.0,0.0,0.0,0.0,0.0,0.0,0.0,0.0,0.0,0.0,0.0,0.0,0.0,0.0,0.0,0.0,0.0,0.0,-0.2045,-0.007,0.0,0.0,0.0,0.0,0.0,0.0,0.0,0.0,0.0,0.0,0.0,0.0,0.0,0.0,0.0,0.0,0.0,0.0,0.0,0.0,0.0,0.0,0.0,0.0,0.0,0.0,0.0,0.0,0.0,0.0,0.0,0.0,0.0,0.0,0.0,0.0,0.0,-0.0729,-0.1529,-0.1529,-0.2256,-0.3061,-0.3079,-0.4665,-0.6145,-0.6301,-0.6283,-0.629,-0.6333,-0.6323,-0.6309,-0.6273,-0.628,-0.6291,-0.6329,-0.7189,-0.8283,-0.9294,-1.0314,-1.1405,-1.2424,-1.2501,-1.2501,-1.2501,-1.2576,-1.2651,-1.2725,-1.2807,-1.2915,-1.3064,-1.3146,-1.3254,-1.3397,-1.3403,-1.3403,-1.3403,-1.3403,-1.281,-1.1718,-1.1635,-1.1048,0.1138,0.1587,0.2138,0.0789,0.0217,0.0,0.0,0.0,0.0,0.0,0.0,0.0,0.0,0.0,0.0,0.0,0.0,0.0,0.0,0.0,0.0,0.0,0.0,0.0,0.0,0.0,0.0,0.0,0.0,-0.1673,-0.007,0.0,0.0,0.0,0.0,0.0,0.0,0.0,0.0,0.0,0.0,0.0,0.0,0.0,0.0,0.0,0.0,0.0,0.0,0.0,0.0,0.0,0.0,0.0,0.0,0.0,0.0,0.0,0.0,0.0,0.0,0.0,0.0,0.0,0.0,0.0,0.0,0.0,0.0,0.0,0.0,0.0,0.0,0.0,-0.2568,-0.5031,-0.5173,-0.5179,-0.5193,-0.5193,-0.5208,-0.5208,-0.5205,-0.5208,-0.5225,-0.5203,-0.5839,-0.6937,-0.8644,-0.9516,-1.0624,-1.2347,-1.2501,-1.2501,-1.2501,-1.2501,-1.2556,-1.2684,-1.2691,-1.2759,-1.2915,-1.2922,-1.3051,-1.3322,-1.3322,-1.3336,-1.3363,-1.3363,-1.3376,-1.3403,-1.3403,-1.3231,0.391,0.3097,0.2237,0.2304,0.1127,0.0,0.0,0.0,0.0,0.0,0.0,0.0,0.0,0.0,0.0,0.0,0.0,0.0,0.0,0.0,0.0,0.0,0.0,0.0,0.0,0.0,0.0,0.0,-0.0413,-0.0274,0.0,0.0,0.0,0.0,0.0,0.0,0.0,0.0,0.0,0.0,0.0,0.0,0.0,0.0,0.0,0.0,0.0,0.0,0.0,0.0,0.0,0.0,0.0,0.0,0.0,0.0,0.0,0.0,0.0,0.0,0.0,0.0,0.0,0.0,0.0,0.0,0.0,0.0,0.0,0.0,0.0,0.0,0.0,0.0,-0.0438,-0.0807,-0.0817,-0.0812,-0.0811,-0.0831,-0.0835,-0.0835,-0.0834,-0.0835,-0.0836,-0.0837,-0.3982,-0.6389,-0.6696,-0.9855,-1.2185,-1.2501,-1.2501,-1.2501,-1.2501,-1.2501,-1.2508,-1.2528,-1.2528,-1.2603,-1.2752,-1.2759,-1.284,-1.3017,-1.3017,-1.3078,-1.32,-1.32,-1.3268,-1.3403,-1.3403,-1.2388,0.5859,0.4878,0.3808,0.4154,0.2868,0.1535,0.1515,0.0756,0.0,0.0,0.0,0.0,0.0,0.0,0.0,0.0,0.0,0.0,0.0,0.0,0.0,0.0,0.0,0.0,0.0,0.0,0.0,0.0,0.0,0.0,0.0,0.0,0.0,0.0,0.0,0.0,0.0,0.0,0.0,0.0,0.0,0.0,0.0,0.0,0.0,0.0,0.0,0.0,0.0,0.0,0.0,0.0,0.0,0.0,0.0,0.0,0.0,0.0,0.0,0.0,0.0,0.0,0.0,0.0,0.0,0.0,0.0,0.0,0.0,0.0,0.0,0.0,0.0,0.0,0.0,0.0,0.0,-0.0878,-0.161,-0.1639,-0.0749,0.0,0.0,0.0,0.0,0.0,-0.2505,-0.488,-0.6138,-0.8861,-1.1164,-1.2333,-1.2501,-1.2501,-1.2501,-1.2501,-1.2501,-1.2501,-1.2501,-1.2528,-1.2603,-1.2603,-1.2637,-1.2705,-1.2874,-1.299,-1.3057,-1.3057,-1.3085,-1.3152,-1.3152,-1.2037,0.7508,0.6505,0.5487,0.5878,0.4595,0.3231,0.28,0.1638,0.0545,0.0,0.0,0.0,0.0,0.0,0.0,0.0,0.0,0.0,0.0,0.0,0.0,0.0,0.0,0.0,0.0,0.0,0.0,0.0,0.0,0.0,0.0,0.0,0.0,0.0,0.0,0.0,0.0,0.0,0.0,0.0,0.0,0.0,0.0,0.0,0.0,0.0,0.0,0.0,0.0,0.0,0.0,0.0,0.0,0.0,0.0,0.0,0.0,0.0,0.0,0.0,0.0,0.0,0.0,0.0,0.0,0.0,0.0,0.0,0.0,0.0,0.0,0.0,0.0,0.0,0.0,0.0,0.0,-0.1166,-0.2189,-0.2136,-0.0961,0.0,0.0,0.0,0.0,0.0,-0.1653,-0.3769,-0.5926,-0.8022,-1.0069,-1.2149,-1.2461,-1.2488,-1.2447,-1.2481,-1.2501,-1.2501,-1.2501,-1.2501,-1.2501,-1.2501,-1.2501,-1.2501,-1.2725,-1.2861,-1.2901,-1.2901,-1.2922,-1.2963,-1.2468,-1.1299,0.8957,0.7852,0.6758,0.737,0.619,0.4559,0.3082,0.2622,0.2084,0.0336,0.0,0.0,0.0,0.0,0.0,0.0,0.0,0.0,0.0,0.0,0.0,0.0,0.0,0.0,0.0,0.0,0.0,0.0,0.0,0.0,0.0,0.0,0.0,0.0,0.0,0.0,0.0,0.0,0.0,0.0,0.0,0.0,0.0,0.0,0.0,0.0,0.0,0.0,0.0,0.0,0.0,0.0,0.0,0.0,0.0,0.0,0.0,0.0,0.0,0.0,0.0,0.0,0.0,0.0,0.0,0.0,0.0,0.0,0.0,0.0,0.0,0.0,0.0,0.0,0.0,0.0,0.0,-0.0073,-0.0146,-0.0146,-0.0073,0.0,0.0,0.0,0.0,0.0,-0.1769,-0.3781,-0.5779,-0.8013,-1.0084,-1.1945,-1.2332,-1.2447,-1.2311,-1.2427,-1.2501,-1.2501,-1.2501,-1.2501,-1.2501,-1.2501,-1.2501,-1.2501,-1.2515,-1.2596,-1.2745,-1.2745,-1.282,-1.2963,-1.0925,-0.9869,0.8777,0.8594,0.8396,0.8769,0.776,0.6541,0.5992,0.5096,0.389,0.2081,0.1747,0.1411,0.0,0.0,0.0,0.0,0.0,0.0,0.0,0.0,0.0,0.0,0.0,0.0,0.0,0.0,0.0,0.0,0.0,0.0,0.0,0.0,0.0,0.0,0.0,0.0,0.0,0.0,0.0,0.0,0.0,0.0,0.0,0.0,0.0,0.0,0.0,0.0,0.0,0.0,0.0,0.0,0.0,0.0,0.0,0.0,0.0,0.0,0.0,0.0,0.0,0.0,-0.0813,-0.1765,-0.172,-0.1728,-0.1734,-0.1765,-0.0926,0.0,0.0,0.0,0.0,0.0,0.0,0.0,0.0,-0.0947,-0.1892,-0.1892,-0.0874,0.0,0.0,0.0,0.0,0.0,-0.1681,-0.3229,-0.4068,-0.5931,-0.7515,-0.8308,-0.8433,-0.9046,-1.0329,-0.9273,-0.9687,-1.2347,-1.125,-1.1089,-1.2424,-1.3722,-1.4399,-1.4399,-1.5769,-1.5122,-1.2583,-1.2583,-1.261,-1.2664,-1.0521,-0.8818,0.8492,0.8743,0.9091,0.9496,0.8872,0.8103,0.7824,0.6888,0.5631,0.3949,0.3155,0.235,0.0,0.0,0.0,0.0,0.0,0.0,0.0,0.0,0.0,0.0,0.0,0.0,0.0,0.0,0.0,0.0,0.0,0.0,0.0,0.0,0.0,0.0,0.0,0.0,0.0,0.0,0.0,0.0,0.0,0.0,0.0,0.0,0.0,0.0,0.0,0.0,0.0,0.0,0.0,0.0,0.0,0.0,0.0,0.0,0.0,0.0,0.0,0.0,0.0,0.0,-0.121,-0.269,-0.2716,-0.2723,-0.2668,-0.273,-0.141,0.0,0.0,0.0,0.0,0.0,-0.051,-0.0802,-0.0146,-0.102,-0.1892,-0.1892,-0.0874,0.0,0.0,0.0,0.0,0.0,-0.1093,-0.2189,-0.2943,-0.4166,-0.5328,-0.6029,-0.6218,-0.6825,-0.8184,-0.708,-0.7816,-1.125,-1.0153,-1.0314,-1.2424,-1.3791,-1.4782,-1.5463,-1.6828,-1.6218,-1.3491,-1.3491,-1.2797,-1.1405,-0.9299,-0.6829,0.0,0.0,0.0,0.9395,0.9476,0.9189,0.8253,0.7842,0.7241,0.5793,0.4021,0.2749,0.0,0.0,0.0,0.0,0.0,0.0,0.0,0.0,0.0,0.0,0.0,0.0,0.0,0.0,0.0,0.0,0.1009,0.0,0.0,0.0,0.0,0.0,0.0,0.0,0.0,0.0,0.0,0.0,0.0,0.0,0.0,0.0,0.0,0.0,0.0,0.0,0.0,0.0,0.0,0.0,0.0,0.0,0.0,0.0,0.0,0.0,-0.0067,-0.0067,-0.0067,-0.0135,-0.1411,-0.2819,-0.2819,-0.2752,-0.2761,-0.2733,-0.1373,0.0,0.0,0.0,0.0,0.0,-0.1456,-0.2328,-0.0438,0.0,0.0,0.0,0.0,0.0,0.0,0.0,0.0,0.0,0.0,-0.0656,-0.2545,-0.2941,-0.3686,-0.5459,-0.5934,-0.6032,-0.5958,-0.6012,-0.703,-0.9289,-0.9371,-1.0236,-1.2424,-1.2579,-1.3491,-1.5455,-1.5531,-1.5523,-1.5523,-1.5531,-1.3454,-0.9449,-0.7263,-0.4066,0.8092,0.0,0.0,0.0,0.0,0.0,0.0,0.0,0.8801,0.7396,0.5628,0.3992,0.0,0.0,0.0,0.0,0.0,0.0,0.0,0.0,0.0,0.0,0.0,0.0,0.0,0.0,0.0,0.0,0.1009,0.0,0.0,0.0,0.0,0.0,0.0,0.0,0.0,0.0,0.0,0.0,0.0,0.0,0.0,0.0,0.0,0.0,0.0,0.0,0.0,0.0,0.0,0.0,0.0,0.0,0.0,0.0,0.0,-0.0202,-0.1478,-0.1948,-0.2148,-0.3488,-0.5091,-0.6293,-0.5028,-0.4626,-0.4381,-0.304,-0.1383,0.0,0.0,0.0,0.0,0.0,-0.0438,-0.0656,-0.0146,0.0,0.0,0.0,0.0,0.0,0.0,0.0,0.0,0.0,0.0,-0.0219,-0.0729,-0.0811,-0.1039,-0.1551,-0.1653,-0.2352,-0.3776,-0.2606,-0.3938,-0.9096,-0.801,-0.875,-1.2347,-1.3868,-1.4871,-1.5337,-1.6749,-1.6759,-1.5217,-1.5344,-1.4059,-1.1415,-0.7794,-0.3888,0.8133,0.8262,0.8452,0.8757,0.0,0.0,0.9686,0.9761,0.9551,0.0,0.6777,0.472,0.0,0.0,0.0,0.0,0.0,0.0,0.0,0.0,0.0,0.0,0.0,0.0,0.0,0.5295,0.3823,0.3823,0.1478,0.0,0.0,0.0,0.0,0.0,0.0,0.0,0.0,0.0,0.0,0.0,0.0,0.0,0.0,0.0,0.0,0.0,0.0,0.0,0.0,0.0,0.0,0.0,0.0,0.0,0.0,0.0,-0.0471,-0.1277,-0.235,-0.322,-0.4024,-0.5028,-0.6097,-0.6698,-0.5696,-0.4849,-0.4077,-0.2989,-0.1392,0.0,0.0,0.0,0.0,0.0,0.0,0.0,0.0,0.0,0.0,0.0,0.0,0.0,0.0,0.0,0.0,0.0,0.0,0.0,0.0,0.0,0.0,0.0,0.0,-0.0526,-0.1727,-0.0684,-0.191,-0.6474,-0.5602,-0.6469,-0.9769,-1.1048,-1.2059,-1.2774,-1.3952,-1.3874,-1.2618,-1.4366,-1.3349,-0.9596,-0.6276,-0.3019,0.8347,0.8368,0.8465,0.903,0.894,0.0,0.9707,0.9747,0.968,0.0,0.0,0.5238,0.0,0.0,0.0,0.0,0.0,0.0,0.0,0.0,0.0,0.0,0.0,0.0,1.0452,0.7569,0.5629,0.5429,0.2417,0.0606,0.0606,0.0404,0.0269,0.0269,0.0135,0.0,0.0,0.0,0.0,0.0,0.0202,0.0202,0.0,0.0202,0.0202,0.0,0.0,0.0,0.0,0.0,0.0,0.0,0.0,0.0,0.0,0.0,-0.1009,-0.2484,-0.2887,-0.4024,-0.5496,-0.583,-0.583,-0.5629,-0.5429,-0.4127,-0.2606,-0.2221,-0.1118,0.007,0.028,0.014,0.0,0.0,0.0,0.0,0.0,0.0,0.0,0.0,0.0,0.0,0.0,0.0,0.0,0.0,0.0,0.0,0.0,0.0,0.0,0.0,0.0,0.0,0.0,0.0,-0.0907,-0.2941,-0.3095,-0.4075,-0.618,-0.633,-0.7136,-0.8884,-0.8948,-0.8818,-0.8717,-1.2325,-1.1144,-0.5628,-0.3759,-0.1882,0.8472,0.8621,0.8804,0.8798,0.0,0.0,0.9313,0.9344,0.934,0.0,0.7948,0.6077,0.0,0.0,0.0,0.0,0.0,0.0,0.0,0.0,0.0,0.0,0.0,0.0,0.8701,0.7897,0.6898,0.5496,0.476,0.4359,0.4359,0.2954,0.2148,0.2148,0.074,0.0,0.0,0.0,0.0,0.0,0.1478,0.1411,0.0067,0.1478,0.1411,0.0,0.0,0.0,0.0,0.0,0.0,0.0,0.0,0.0,0.0,0.0,-0.0202,-0.0941,-0.389,-0.5095,-0.5897,-0.8706,-0.8706,-0.7231,-0.583,-0.4166,-0.2091,0.0811,0.0826,0.035,0.1796,0.1102,0.0,0.0,0.0,0.0,0.0,0.0,0.0,0.0,0.0,0.0,0.0,0.0,0.0,0.0,0.0,0.0,0.0,0.0,0.0,0.0,0.0,0.0,0.0,0.0,-0.0895,-0.2977,-0.3079,-0.4075,-0.618,-0.633,-0.6373,-0.667,-0.6532,-0.649,-0.6475,-0.7361,-0.6268,-0.3514,-0.3075,-0.1833,0.8635,0.871,0.8845,0.8913,0.0,0.0,0.0,0.9262,0.9296,0.9544,0.8119,0.6627,0.6107,0.0,0.0,0.0,0.0,0.0,0.0,0.0,0.0,0.0,0.0,0.0,0.6965,0.7498,0.7298,0.5563,0.5429,0.5429,0.5429,0.4559,0.3622,0.2752,0.1814,0.0941,0.0,0.0,0.0,0.0,0.0941,0.0874,0.0,0.0941,0.0874,0.0,0.0,0.0,0.0,0.0,0.0,0.0,0.0,0.0,0.0,0.0,-0.0538,-0.1613,-0.3423,-0.4626,-0.5696,-0.7503,-0.6831,-0.5225,-0.4292,-0.2157,0.0339,0.217,0.2056,0.1523,0.2472,0.1373,0.0,0.0,0.0,0.0,0.0,0.0,0.0,0.0,0.0,0.0,0.0,0.0,0.0,0.0,0.0,0.0,0.0,0.0,0.0,0.0,0.0,0.0,0.0,0.0,-0.0442,-0.1471,-0.1553,-0.2004,-0.3113,-0.3187,-0.3104,-0.3011,-0.1967,-0.196,-0.291,-0.1973,-0.2045,-0.2909,-0.2909,-0.1892,0.0,0.0,0.0,0.0,0.0,0.8596,0.0,0.0,0.0,0.902,0.0,0.0,0.0,0.0,0.0,0.0,0.0,0.0,0.0,0.0,0.0,0.0,0.0,0.0,0.0,0.6137,0.6544,0.5496,0.5682,0.5882,0.5897,0.5563,0.476,0.3289,0.2551,0.1478,0.0,0.0,0.0,0.0,0.0336,0.0336,0.0,0.0336,0.0336,0.0,0.0,0.0,0.0,0.0,0.0,0.0,0.0,0.0,0.0,0.0,-0.0941,-0.2216,-0.2551,-0.3689,-0.4961,-0.5295,-0.4158,-0.2618,-0.2283,-0.0136,0.2262,0.2596,0.2463,0.2261,0.2596,0.1367,0.0,0.0,0.0,-0.007,-0.042,-0.028,-0.007,-0.0419,-0.021,0.0,0.0,0.0,0.0,0.0,0.0,0.0,0.0,0.0,0.0,0.0,0.0,0.0,0.0,0.0,0.0,0.0,0.0,0.0,0.0,0.0,0.0,0.0,0.1892,0.211,0.0583,0.2545,0.1453,-0.2328,-0.2328,-0.1529,0.0,0.0,0.0,0.0,0.7279,0.0,0.0,0.0,0.7126,0.7057,0.0,0.0,0.0,0.0,0.0,0.0,0.0,0.0,0.0,0.0,0.0,0.0,0.0,0.0,0.0,0.3161,0.3904,0.5292,0.6819,0.7726,0.7693,0.6231,0.5295,0.5095,0.1947,0.0202,0.0,0.0,0.0,0.0,0.1613,0.1545,0.0067,0.168,0.1545,0.0,0.0,0.0,0.0,0.0,0.0,0.0,0.0,0.0,0.0,0.0,-0.0135,-0.0538,-0.2148,-0.2819,-0.3289,-0.4894,-0.4158,-0.2417,-0.0807,0.0,0.0617,0.223,0.1563,0.0685,0.2296,0.1347,0.0,0.0,0.0,-0.0414,-0.2025,-0.1111,-0.0482,-0.2062,-0.1101,0.0,0.0,0.0,0.0,0.0,0.0,0.0,0.0,0.0,0.0,0.0,0.0,0.0,0.0,0.0,0.0,0.0,0.0,0.0,0.0,0.0,0.0,0.0,0.1892,0.2763,0.2545,0.4504,0.349,-0.0365,-0.0365,-0.0219,0.0,0.0,0.0,0.0,0.0,0.0,0.4782,0.0,0.5756,0.0,0.0,0.0,0.0,0.0,0.0,0.0,0.0,0.0,0.0,0.0,0.0,0.0,0.0,0.0,0.0,0.0,0.0,0.0,0.7606,0.7977,0.802,0.8302,0.7503,0.5496,0.3957,0.2148,0.0,0.0,0.0,0.0,0.074,0.074,0.0,0.0807,0.074,0.0,0.0,0.0,0.0,0.0,0.0,0.0,0.0,0.0,0.0,0.0,0.0,-0.0135,-0.0874,-0.1143,-0.1277,-0.2016,-0.1747,-0.1009,-0.0202,0.0743,0.1692,0.2489,0.2158,0.176,0.2489,0.1344,0.0,0.0,-0.0814,-0.1765,-0.2525,-0.2923,-0.3386,-0.4127,-0.3654,-0.3135,-0.3126,-0.1398,-0.0351,-0.1408,-0.064,-0.0358,-0.144,-0.0653,0.0,0.0,0.0,0.0,0.0,0.0,0.0,0.0,0.0,0.0,0.0,0.0,0.0,0.0,0.2981,0.3996,0.2909,0.5949,0.6098,0.3344,0.2183,0.1093,0.6982,0.0,0.0,0.0,0.0,0.0,0.0,0.0,0.0,0.0,0.0,0.0,0.0,0.0,0.0,0.0,0.0,0.8442,0.0,0.0,0.0,0.0,0.0,0.0,0.0,0.0,0.0,0.0,0.0,0.73,0.7313,0.8955,0.8573,0.5496,0.4894,0.3155,0.0,0.0,0.0,0.0,0.0,0.0,0.0,0.0,0.0,0.0,0.0,0.0,0.0,0.0,0.0,0.0,0.0,0.0,0.0,0.0,0.0,0.0,0.0,0.0,0.0,0.0,0.0,0.0,0.0,0.0941,0.1947,0.1947,0.1947,0.1947,0.1947,0.1009,0.0,0.0,-0.1009,-0.2081,-0.2618,-0.3354,-0.4225,-0.5228,-0.5028,-0.4842,-0.5301,-0.3229,-0.1937,-0.3239,-0.2306,-0.177,-0.2567,-0.1585,-0.058,-0.0073,0.0,0.0,0.0,0.0,0.0,0.0,0.0,0.0,0.0,0.0,0.0219,0.0802,0.4071,0.5373,0.4501,0.7833,0.8487,0.6532,0.4576,0.2909,0.0,0.0,0.0,0.2694,0.0,0.0,0.0,0.0,0.228,0.0,0.0,0.0,0.0,0.0,0.0,0.6482,0.0,0.0,0.0,0.0,0.0,0.0,0.0,0.0,0.0,0.0,0.0,0.0,0.0,0.0,0.5508,0.711,0.7231,0.5429,0.3689,0.1881,0.0,0.0,0.0,0.0,0.0,0.0,0.0,0.0,0.0,0.0,0.0,0.0,0.0,0.0,0.0,0.0,0.0,0.0,0.0,0.0,0.0,0.0,0.0,0.0,0.0,0.0,0.0,0.0,0.0,0.0067,0.0067,0.0067,0.0067,0.0067,0.0067,0.0067,0.0,0.0,-0.0067,-0.0538,-0.235,-0.1344,-0.121,-0.4693,-0.3957,-0.3356,-0.5098,-0.5302,-0.5214,-0.5279,-0.5243,-0.4632,-0.2917,-0.2642,-0.193,-0.0215,0.0,0.0,0.0,0.0,0.0,0.0,0.0,0.0,0.0,0.0,0.0874,0.2763,0.4794,0.6677,0.8487,1.0521,1.0521,0.8559,0.6604,0.5663,0.0,0.0,0.2682,0.1124,0.0,0.0,0.0,0.0,0.0,0.0,0.0,0.0,0.0,0.0,0.4675,0.5174,0.5296,0.0,0.0,0.0,0.0,0.0,0.0,0.0,0.0,0.0,0.0,0.0,0.6545,0.0,0.0,0.8772,0.8435,0.5496,0.4827,0.3021,0.0,0.0,0.0,0.0,0.0,0.0,0.0,0.0,0.0,0.0,0.0,0.0,0.0,0.0,0.0,0.0,0.0,0.0,0.0,0.0,0.0,0.0,0.0,0.0,0.0,0.0,0.0,0.0,0.0,0.0,0.0,0.0,0.0,0.0,0.0,0.0,0.0,0.0,-0.0941,-0.1948,-0.2551,-0.3155,-0.3957,-0.5162,-0.4894,-0.5028,-0.6831,-0.7098,-0.7121,-0.7116,-0.5114,-0.3847,-0.4439,-0.2383,-0.0706,-0.0071,0.0,0.0,0.0,0.0,0.0,0.0,0.0,0.0,0.0,0.1239,0.2256,0.2909,0.6094,0.8049,0.8703,1.0671,1.1253,1.0593,0.9945,0.8275,0.2841,0.1804,0.0,0.0225,0.0,0.0,0.0,0.0,0.0,0.0,0.0,0.0,0.0,0.0,0.0,0.3605,0.3688,0.3665,0.0,0.3769,0.0,0.0,0.0,0.0,0.0,0.0,0.6116,0.7331,0.7598,0.0,0.0,0.0,0.9377,0.6431,0.5696,0.3957,0.1009,0.0336,0.0,0.0,0.0,0.0,0.0,0.0,0.0,0.0,0.0,0.0,0.0,0.0,0.0,0.0,0.0,0.0,0.0,0.0,0.0,0.0,0.0,0.0,0.0,0.0,0.0,0.0,0.0,0.0,0.0,0.0,0.0,0.0,0.0,0.0,0.0,0.0,-0.0874,-0.1747,-0.1747,-0.2685,-0.3689,-0.4292,-0.4426,-0.5028,-0.6765,-0.7564,-0.823,-0.8834,-0.6476,-0.4765,-0.5335,-0.2833,-0.0696,-0.007,0.0,0.0,0.0,0.0,0.0,0.0,0.0,0.0292,0.102,0.2256,0.356,0.4936,0.7399,0.9064,0.9723,1.0959,1.1619,1.1619,1.1619,1.0233]},{"header":{"parameterUnit":"m.s-1","parameterCategory":1,"la1":30.6,"la2":29.2853,"lo1":-89.7004,"lo2":-87.6739,"dy":0.0162,"dx":0.0183,"nx":112,"ny":82,"refTime":"2024-09-10T00:00:00:Z","depth":0,"parameterNumber":3,"parameterNumberName":"V-component_of_WINDS"},"data":[0.0,0.0,0.0,0.0,0.0,0.0,0.0,0.0,0.0,0.0,0.0,0.0,0.0,0.0,0.0,0.0,0.0,0.0,0.0,0.0,0.0,0.0,0.0,0.0,0.0,0.0,0.0,0.0,0.0,0.0,0.0,0.0,0.0,0.0,0.0,0.0,0.0,0.0,0.0,0.0,0.0,0.0,0.0,0.0,0.0,0.0,0.0,0.0,0.0,0.0,0.0,0.0,0.0,0.0,0.0,0.0,0.0,0.0,0.0,0.0,0.0,0.0,0.0,0.0,0.0,0.0,0.0,0.0,0.0,0.0,0.0,0.0,0.0,0.0,0.0,0.0,0.0,0.0,0.0,0.0,0.0,0.0,0.0,0.0,0.0,0.0,0.0,0.0,0.0,0.0,0.0,5.6303,5.9232,6.0944,6.0816,6.0666,5.8533,5.3691,0.0,0.0,0.0,0.0,0.0,0.0,0.0,0.0,0.0,0.0,0.0,0.0,0.0,0.0,0.0,0.0,0.0,0.0,0.0,0.0,0.0,0.0,0.0,0.0,0.0,0.0,0.0,0.0,0.0,0.0,0.0,0.0,0.0,0.0,0.0,0.0,0.0,0.0,0.0,0.0,0.0,0.0,0.0,0.0,0.0,0.0,0.0,0.0,0.0,0.0,0.0,0.0,0.0,0.0,0.0,0.0,0.0,0.0,0.0,0.0,0.0,0.0,0.0,0.0,0.0,0.0,0.0,0.0,0.0,0.0,0.0,0.0,0.0,0.0,0.0,0.0,0.0,0.0,0.0,0.0,0.0,0.0,0.0,0.0,0.0,0.0,0.0,0.0,0.0,0.0,0.0,0.0,0.0,0.0,0.0,0.0,0.0,0.0,0.0,0.0,0.0,0.0,0.0,0.0,5.4072,5.872,6.0308,6.0944,6.0816,6.0127,5.7916,5.3652,0.0,0.0,0.0,0.0,0.0,0.0,0.0,0.0,0.0,0.0,0.0,0.0,0.0,0.0,0.0,0.0,0.0,0.0,0.0,0.0,0.0,0.0,0.0,0.0,0.0,0.0,0.0,0.0,0.0,0.0,0.0,0.0,0.0,0.0,0.0,0.0,0.0,0.0,0.0,0.0,0.0,0.0,0.0,0.0,0.0,0.0,0.0,0.0,0.0,0.0,0.0,0.0,0.0,0.0,0.0,0.0,0.0,0.0,0.0,0.0,0.0,0.0,0.0,0.0,0.0,0.0,0.0,0.0,0.0,0.0,0.0,0.0,0.0,0.0,0.0,0.0,0.0,0.0,0.0,0.0,0.0,0.0,0.0,0.0,0.0,0.0,0.0,0.0,0.0,0.0,0.0,0.0,0.0,0.0,0.0,0.0,0.0,0.0,0.0,0.0,0.0,0.0,0.0,5.4653,5.6407,6.0046,6.0773,6.0944,6.0816,6.0078,5.7842,5.3719,5.2933,0.0,0.0,0.0,0.0,0.0,0.0,0.0,0.0,0.0,0.0,0.0,0.0,0.0,0.0,0.0,0.0,0.0,0.0,0.0,0.0,0.0,0.0,0.0,0.0,0.0,0.0,0.0,0.0,0.0,0.0,0.0,0.0,0.0,0.0,0.0,0.0,0.0,0.0,0.0,0.0,0.0,0.0,0.0,0.0,0.0,0.0,0.0,0.0,0.0,0.0,0.0,0.0,0.0,0.0,0.0,0.0,0.0,0.0,0.0,0.0,0.0,0.0,0.0,0.0,0.0,0.0,0.0,0.0,0.0,0.0,0.0,0.0,0.0,0.0,0.0,0.0,0.0,0.0,0.0,0.0,0.0,0.0,0.0,0.0,0.0,0.0,0.0,0.0,0.0,0.0,0.0,0.0,0.0,0.0,0.0,0.0,0.0,0.0,0.0,0.0,0.0,0.0,5.7595,5.906,6.0864,6.1031,6.0963,6.0877,5.9785,5.7537,5.3802,5.2311,0.0,0.0,0.0,0.0,0.0,0.0,0.0,0.0,0.0,0.0,0.0,0.0,0.0,0.0,0.0,0.0,0.0,0.0,0.0,0.0,0.0,0.0,0.0,0.0,0.0,0.0,0.0,0.0,0.0,0.0,0.0,0.0,0.0,0.0,0.0,0.0,0.0,0.0,0.0,0.0,0.0,0.0,0.0,0.0,0.0,0.0,0.0,0.0,0.0,0.0,0.0,0.0,0.0,0.0,0.0,0.0,0.0,0.0,0.0,0.0,0.0,0.0,0.0,0.0,0.0,0.0,0.0,0.0,0.0,0.0,0.0,0.0,0.0,0.0,0.0,0.0,0.0,0.0,0.0,0.0,0.0,0.0,0.0,0.0,0.0,0.0,0.0,0.0,0.0,0.0,0.0,0.0,0.0,0.0,0.0,0.0,0.0,0.0,0.0,0.0,0.0,0.0,5.8223,6.1226,6.1289,6.112,6.0997,6.0979,5.8785,5.634,5.3933,5.1321,0.0,0.0,0.0,0.0,0.0,0.0,0.0,0.0,0.0,0.0,0.0,0.0,0.0,0.0,0.0,0.0,0.0,0.0,0.0,0.0,0.0,0.0,0.0,0.0,0.0,0.0,0.0,0.0,0.0,0.0,0.0,0.0,0.0,0.0,0.0,0.0,0.0,0.0,0.0,0.0,0.0,0.0,0.0,0.0,0.0,0.0,0.0,0.0,0.0,0.0,0.0,0.0,0.0,0.0,0.0,0.0,0.0,0.0,0.0,0.0,0.0,0.0,0.0,0.0,0.0,0.0,0.0,0.0,0.0,0.0,0.0,0.0,0.0,0.0,0.0,0.0,0.0,0.0,0.0,0.0,0.0,0.0,0.0,0.0,0.0,0.0,0.0,0.0,0.0,0.0,0.0,0.0,0.0,0.0,0.0,0.0,0.0,0.0,0.0,0.0,0.0,0.0,5.7742,6.0279,0.0,6.1295,6.1193,6.1193,5.941,5.7,5.3991,0.0,0.0,0.0,0.0,0.0,0.0,0.0,0.0,0.0,0.0,0.0,0.0,0.0,0.0,0.0,0.0,0.0,0.0,0.0,0.0,0.0,0.0,0.0,0.0,0.0,0.0,0.0,0.0,0.0,0.0,0.0,0.0,0.0,0.0,0.0,0.0,0.0,0.0,0.0,0.0,0.0,0.0,0.0,0.0,0.0,0.0,0.0,0.0,0.0,0.0,0.0,0.0,0.0,0.0,0.0,0.0,0.0,0.0,0.0,0.0,0.0,0.0,0.0,0.0,0.0,0.0,0.0,0.0,0.0,0.0,0.0,0.0,0.0,0.0,0.0,0.0,0.0,0.0,0.0,0.0,0.0,0.0,0.0,0.0,0.0,0.0,0.0,0.0,0.0,0.0,0.0,0.0,0.0,0.0,0.0,0.0,0.0,0.0,0.0,0.0,0.0,0.0,5.5038,5.7908,6.0174,0.0,6.1373,6.1306,6.1354,5.9354,5.6899,5.4029,0.0,0.0,0.0,0.0,0.0,0.0,0.0,0.0,0.0,0.0,0.0,0.0,0.0,0.0,0.0,0.0,0.0,0.0,0.0,0.0,0.0,0.0,0.0,0.0,0.0,0.0,0.0,0.0,0.0,0.0,0.0,0.0,0.0,0.0,0.0,0.0,0.0,0.0,0.0,0.0,0.0,0.0,0.0,0.0,0.0,0.0,0.0,0.0,0.0,0.0,0.0,0.0,0.0,0.0,0.0,0.0,0.0,0.0,0.0,0.0,0.0,0.0,0.0,0.0,0.0,0.0,0.0,0.0,0.0,0.0,0.0,0.0,0.0,0.0,0.0,0.0,0.0,0.0,0.0,0.0,0.0,0.0,0.0,0.0,0.0,0.0,0.0,0.0,0.0,0.0,0.0,0.0,0.0,0.0,0.0,0.0,0.0,0.0,0.0,0.0,0.0,0.0,5.5194,5.8925,6.1504,6.1504,6.1373,6.1349,6.1498,5.8376,5.5749,0.0,0.0,0.0,0.0,0.0,0.0,0.0,0.0,0.0,0.0,0.0,0.0,0.0,0.0,0.0,0.0,0.0,0.0,0.0,0.0,0.0,0.0,0.0,0.0,0.0,0.0,0.0,0.0,0.0,0.0,0.0,0.0,0.0,0.0,0.0,0.0,0.0,0.0,0.0,0.0,0.0,0.0,0.0,0.0,0.0,0.0,0.0,0.0,0.0,0.0,0.0,0.0,0.0,0.0,0.0,0.0,0.0,0.0,0.0,0.0,0.0,0.0,0.0,0.0,0.0,0.0,0.0,0.0,0.0,0.0,0.0,0.0,0.0,0.0,0.0,0.0,0.0,0.0,0.0,0.0,0.0,0.0,0.0,0.0,0.0,0.0,0.0,0.0,0.0,0.0,0.0,0.0,0.0,0.0,0.0,0.0,0.0,0.0,0.0,0.0,0.0,0.0,0.0,5.6014,5.9373,6.1635,6.1635,6.1627,6.1587,6.1634,5.9643,5.7106,5.418,0.0,0.0,0.0,0.0,0.0,0.0,0.0,0.0,0.0,0.0,0.0,0.0,0.0,0.0,0.0,0.0,0.0,0.0,0.0,0.0,0.0,0.0,0.0,0.0,0.0,0.0,0.0,0.0,0.0,0.0,0.0,0.0,0.0,0.0,0.0,0.0,0.0,0.0,0.0,0.0,0.0,0.0,0.0,0.0,0.0,0.0,0.0,0.0,0.0,0.0,0.0,0.0,0.0,0.0,0.0,0.0,0.0,0.0,0.0,0.0,0.0,0.0,0.0,0.0,0.0,0.0,0.0,0.0,0.0,0.0,0.0,0.0,0.0,0.0,0.0,0.0,0.0,0.0,0.0,0.0,0.0,0.0,0.0,0.0,0.0,0.0,0.0,0.0,0.0,0.0,0.0,0.0,0.0,0.0,0.0,0.0,0.0,0.0,0.0,0.0,0.0,0.0,5.6366,5.9609,6.1719,6.1719,6.1719,6.1719,6.1719,6.0156,5.7851,5.4726,0.0,0.0,0.0,0.0,0.0,0.0,0.0,0.0,0.0,0.0,0.0,0.0,0.0,0.0,0.0,0.0,0.0,0.0,0.0,0.0,0.0,0.0,0.0,0.0,0.0,0.0,0.0,0.0,0.0,0.0,0.0,0.0,0.0,0.0,0.0,0.0,0.0,0.0,0.0,0.0,0.0,0.0,0.0,0.0,0.0,0.0,0.0,0.0,0.0,0.0,0.0,0.0,0.0,0.0,0.0,0.0,0.0,0.0,0.0,0.0,0.0,0.0,0.0,0.0,0.0,0.0,0.0,0.0,0.0,0.0,0.0,0.0,0.0,0.0,0.0,0.0,0.0,0.0,0.0,0.0,0.0,0.0,0.0,0.0,0.0,0.0,0.0,0.0,0.0,0.0,0.0,0.0,0.0,0.0,0.0,0.0,0.0,0.0,0.0,0.0,0.0,0.0,5.6483,5.9648,6.1719,6.1719,6.1679,6.1679,6.1719,6.0234,5.8203,5.5586,0.0,0.0,0.0,0.0,0.0,0.0,0.0,0.0,0.0,0.0,0.0,0.0,0.0,0.0,0.0,0.0,0.0,0.0,0.0,0.0,0.0,0.0,0.0,0.0,0.0,0.0,0.0,0.0,0.0,0.0,0.0,0.0,0.0,0.0,0.0,0.0,0.0,0.0,0.0,0.0,0.0,0.0,0.0,0.0,0.0,0.0,0.0,0.0,0.0,0.0,0.0,0.0,0.0,0.0,0.0,0.0,0.0,0.0,0.0,0.0,5.1045,0.0,0.0,0.0,0.0,0.0,0.0,0.0,0.0,0.0,0.0,0.0,0.0,0.0,0.0,0.0,0.0,0.0,0.0,0.0,0.0,0.0,0.0,0.0,0.0,0.0,0.0,0.0,0.0,0.0,0.0,0.0,0.0,0.0,0.0,0.0,0.0,0.0,0.0,0.0,0.0,0.0,5.7382,6.0,6.1719,6.1719,6.1627,6.1582,6.1679,6.0649,5.8925,5.6484,5.4492,0.0,0.0,0.0,0.0,0.0,0.0,0.0,0.0,0.0,0.0,0.0,0.0,0.0,0.0,0.0,0.0,0.0,0.0,0.0,0.0,0.0,0.0,0.0,0.0,0.0,0.0,0.0,0.0,0.0,0.0,0.0,0.0,0.0,0.0,0.0,0.0,0.0,0.0,0.0,0.0,0.0,0.0,0.0,0.0,0.0,0.0,0.0,0.0,0.0,0.0,0.0,0.0,0.0,0.0,0.0,0.0,0.0,0.0,0.0,0.0,5.282,0.0,0.0,0.0,0.0,0.0,0.0,0.0,0.0,0.0,0.0,0.0,0.0,0.0,0.0,0.0,0.0,0.0,0.0,0.0,0.0,0.0,0.0,0.0,0.0,0.0,0.0,0.0,0.0,0.0,0.0,0.0,0.0,0.0,0.0,0.0,0.0,0.0,0.0,0.0,0.0,5.7656,6.0117,6.1719,6.1719,6.1634,6.1587,6.1588,6.0742,5.9472,5.7716,5.5675,0.0,0.0,0.0,0.0,0.0,0.0,0.0,0.0,0.0,0.0,0.0,0.0,0.0,0.0,0.0,0.0,0.0,0.0,0.0,0.0,0.0,0.0,0.0,0.0,0.0,0.0,0.0,0.0,0.0,0.0,0.0,0.0,0.0,0.0,0.0,0.0,0.0,0.0,0.0,0.0,0.0,0.0,0.0,0.0,0.0,0.0,0.0,0.0,0.0,0.0,0.0,0.0,0.0,5.935,5.9783,6.0627,6.0473,6.0473,6.0435,5.7511,5.6626,5.706,0.0,0.0,0.0,0.0,0.0,0.0,0.0,0.0,0.0,0.0,0.0,0.0,0.0,0.0,0.0,0.0,0.0,0.0,0.0,0.0,0.0,0.0,0.0,0.0,0.0,6.0242,6.0089,0.0,0.0,0.0,0.0,0.0,0.0,0.0,0.0,0.0,0.0,0.0,0.0,5.8085,6.0312,6.1719,6.1719,6.1679,6.1633,6.1525,6.0846,6.0031,5.9056,5.6989,5.534,0.0,0.0,0.0,0.0,0.0,0.0,0.0,0.0,0.0,0.0,0.0,0.0,0.0,0.0,0.0,0.0,0.0,0.0,0.0,0.0,0.0,0.0,0.0,0.0,0.0,0.0,0.0,0.0,0.0,0.0,0.0,0.0,5.3516,5.4492,0.0,0.0,0.0,0.0,0.0,0.0,0.0,0.0,0.0,0.0,0.0,0.0,0.0,6.0854,6.1462,6.2275,6.2694,6.2675,6.2675,6.351,6.5013,6.4282,6.432,6.4974,6.3782,0.0,5.8165,5.8511,0.0,0.0,0.0,0.0,0.0,0.0,0.0,0.0,0.0,0.0,0.0,0.0,0.0,0.0,0.0,0.0,0.0,0.0,0.0,0.0,0.0,0.0,6.2627,6.2627,6.282,6.2781,0.0,5.9165,5.6357,5.5325,0.0,0.0,0.0,0.0,0.0,0.0,0.0,0.0,5.9843,6.1015,6.1719,6.1719,6.1585,6.1575,6.1678,6.1458,6.1017,6.0229,5.9216,5.7884,5.6135,5.4291,0.0,0.0,0.0,0.0,0.0,0.0,0.0,0.0,0.0,0.0,0.0,0.0,0.0,0.0,0.0,0.0,0.0,0.0,0.0,0.0,0.0,0.0,0.0,0.0,0.0,0.0,0.0,0.0,0.0,5.3164,5.5039,5.5937,5.5703,5.5117,0.0,0.0,0.0,0.0,0.0,0.0,0.0,0.0,0.0,6.1857,6.3177,6.3987,6.4304,6.5114,6.5481,6.5436,6.5436,6.609,6.7282,6.6898,6.6936,6.7282,6.6898,6.5166,6.2474,6.1396,6.0355,5.935,0.0,0.0,0.0,0.0,5.9896,6.055,6.055,6.055,0.0,5.9435,0.0,0.0,0.0,0.0,0.0,0.0,0.0,0.0,0.0,0.0,0.0,6.4628,6.5128,6.532,6.4859,6.332,6.1485,0.0,5.9292,5.8446,5.578,0.0,0.0,0.0,0.0,5.8978,6.0234,6.1172,6.1719,6.1719,6.1636,6.1627,6.1584,6.1522,6.1283,6.0775,6.0048,5.9217,5.8276,5.6371,5.4736,0.0,0.0,0.0,0.0,0.0,0.0,0.0,0.0,0.0,0.0,0.0,0.0,0.0,0.0,0.0,0.0,0.0,0.0,0.0,0.0,0.0,0.0,0.0,0.0,0.0,0.0,0.0,0.0,5.5234,5.6836,5.75,5.7773,5.7382,0.0,0.0,0.0,0.0,0.0,0.0,5.9824,6.1562,6.3253,6.4721,6.6124,6.6859,6.6859,6.7475,6.7782,6.7744,6.7552,6.8013,6.9052,6.8821,6.8859,6.9052,6.8821,6.7898,6.6372,6.407,6.2923,6.2573,6.2214,6.2275,6.268,6.3115,6.3436,6.3666,6.3897,6.382,6.3474,6.2435,0.0,6.0127,5.8204,0.0,0.0,0.0,0.0,6.2243,6.4397,6.4936,6.5089,6.5743,6.6359,6.6628,6.6013,6.5897,6.5282,0.0,6.2551,6.147,5.8543,0.0,0.0,0.0,0.0,5.9764,6.0625,6.1289,6.1719,6.1719,6.1719,6.1636,6.1509,6.1504,6.1392,6.1105,6.0592,6.0249,6.0111,5.832,5.689,5.6032,0.0,0.0,0.0,0.0,0.0,0.0,0.0,0.0,0.0,0.0,0.0,0.0,0.0,0.0,0.0,0.0,0.0,0.0,0.0,0.0,0.0,0.0,0.0,0.0,0.0,0.0,0.0,0.0,0.0,6.0195,6.0937,0.0,0.0,0.0,0.0,5.8427,6.1366,6.3157,6.306,6.5422,6.7231,6.8103,6.9052,6.9513,6.9513,6.9552,6.9552,6.9552,6.8744,6.9206,7.0744,6.9975,7.0052,7.0744,6.9975,6.9129,6.8142,6.6559,6.4938,6.3628,6.4545,6.4348,6.3717,6.5314,6.534,6.4666,6.5474,6.5243,6.4666,6.5397,6.4474,6.3077,6.2962,6.2397,0.0,0.0,6.3743,6.4628,6.559,6.582,6.5859,6.5897,6.5936,6.5936,6.5897,6.5897,6.5628,0.0,6.382,6.2721,6.1098,0.0,6.0614,6.0074,6.0065,6.052,6.1523,6.168,6.1719,6.1719,6.1719,6.1636,6.1509,6.1504,6.1424,6.1283,6.1244,6.1244,6.1232,6.0311,5.9416,5.8554,5.603,0.0,0.0,0.0,0.0,0.0,0.0,0.0,0.0,0.0,0.0,0.0,0.0,0.0,0.0,0.0,0.0,0.0,0.0,0.0,0.0,0.0,0.0,0.0,0.0,0.0,0.0,0.0,0.0,6.2695,6.3164,0.0,6.1813,6.2215,6.251,6.2567,6.41,6.5238,6.5718,6.7667,6.8936,6.9244,7.0192,7.0578,7.0475,7.0616,7.0886,7.1321,7.0975,7.1437,7.2552,7.2283,7.2014,7.1706,7.1437,7.0514,6.9194,6.8734,6.7316,6.5528,6.6997,6.7327,6.6998,6.6949,6.6979,6.6936,6.6167,6.5705,6.5474,6.5782,6.5089,6.4128,6.4128,6.3551,6.3051,6.3897,6.4359,6.4782,6.5667,6.5897,6.5897,6.5897,6.6282,6.6537,6.6119,6.6471,6.6639,6.5911,6.4967,6.3971,6.2966,6.2424,6.1894,6.115,6.1112,6.1285,6.164,6.1719,6.1719,6.1719,6.1719,6.1636,6.1509,6.1504,6.1396,6.1135,6.1112,6.1056,6.0974,6.0769,6.0212,5.9344,5.802,5.5895,0.0,0.0,0.0,0.0,0.0,0.0,0.0,0.0,0.0,0.0,0.0,0.0,0.0,0.0,0.0,0.0,0.0,0.0,0.0,0.0,0.0,0.0,0.0,0.0,0.0,0.0,6.2695,6.414,6.5351,6.5616,6.4462,6.5078,6.5537,6.5582,6.6586,6.7398,6.7936,6.9321,7.0259,7.0618,7.128,7.1721,7.1943,7.2031,7.2297,7.2739,7.266,7.2937,7.3514,7.3514,7.3168,7.2629,7.2629,7.1822,7.0541,7.0706,6.9517,6.7689,6.8889,6.9102,6.8738,6.8374,6.8138,6.7744,6.6359,6.5897,6.5897,6.5897,6.5513,6.5051,6.5051,6.4628,6.432,6.4897,6.5051,6.5166,6.5743,6.5897,6.5897,6.5897,6.632,6.6613,6.6205,6.6535,6.6859,6.6546,6.5803,6.5038,6.4333,6.3599,6.2809,6.1953,6.1716,6.1633,6.1633,6.1678,6.1719,6.1719,6.1719,6.1636,6.1509,6.1474,6.1289,6.1023,6.0963,6.0874,6.0793,6.0892,6.0674,6.0085,5.9069,5.7265,5.4624,0.0,0.0,0.0,0.0,0.0,0.0,0.0,0.0,0.0,0.0,0.0,0.0,0.0,0.0,0.0,0.0,0.0,0.0,0.0,0.0,0.0,0.0,0.0,6.0664,6.3515,6.539,6.4648,6.7539,6.8458,6.5633,6.7554,6.8527,6.7358,6.8796,6.9771,6.9771,7.0554,7.1479,7.252,7.254,7.3013,7.3989,7.3858,7.3837,7.3827,7.3613,7.3553,7.3591,7.3591,7.3553,7.3567,7.3567,7.308,7.2275,7.2468,7.1531,7.0041,7.0192,6.96,6.8733,6.9595,6.8729,6.6974,6.6167,6.5897,6.5897,6.5897,6.5897,6.5897,6.5897,6.5897,6.5897,6.5897,6.5897,6.5897,6.5897,6.5897,6.5897,6.5897,6.5897,6.5958,6.6061,6.6119,6.622,6.6545,6.6349,6.5904,6.5273,6.4317,6.3386,6.2669,6.1942,0.0,6.1504,6.1591,6.1719,6.1758,6.1758,6.1714,6.1588,6.1447,6.1253,6.1053,6.0871,6.0819,6.0819,6.0819,6.0819,6.0819,5.9204,5.7973,5.7088,0.0,0.0,0.0,0.0,0.0,0.0,0.0,0.0,0.0,0.0,0.0,0.0,0.0,0.0,0.0,0.0,0.0,0.0,0.0,0.0,0.0,6.2812,6.4453,6.4219,6.6094,6.8086,6.9687,7.0742,7.1387,7.1557,7.1102,7.0852,7.1021,7.0883,7.1133,7.1896,7.2729,7.326,7.3597,7.373,7.387,7.3989,7.3962,7.4205,7.4679,7.4462,7.4707,7.5322,7.5322,7.5052,7.4595,7.4595,7.4175,7.3506,7.3573,7.3317,7.2742,7.1619,7.0587,6.978,6.9856,6.8729,6.6974,6.6167,6.5897,6.5897,6.5897,6.5897,6.5897,6.5897,6.5897,6.5897,6.5897,6.5897,6.5897,6.5897,6.5897,6.5897,6.5897,6.5897,6.5978,6.6275,6.6312,6.6418,6.674,6.6639,6.639,6.6219,6.4955,6.3858,6.3492,6.2257,0.0,6.1495,6.152,6.1818,6.2578,6.2656,6.2847,6.3347,6.262,6.2121,6.1961,6.1229,6.1089,6.1716,6.1755,6.1755,6.1755,6.0666,5.984,0.0,0.0,0.0,0.0,0.0,0.0,0.0,0.0,0.0,0.0,0.0,0.0,0.0,0.0,0.0,0.0,0.0,0.0,0.0,0.0,0.0,0.0,6.5234,6.6914,6.7656,6.8594,6.9922,7.1797,7.226,7.2837,7.3886,7.3126,7.2695,7.3024,7.2618,7.2663,7.3282,7.3755,7.4217,7.4678,7.4788,7.5006,7.5343,7.5245,7.5398,7.5798,7.5594,7.5763,7.6254,7.6254,7.6045,0.0,7.5653,7.5461,7.5072,7.469,7.4534,0.0,0.0,0.0,0.0,0.0,6.8496,6.7093,6.6217,6.5897,6.5897,6.5897,6.5897,6.5897,6.5897,6.5897,6.5897,6.5897,6.5897,6.5897,6.5897,6.5897,6.5897,6.5897,6.5897,6.5967,6.6234,6.6268,6.6361,6.6649,6.6635,0.0,6.6545,6.5403,6.4466,6.4343,6.3291,6.2496,6.259,6.2623,6.2919,6.3476,6.3555,6.3709,6.4163,6.3549,0.0,0.0,0.0,6.215,6.2601,6.2935,0.0,0.0,0.0,0.0,0.0,0.0,0.0,0.0,6.4841,6.5607,0.0,0.0,0.0,0.0,0.0,0.0,0.0,0.0,0.0,0.0,0.0,0.0,0.0,0.0,0.0,0.0,6.75,6.918,7.0781,7.1094,7.1445,7.2187,7.2909,7.3571,7.4256,7.4243,7.4133,7.4014,7.4118,7.4184,7.4203,0.0,0.0,0.0,0.0,7.6423,7.7461,7.7271,7.7153,7.7032,7.6825,7.6699,7.6582,7.6582,7.6597,7.6611,7.6611,7.6638,7.6559,7.578,7.5435,7.5156,7.3484,7.2763,7.2354,6.9822,6.8326,6.7406,6.6483,0.0,0.0,6.6051,6.6051,6.6013,6.5936,6.5974,6.6051,6.6051,6.609,6.6167,6.6167,6.6167,6.6167,6.6167,6.6167,6.6215,6.636,6.6303,6.6299,6.651,6.6571,6.6547,6.6438,6.5688,6.5133,6.5115,6.4519,6.4073,6.4082,6.4205,6.4335,6.4414,0.0,0.0,6.4609,6.447,6.4279,6.3986,6.3812,6.3678,6.3601,6.4436,6.4897,6.4897,6.582,6.6667,6.7398,6.9336,7.0729,7.1446,6.8506,6.8495,0.0,0.0,0.0,0.0,0.0,0.0,0.0,0.0,0.0,0.0,0.0,0.0,0.0,0.0,0.0,6.8359,7.0117,7.1601,7.2656,7.3398,7.3906,7.4062,7.4842,7.561,7.6275,7.5686,7.5283,7.5255,7.5283,7.5371,7.5535,7.6201,7.6985,7.7927,7.7927,7.8358,7.9219,7.9031,7.8601,7.7937,0.0,0.0,7.6582,7.6582,7.6702,7.6847,7.6847,7.6851,7.6823,7.6665,7.6198,7.5383,7.3632,7.2522,7.1768,7.0421,6.9281,6.8413,6.8063,6.7475,6.6859,6.6859,6.6859,6.6744,6.609,6.6359,0.0,6.6859,6.7359,6.7936,6.7936,6.7936,6.7936,6.7936,6.7936,6.7949,6.8091,6.761,6.7191,6.7359,6.6879,6.6441,6.6395,6.582,6.5281,6.5133,6.4399,6.3916,6.4076,6.4135,6.4433,6.5273,6.5976,6.6406,6.6406,6.6229,6.5765,6.4887,6.459,6.4689,6.5359,6.6167,6.6628,6.6628,6.8167,6.9052,6.9206,7.1104,7.2511,7.3457,7.2952,7.3029,0.0,0.0,0.0,0.0,0.0,0.0,0.0,0.0,0.0,0.0,0.0,6.4479,6.5878,0.0,6.9246,7.1054,7.207,7.2969,7.3828,7.5078,7.5742,7.5312,7.5931,7.669,7.7472,7.7511,7.7511,7.7504,7.7586,7.7687,7.7812,7.8203,7.8633,7.9101,7.9101,7.9297,7.9687,7.9601,7.9162,7.8342,7.823,7.7742,7.6919,7.6919,7.6942,7.7054,7.6951,7.6904,7.6876,7.6775,7.6283,7.5524,7.4642,7.3552,7.2358,7.1277,7.0275,6.9356,6.8651,6.8129,6.7744,6.7744,6.7744,6.7667,6.7282,6.7436,6.7744,6.7744,6.8052,6.8385,6.8385,6.8385,6.8385,6.8385,6.8385,6.8437,6.8482,6.817,6.7906,6.8006,6.7402,6.6904,6.6904,6.6356,6.5887,6.578,6.539,6.5154,6.5258,6.5308,6.5702,6.6665,6.7224,6.7695,6.8125,6.7916,6.7525,6.7022,6.6706,6.6705,6.7128,6.7975,6.859,6.8975,7.0387,7.1321,7.1745,7.3299,7.4308,7.4811,7.5464,7.553,0.0,0.0,0.0,0.0,0.0,0.0,0.0,6.0966,6.2306,6.4157,6.6373,6.8448,6.9914,7.0878,7.1963,7.3554,7.3945,7.4375,7.5234,7.6719,7.7422,7.6677,7.7097,7.7726,7.8432,7.9095,7.9447,7.9447,7.9602,7.9687,7.9687,7.9687,7.9765,7.9961,7.9961,8.0039,8.0195,8.0195,7.9805,7.8984,7.8984,7.8515,7.7695,7.7539,7.7461,7.7422,7.7073,7.6883,7.6876,7.6732,7.632,7.5865,7.5885,7.5062,7.3631,7.2277,7.1187,7.0314,6.9251,6.8783,6.8667,6.8667,6.8667,6.8629,6.8462,6.8513,6.8667,6.8667,6.8783,6.8898,6.8898,6.8898,6.8898,6.8898,6.8898,6.8898,6.8898,6.8783,6.8667,6.8667,6.8069,6.7539,6.7384,6.7014,6.6694,6.6452,6.6543,6.6581,6.6426,6.6824,6.7319,6.7829,6.8388,6.8945,6.9609,6.9217,6.8954,6.8884,6.8615,6.8501,6.8667,6.9321,7.0169,7.1197,7.2236,7.3199,7.4102,7.5296,7.5833,7.5875,7.679,7.6836,5.6558,5.745,5.9412,6.1481,6.2212,6.3591,0.0,6.8144,6.7965,7.0306,7.2323,7.3469,7.2815,7.4128,7.5351,7.5586,7.625,7.707,7.793,7.8867,7.9332,7.9047,7.9212,7.9413,7.953,7.9608,7.9687,7.9687,7.9687,7.9687,7.9687,7.9687,8.0039,8.082,8.0859,8.1211,8.1992,8.1992,8.1562,8.0703,8.0703,8.0273,7.9414,7.8672,7.8359,7.8281,7.7307,7.6883,7.688,7.6868,7.6829,7.677,7.6944,7.6445,7.5389,7.3402,7.2082,7.1294,7.0795,7.0167,6.9552,6.9552,6.9552,6.9398,6.8615,6.8936,6.9552,6.9552,7.0052,7.0629,7.0629,7.0629,7.0629,7.0629,7.0629,7.0629,7.0629,7.0052,6.9552,6.9552,6.8886,6.8026,6.7269,6.7718,6.7763,6.6574,6.7003,6.7198,6.6504,6.7876,6.8645,6.7985,6.9405,7.0469,7.0547,6.9698,6.9103,6.8929,6.8748,6.8944,6.9527,6.9667,7.0516,7.2274,7.3196,7.414,7.5121,7.6235,7.6763,7.677,7.7064,7.7148,6.0664,6.1906,6.3281,6.4757,6.5973,6.7459,6.9915,7.0453,7.0935,7.2849,7.4689,7.5996,7.6199,7.7171,7.7993,0.0,7.8437,7.8789,7.914,7.9834,8.0041,7.9463,8.0259,8.0675,8.0168,8.0558,8.0899,8.1024,8.1027,8.108,8.1211,8.1211,8.1367,8.1758,8.1758,8.1914,8.2304,8.2304,8.1875,8.1015,8.1015,8.0547,7.9687,7.8867,7.8161,7.7554,7.7092,7.6843,7.6732,7.6732,7.678,7.6922,7.6998,7.6866,7.6405,7.4418,7.3058,7.2157,7.1345,7.0799,7.0398,7.0398,7.0398,7.0321,6.9975,7.0129,7.0398,7.0398,7.0629,7.1014,7.1514,7.1668,7.1783,7.2283,7.2014,7.1668,7.1668,7.1094,7.0572,7.0572,6.9876,6.9142,6.8806,6.8564,6.8218,6.7662,6.7849,6.7926,6.7617,6.8308,6.8981,6.9377,7.0548,7.1316,7.1445,7.0952,7.0622,7.0537,7.0388,7.0468,7.0748,7.0738,7.1571,7.3346,7.3858,7.4806,7.6225,7.6795,7.733,7.78,7.7381,7.7734,6.3631,6.4922,6.5976,6.7496,6.9061,7.0506,7.1636,7.2681,7.3827,7.5173,7.6646,7.7907,7.8671,7.9207,7.9625,7.9999,8.0078,8.0156,8.039,8.0792,8.0809,8.012,8.0985,8.1355,8.0724,8.1298,8.1883,8.2335,8.2148,8.2188,8.2617,8.2422,8.2304,8.2304,8.2304,8.2304,8.2304,8.2304,8.1992,8.1367,8.1367,8.1015,8.039,7.9336,7.8159,7.6995,7.6993,7.6919,7.676,7.676,7.6852,7.6993,7.6993,7.7057,7.6992,7.5332,7.425,7.3373,7.2077,7.1559,7.1371,7.1139,7.1062,7.1038,7.0991,7.1029,7.1077,7.1312,7.1388,7.1614,7.2464,7.2696,7.2851,7.3495,7.316,7.2657,7.2426,7.1975,7.1561,7.1329,7.0786,7.0243,7.001,6.9582,6.917,6.8938,6.9092,6.9058,6.855,6.8798,6.9469,7.0649,7.1296,7.1728,7.1907,7.1761,7.1689,7.1689,7.1848,7.1887,7.1874,7.2068,7.2913,7.4398,7.4819,7.5765,7.7347,7.7496,7.8008,7.8828,7.7969,7.832,6.3787,6.4922,6.6365,6.9603,7.1156,7.2537,7.4915,7.6274,7.7305,7.8203,7.9023,7.9609,7.9648,7.9687,7.9961,8.082,8.0976,8.125,8.2109,8.2083,8.187,8.1679,8.1485,8.138,0.0,8.1552,8.2117,8.3194,8.246,8.2461,8.3515,8.2773,8.2304,8.2304,8.2304,8.2304,8.2304,8.2304,8.2304,8.2265,8.2265,8.2265,8.2148,8.0469,7.875,7.7187,7.7187,7.7187,7.7187,7.7187,7.7187,7.7187,7.7187,7.7187,7.7109,7.6172,7.5729,7.5229,7.3379,7.2762,7.2599,7.1775,7.1464,7.1466,7.1242,7.1344,7.1622,7.226,7.2604,7.2917,7.3735,7.3936,7.3936,7.3975,7.3975,7.3735,7.2956,7.2762,7.2489,7.1665,7.1471,7.1166,7.0356,7.0855,7.1121,7.0272,7.0848,7.0736,6.8936,6.9539,7.048,7.1375,7.1491,7.156,7.1686,7.1693,7.1689,7.1689,7.2509,7.289,7.2782,7.3522,7.4461,7.5517,7.6379,7.7354,7.8437,7.8476,7.8867,7.9648,7.8828,7.8906,6.539,6.664,6.8125,7.1518,7.3045,7.4257,7.6205,7.6951,7.7461,7.832,7.8242,7.8163,7.8612,7.8822,7.9139,7.9862,8.0542,8.1289,8.2187,8.263,8.2409,8.1163,8.1866,0.0,0.0,0.0,0.0,8.2361,8.2034,8.2079,8.2695,8.2461,8.2304,8.2304,8.2304,8.2304,8.2304,8.2304,8.2304,8.2304,8.2304,8.1679,8.0586,8.0586,7.9336,7.7226,7.7812,7.7734,7.7187,7.7187,7.7187,7.7187,7.7187,7.7187,7.7148,7.67,7.6503,7.6208,7.4435,7.3375,7.2737,7.2457,7.1952,7.151,7.1404,7.1466,7.1549,7.1754,7.2298,7.3009,7.3787,7.4449,7.4994,7.5578,7.5266,7.4799,7.4527,7.3642,7.2847,7.2535,7.2028,7.156,7.1248,7.1366,7.1601,7.1881,7.1679,7.1218,7.0448,7.0641,7.1192,7.2084,7.1754,7.2022,7.3318,7.3022,7.3,7.3586,7.3899,7.405,7.3993,7.4267,7.5095,7.6633,7.6946,7.7809,7.9297,7.9297,7.9726,8.0547,7.9687,8.0078,6.6562,6.7773,6.9101,7.2812,7.418,7.5078,7.6797,7.7187,7.7265,7.7539,7.6875,7.6481,7.714,7.7395,7.7907,7.9192,8.0438,8.1571,8.2526,8.2975,8.2801,8.1758,8.2155,8.2107,0.0,0.0,0.0,8.24,8.2293,8.2434,8.3071,8.3114,8.2997,8.2684,8.2733,8.2617,8.2304,8.2304,8.2304,8.2304,8.2304,8.1562,8.0195,8.0742,7.9922,7.8125,7.8398,7.8164,7.7656,7.7344,7.7187,7.7187,7.7187,7.7147,7.7097,7.6942,7.6856,7.6609,7.5143,7.4021,7.3182,7.2869,7.2206,7.1536,7.1786,7.168,7.1653,7.2492,7.2974,7.3494,7.4627,7.533,7.5911,7.6546,7.6266,7.5791,7.5556,7.4744,7.3957,7.3644,7.3137,7.2746,7.2746,7.2665,7.2817,7.3363,7.27,7.2167,7.2185,7.2219,7.2415,7.2897,7.2296,7.2507,7.4075,7.3593,7.3589,7.4531,7.4883,7.5078,7.5078,7.5351,7.6211,7.7656,7.7969,7.8789,8.0156,8.0156,8.0625,8.1445,8.0586,8.0937,6.7305,6.8242,6.9336,7.3555,7.457,7.4961,7.668,7.6992,7.668,7.582,7.4922,7.4528,7.514,7.5397,7.6297,7.8603,8.052,8.2058,8.3142,8.3189,8.3187,8.3346,0.0,0.0,0.0,0.0,0.0,8.3237,0.0,8.3428,8.4468,8.4516,8.4126,8.3272,8.3425,8.3125,8.2304,8.2304,8.2304,8.2304,8.2304,8.1836,8.1015,8.1015,8.0508,7.9609,7.8828,7.8476,7.8359,7.7539,7.7187,7.7187,7.7187,7.7097,7.6922,7.6872,7.676,7.6466,7.5619,7.477,7.3929,7.3112,7.2295,7.1745,7.2388,7.2145,7.2095,7.4333,7.4517,7.4442,7.6115,7.6582,7.667,7.6847,7.6876,7.6705,7.6091,7.5898,7.5624,7.4804,7.4609,7.457,7.457,7.4648,7.4687,7.4687,7.3984,7.3617,7.3969,7.3996,7.3916,7.3878,7.3121,7.3025,7.4053,7.3549,7.3603,7.4687,7.5508,7.5976,7.6015,7.6836,7.7695,7.8594,7.9375,8.0195,8.1054,8.1054,8.1484,8.2265,8.1445,8.1523,6.7773,6.9101,7.0781,7.3828,7.4101,7.3906,7.5,7.4258,7.3086,7.2226,7.1367,7.0773,7.063,7.2803,7.4933,7.5913,7.9248,8.2038,8.2946,8.4116,8.4706,8.4317,0.0,8.4607,8.421,8.3962,0.0,0.0,8.3104,8.3135,8.3382,8.3421,8.3091,8.2339,8.2365,8.2363,8.2304,8.2304,8.2304,8.2304,8.2304,8.1836,8.1015,8.1015,8.0195,7.8789,7.8594,7.8125,7.75,7.7305,7.7187,7.7187,7.7187,7.7187,7.7099,7.6775,7.6624,7.6537,7.5995,7.5457,7.4941,7.4707,7.4077,7.3384,7.3588,7.349,7.3501,7.4087,7.458,7.5057,7.5524,7.6115,7.6597,7.6644,7.669,7.666,7.6663,7.6037,7.5411,7.5375,7.4801,7.4371,7.4374,7.5031,7.5586,7.5586,7.5937,7.5737,7.4406,7.3645,7.367,7.4787,7.4269,7.447,7.6019,7.5558,7.5544,7.6484,7.6758,7.7148,7.7812,7.8047,7.8867,8.0312,8.0547,8.1094,8.1953,8.1953,8.207,8.2304,8.207,8.2109,6.8867,6.9961,7.125,7.3476,7.3359,7.2851,7.3359,7.2148,7.0547,6.9297,6.8672,6.823,6.7843,7.0653,7.3437,7.4657,7.8561,8.1885,8.3213,8.4543,8.5299,8.5039,8.5058,0.0,8.4615,8.4171,8.3786,0.0,8.3804,8.365,8.2874,8.3534,8.3445,8.2294,8.2377,8.2299,8.2049,8.2049,8.2068,8.2171,8.2171,8.1947,8.1562,8.1172,8.0508,7.957,0.0,7.8203,7.7734,7.7344,7.7187,7.7187,7.7187,7.7146,7.705,7.679,7.6604,7.6438,7.6195,7.5898,7.5485,7.4749,7.4168,7.377,7.377,7.377,7.3925,7.4661,7.4932,7.5136,7.5524,7.595,7.6379,7.6457,7.6475,7.6505,7.6732,7.63,7.591,7.6003,7.5712,7.5432,7.5436,7.6001,7.6484,7.6484,7.6562,7.6366,7.5648,7.5071,7.5027,7.5931,7.5322,7.5436,7.6763,7.6279,7.6289,7.7148,7.7187,7.7578,7.8476,7.8515,7.9297,8.0976,8.1015,8.1445,8.2304,8.2304,8.2304,8.2304,8.2304,8.2304,7.0078,7.0781,7.125,7.2734,7.2383,7.164,7.1523,7.0117,6.8359,6.6719,6.6484,6.6434,6.604,6.885,7.1965,7.4189,7.8054,8.1499,8.3566,8.4624,8.5238,8.5446,8.489,8.4432,8.4232,8.374,8.3563,8.3742,8.4637,8.4379,8.265,8.3979,8.4069,8.2491,8.2697,8.2466,8.1727,8.1688,8.1819,8.1992,8.1992,8.2115,8.2265,8.1289,8.082,8.0742,7.9062,0.0,7.8281,7.75,7.7187,7.7187,7.7187,7.71,7.6933,7.6922,7.669,7.6361,7.6316,7.6185,7.5817,7.4298,7.3822,7.3822,7.3822,7.3779,7.4004,7.5479,7.528,7.4812,7.558,7.5818,7.5914,7.6108,7.6204,7.6316,7.6535,7.6545,7.6537,7.6544,7.6715,7.686,7.686,7.7052,7.7187,7.7187,7.6562,7.6367,7.7109,7.6901,7.6758,7.6873,7.6209,7.6092,7.6834,7.64,7.6445,7.7305,7.7383,7.7812,7.8789,7.8828,7.957,8.1133,8.1172,8.1523,8.2304,8.2304,8.2304,8.2304,8.2304,8.2304,7.039,7.1211,7.1836,7.2148,7.1055,6.9726,6.9023,6.6953,6.4922,6.3906,6.4258,6.4637,6.4288,6.7606,7.112,7.3341,7.6669,8.0046,8.3202,8.4397,8.5034,8.525,8.575,8.5607,8.4404,8.5271,0.0,0.0,8.4189,8.4204,8.2432,8.2625,8.2424,8.1627,8.1804,8.1843,8.1688,8.1688,8.1819,8.1992,8.1992,8.2115,8.2265,8.0664,7.9922,7.9844,7.8164,0.0,7.7422,7.7265,7.7187,7.7187,7.7187,7.7187,7.7144,7.6945,7.6856,7.6744,7.641,7.63,7.6181,7.5691,7.5553,7.5553,7.5553,7.521,7.4872,7.5177,7.481,7.4399,7.4551,7.4924,7.5251,7.5281,7.5687,7.6095,7.6306,7.633,7.6306,7.6147,7.6391,7.6631,7.6631,7.6945,7.7187,7.7187,7.707,7.7031,7.7187,7.6396,7.6102,7.6805,7.6766,7.6727,7.6883,7.6948,7.7344,7.8203,7.8281,7.8945,8.0508,8.0586,8.1054,8.2031,8.207,8.2148,8.2304,8.2304,8.2304,8.2304,8.2304,8.2304,7.1015,7.168,7.1875,7.1445,7.0078,6.8476,6.7148,6.5195,6.3359,6.241,6.3264,6.3968,6.315,6.6484,6.9857,7.1287,7.4361,7.7707,8.1131,8.2747,8.3942,8.4908,8.5425,8.5534,8.5255,8.4687,8.4011,8.3238,8.3025,8.2554,8.1708,8.167,8.1531,8.1256,8.1349,8.1395,8.1395,8.1395,8.1501,8.1711,8.1773,8.1728,8.1424,8.0232,7.9453,7.9023,7.7734,0.0,7.7187,7.7187,7.7187,7.7187,7.7187,7.7187,7.7187,7.7099,7.6995,7.6864,7.6696,7.6529,7.6429,7.6219,7.6106,7.5938,7.5476,7.5222,7.5109,7.5109,7.4692,7.4293,7.4293,7.4506,7.4731,7.5036,7.5567,7.6034,7.6134,7.6122,7.6121,7.602,7.6243,7.6484,7.6567,7.6852,7.7097,7.7187,7.7103,7.705,7.705,7.6414,7.6216,7.6833,7.6829,7.6744,7.6744,7.6843,7.7071,7.7461,7.75,7.8242,7.9959,8.0121,8.0801,8.2127,8.2263,8.2304,8.2304,8.2304,8.2304,8.2304,8.2304,8.2304,7.1015,7.1562,7.1484,7.043,6.8906,6.7226,6.5664,6.3984,6.2497,6.1674,6.275,6.3588,6.274,6.5432,6.8253,6.972,7.2322,7.5476,7.9285,8.1246,8.2824,8.417,8.467,8.4939,8.5016,8.3555,0.0,8.3016,8.1823,0.0,8.1093,8.1093,8.1093,8.1093,8.1093,8.1093,8.1093,8.1093,8.121,8.1418,8.1415,8.1156,8.0665,7.9836,7.9101,7.8437,7.7578,0.0,0.0,7.7187,7.7187,7.7187,7.7187,7.7187,7.7187,7.7187,7.6984,7.6672,7.6656,7.6508,7.6338,7.6157,7.6064,7.5922,7.5197,7.4965,7.4943,7.4943,7.4426,7.3911,7.3911,7.4003,7.4293,7.4961,7.5446,7.5833,7.5962,7.6015,7.6015,7.6015,7.6147,7.6359,7.6527,7.6738,7.6942,7.7103,7.6998,7.6919,7.6919,7.6606,7.6493,7.6785,7.6677,7.6552,7.656,7.6599,7.666,7.6855,7.7049,7.7828,7.9314,7.9717,8.0567,8.1953,8.217,8.2264,8.2304,8.2304,8.2304,8.2304,8.2304,8.2304,6.9414,7.0234,7.043,6.8828,6.7109,6.5586,6.4648,6.3086,6.1755,6.1557,6.2245,6.3042,6.3391,6.4396,6.6407,7.0182,7.1706,7.4168,7.9092,8.1246,8.2362,8.2516,8.3939,8.4016,8.1785,8.2708,8.2862,8.1439,8.1208,0.0,8.1093,8.1093,8.1093,8.1093,8.1093,8.1093,8.1093,8.1093,8.121,8.138,8.0793,8.0565,8.0665,7.925,7.8555,7.8437,7.7578,0.0,0.0,7.7187,7.7187,7.7187,7.7187,7.7187,7.7187,7.7187,7.6679,7.5974,7.5777,7.5702,7.5673,7.5443,7.5808,7.6231,7.5961,7.5163,7.4379,7.4379,7.3566,7.2658,7.2658,7.3066,7.377,7.4828,7.5127,7.5323,7.5864,7.6015,7.6015,7.6015,7.6147,7.6295,7.6338,7.667,7.6922,7.6933,7.6926,7.688,7.6919,7.6715,7.6606,7.6604,7.6448,7.6327,7.6338,7.6471,7.6933,7.7718,7.8458,7.9275,8.0248,8.1041,8.163,8.1988,8.2,8.212,8.2304,8.2304,8.2304,8.2304,8.2304,8.2304,6.8437,6.9297,6.9531,6.7851,6.6484,6.5234,6.3828,6.2578,6.1635,6.1409,6.2031,6.2645,6.2673,6.3775,6.5543,6.8193,6.936,7.136,7.5438,7.7438,7.9092,8.0631,8.1862,8.2593,0.0,0.0,8.1823,8.1131,0.0,0.0,8.1093,8.1093,8.1093,8.1093,8.1093,8.1093,8.1093,8.0592,8.0361,8.0442,7.9775,7.9232,7.8815,7.8347,7.7937,7.7512,7.7161,0.0,0.0,7.7187,7.7187,7.7187,7.7187,7.7187,7.7148,7.6601,7.6211,7.582,7.5228,7.4988,7.4941,7.478,7.5246,7.5921,7.6106,7.5548,7.4789,7.4789,7.419,7.3492,7.3119,7.3224,7.3602,7.4405,7.4886,7.5271,7.5848,7.6015,7.6015,7.6015,7.6052,7.6147,7.6273,7.6513,7.676,7.6872,7.678,7.6727,7.6727,7.6438,7.6273,7.64,7.6369,7.6295,7.6306,7.6277,7.6397,7.6719,7.7558,7.8382,7.9233,8.0339,8.1219,8.1792,8.2059,8.222,8.2304,8.2304,8.2304,8.2304,8.2304,8.2304,6.7109,6.7851,6.8008,6.6797,6.5664,6.4492,6.3281,6.2344,6.1632,6.1349,6.175,6.2221,6.2436,6.3435,6.4859,6.6782,6.8052,6.9898,7.3053,7.5168,7.713,7.9169,8.0169,8.117,0.0,8.1631,8.1093,8.1093,0.0,0.0,8.0746,8.0708,8.0708,8.0708,8.0477,8.0323,8.0323,7.9708,7.9438,7.94,7.8773,7.8154,7.7611,7.7537,7.728,7.6829,7.6829,0.0,0.0,7.7103,7.699,7.6836,7.7109,7.6875,7.6406,7.6015,7.5586,7.5039,7.4414,7.4219,7.4179,7.4041,7.4714,7.5677,7.5992,7.5671,7.5187,7.5187,7.4771,7.4206,7.377,7.3651,7.3818,7.4422,7.4847,7.5271,7.5848,7.6015,7.6015,7.6015,7.6015,7.6066,7.6289,7.6475,7.6683,7.6864,7.6732,7.6582,7.6582,7.6295,7.6122,7.6273,7.6341,7.6351,7.6306,7.6404,7.6453,7.6467,7.7494,7.8398,7.9044,8.0155,8.1095,8.1767,8.2062,8.2223,8.2304,8.2304,8.2304,8.2304,8.2304,8.2304,6.5156,6.5625,6.5625,6.5625,6.4297,6.3008,6.3008,6.2344,6.1632,6.1349,6.1322,6.1723,6.3041,6.3308,6.4128,6.6667,6.8552,7.0591,7.3129,7.5707,7.7592,7.84,7.9285,7.9823,7.9862,8.0592,8.1093,0.0,0.0,0.0,7.9862,7.9823,7.9823,7.9823,7.8977,7.8515,7.8515,7.853,7.8515,7.853,7.7922,7.76,7.7573,7.6907,7.6621,0.0,0.0,0.0,0.0,7.688,7.6497,7.6015,7.6875,7.6133,7.4726,7.5586,7.4805,7.332,7.332,7.332,7.332,7.332,7.4359,7.5588,7.5624,7.5504,7.5399,7.5399,7.488,7.4293,7.4293,7.4293,7.4422,7.498,7.5091,7.5271,7.5848,7.6015,7.6015,7.6015,7.6015,7.6052,7.6277,7.6475,7.6683,7.6864,7.6732,7.6582,7.6582,7.6429,7.6295,7.6306,7.6493,7.6535,7.6327,7.7097,7.7573,7.7595,7.9133,8.0144,8.0357,8.1221,8.1773,8.1988,8.1992,8.2113,8.2304,8.2304,8.2304,8.2304,8.2304,8.2304,6.207,6.293,6.3672,6.3086,6.2539,6.2109,6.2109,6.1914,6.1637,6.1485,6.1421,6.188,6.3378,6.3635,6.4884,6.8618,6.9585,7.0722,7.3335,7.5258,7.6746,7.7592,7.9477,8.0708,0.0,0.0,8.0862,0.0,0.0,0.0,7.8938,7.84,7.8323,7.89,7.8631,7.8477,7.8477,7.7938,7.7669,7.7684,7.6875,7.6184,7.5619,7.5414,7.5089,0.0,0.0,0.0,0.0,7.5959,7.6236,7.661,7.7029,7.6484,7.5469,7.5117,7.4297,7.3203,7.2617,7.2422,7.2422,7.2422,7.3553,7.4914,7.4914,7.5518,7.6216,7.6216,7.5658,7.5047,7.5047,7.4657,7.4443,7.498,7.5109,7.5271,7.5848,7.6015,7.6015,7.6015,7.6015,7.602,7.6093,7.6361,7.656,7.651,7.6529,7.6529,7.641,7.6207,7.6135,7.6284,7.6341,7.6429,7.6518,7.6752,7.7188,7.7779,7.882,7.9709,8.0365,8.1376,8.1914,8.1992,8.2125,8.2222,8.2304,8.2304,8.2304,8.2304,8.2304,8.2304,6.039,6.0976,6.1601,6.168,6.1445,6.1289,6.164,6.1719,6.1677,6.1517,6.1478,6.1894,6.3525,6.3704,6.4745,6.8203,6.9131,7.0244,7.2598,7.4491,7.6156,7.7568,0.0,0.0,0.0,8.0131,0.0,0.0,0.0,0.0,7.8092,7.7246,7.6899,7.7053,7.74,7.74,7.7053,7.6553,7.6169,7.5861,7.5322,7.4784,7.4245,7.4245,7.4023,0.0,0.0,0.0,0.0,7.5216,7.5401,7.5521,7.6308,7.5699,7.4414,7.418,7.3555,7.2734,7.2104,7.1904,7.1904,7.1904,7.2888,7.4219,7.4883,7.5855,7.6709,7.6604,7.6225,7.5847,7.5761,7.5134,7.4719,7.5298,7.52,7.5178,7.5964,7.6038,7.602,7.612,7.6038,7.602,7.6081,7.6327,7.6484,7.6419,7.6466,7.6448,7.6327,7.6134,7.6062,7.6172,7.6266,7.6369,7.6493,7.6848,7.7474,7.8402,7.9259,8.014,8.1095,8.1744,8.2118,8.2118,8.2222,8.2304,8.2304,8.2221,8.2176,8.2176,8.2176,8.2221,0.0,5.9687,5.957,6.1133,6.0976,6.0625,6.1484,6.1719,0.0,6.1525,6.1404,6.1863,6.362,6.3619,6.4075,6.6335,6.793,6.9562,7.1418,7.3675,0.0,0.0,7.8477,0.0,7.8477,0.0,0.0,0.0,0.0,0.0,7.7169,7.6361,7.5515,7.463,7.5399,7.5438,7.463,7.463,7.4245,7.3514,7.3514,7.3476,7.3399,7.3399,7.336,0.0,0.0,0.0,0.0,7.4513,7.4133,7.3232,7.4839,7.4067,7.2147,7.2967,7.2694,7.1949,7.1747,7.1679,7.1682,7.1767,7.2477,7.3593,7.5273,7.6276,7.6794,7.667,7.6611,7.656,7.6391,7.5728,7.5255,7.5914,7.5408,7.5117,7.6118,7.6172,7.6068,7.6277,7.6096,7.6002,7.6227,7.6245,7.6302,7.6513,7.641,7.6295,7.6273,7.6121,7.6015,7.6015,7.616,7.6273,7.6295,7.7153,7.8176,7.9327,8.0146,8.1083,8.2224,8.2264,8.2264,8.2264,8.2264,8.2264,8.2264,8.2062,8.198,8.198,8.198,8.2065,5.7383,0.0,5.9297,5.9687,6.0117,6.0625,0.0,6.1719,6.1679,6.1677,6.1633,6.233,6.4752,6.4489,6.5186,6.9041,7.0328,7.1427,7.3175,7.5332,0.0,7.8376,7.8477,7.8477,7.8477,0.0,0.0,0.0,0.0,7.6899,7.5399,7.513,7.463,7.3822,7.3976,7.4014,7.3783,7.3783,7.3707,7.3514,7.3514,7.3168,7.2514,7.2514,7.2129,0.0,0.0,0.0,7.2598,7.2966,7.3287,7.3678,7.419,7.3637,7.2651,7.2846,7.2378,7.1594,7.1554,7.1543,7.1683,7.2448,7.2876,7.3291,7.4529,7.5468,7.6244,7.6862,7.6939,7.6834,7.6765,7.6508,7.6263,7.6406,7.631,7.6212,7.6458,7.651,7.6429,7.6316,7.5736,7.5398,7.5952,7.5642,7.5515,7.607,7.6231,7.6254,7.6106,7.6034,7.6015,7.6015,7.6062,7.6147,7.6284,7.6657,7.7538,7.9066,7.9377,8.0169,8.1772,8.185,8.185,8.185,8.185,8.185,8.185,8.1773,8.1753,8.1753,8.1753,8.1812,5.7109,5.8437,5.9844,6.0234,6.0976,6.1836,6.2695,6.2265,6.1719,6.1719,6.1988,6.2766,6.4648,6.5077,6.6233,6.9468,7.0853,7.2337,0.0,0.0,7.7715,7.843,7.8169,7.7938,0.0,0.0,0.0,0.0,0.0,7.5515,7.4207,7.3783,7.336,7.2937,7.2514,7.2514,7.2899,7.2899,7.2706,7.2322,7.2322,7.2052,7.1591,7.1591,7.136,0.0,0.0,0.0,7.1643,7.216,7.2468,7.2636,7.313,7.285,7.2185,7.2185,7.1913,7.151,7.1373,7.1404,7.1576,7.2134,7.2427,7.2719,7.371,7.4609,7.5508,7.6367,7.6791,7.7002,7.6929,7.6526,7.622,7.6526,7.6271,7.6144,7.6649,7.6683,7.6591,7.6466,7.5992,7.5701,7.5971,7.5682,7.5594,7.5928,7.6068,7.6134,7.6005,7.6015,7.6015,7.6015,7.6015,7.6024,7.6147,7.6277,7.6944,7.8443,7.8535,7.9314,8.1026,8.1104,8.1299,8.1688,8.1688,8.1631,8.1563,8.1563,8.1563,8.1563,8.1563,8.1627,5.7773,5.9531,6.1094,6.1406,6.2265,6.3164,6.3789,6.2773,6.1719,6.1719,6.2293,6.3217,6.4452,6.5744,6.7231,6.9305,0.0,0.0,7.5904,7.6931,7.7485,7.7901,7.7328,0.0,0.0,0.0,0.0,0.0,0.0,7.4168,7.336,7.2591,7.2129,7.2014,7.1283,7.1245,7.1975,7.2014,7.1629,7.0898,7.0898,7.0898,7.0898,7.0898,7.0898,7.0898,0.0,0.0,7.0975,7.1706,7.1647,7.1236,7.196,7.1911,7.1389,7.1389,7.1412,7.142,7.1299,7.1378,7.1485,7.1511,7.1718,7.2108,7.2851,7.3711,7.457,7.5312,7.6211,7.6913,7.6644,7.6005,7.5599,7.6153,7.5729,7.5496,7.6532,7.6595,7.6495,7.6597,7.6349,7.6057,7.5856,7.5707,7.5668,7.5784,7.5784,7.5861,7.5976,7.6015,7.6015,7.6015,7.6015,7.6015,7.6015,7.6015,7.6443,7.752,7.774,7.8518,8.0034,8.0228,8.0655,8.1385,8.1541,8.1514,8.1335,8.1335,8.1335,8.1335,8.1335,8.1436,5.8359,6.1289,6.3203,6.1133,6.1797,6.2851,6.2226,6.1875,6.1719,6.1719,6.2382,6.3671,6.6054,6.6986,6.8338,7.1123,0.0,7.4304,0.0,0.0,7.6081,7.5585,0.0,0.0,0.0,0.0,0.0,0.0,0.0,7.3322,7.2437,7.2283,7.186,7.1129,7.0975,7.0975,7.1091,7.1091,7.1014,7.0898,7.0898,7.0898,7.0898,7.0898,7.0898,7.0898,0.0,7.0898,7.0898,7.1052,7.1041,7.094,7.1094,7.1095,7.0979,7.0979,7.1108,7.1262,7.1428,7.1457,7.1505,7.1638,7.1689,7.18,7.2107,7.2812,7.3515,7.3672,7.4844,7.5937,7.5155,7.4842,7.4763,7.4876,7.4798,7.4955,7.5857,7.6011,7.6102,7.6528,7.5976,7.536,7.4973,7.4322,7.413,7.4822,7.4899,7.5168,7.5899,7.6015,7.6015,7.6015,7.6015,7.6015,7.6015,7.6015,7.6072,7.6261,7.6968,7.7817,7.8742,7.9513,7.9962,8.0078,8.081,8.1167,8.1146,8.1146,8.1146,8.1146,8.1146,8.1137,5.7344,5.9961,6.2148,6.1875,6.418,6.6289,6.539,6.4844,6.4375,6.3906,6.4492,6.5469,6.668,6.8185,7.0245,7.3275,0.0,7.5349,7.6184,7.5722,0.0,0.0,0.0,0.0,0.0,0.0,0.0,0.0,0.0,0.0,7.1552,7.1514,7.1321,7.0898,7.0898,7.0898,7.0898,7.0898,7.0898,7.0898,7.0898,7.0898,7.0898,7.0898,7.0898,7.0898,0.0,7.0898,7.0898,7.0898,7.0898,7.0898,7.0898,7.0898,7.0848,7.0476,7.0813,7.1317,7.0944,7.1153,7.1624,7.1675,7.1758,7.1864,7.1952,7.2617,7.3203,7.2734,7.3867,7.5117,7.4687,7.4609,7.4609,7.4609,7.4609,7.4844,7.5703,7.5814,7.5768,7.5898,7.5571,7.5046,7.4216,7.378,7.3729,7.4004,7.4437,7.4861,7.5245,7.5707,7.6015,7.6015,7.6015,7.6015,7.6015,7.6015,7.6015,7.6015,7.6823,7.7476,7.7823,7.8631,7.9092,7.9092,7.9477,7.9939,8.04,8.04,8.0631,8.1093,8.1093,8.1093,5.6562,5.875,6.1055,6.2617,6.5508,6.8008,6.8164,6.7383,6.6562,6.6523,6.7031,6.7578,6.7773,6.9726,0.0,7.4544,7.5288,7.5581,7.5732,0.0,0.0,0.0,0.0,0.0,0.0,0.0,0.0,0.0,0.0,0.0,7.036,7.0321,7.0321,7.0321,7.0321,7.0321,7.0321,7.0321,7.0514,7.0898,7.0898,7.0898,7.0898,7.0898,7.0898,7.0898,7.0953,7.0979,7.0979,7.0979,7.0979,7.0979,7.0925,7.0914,7.0876,7.0264,7.0557,7.1159,7.0525,7.084,7.1485,7.1719,7.1862,7.1992,7.1992,7.2461,7.2851,7.2187,7.2969,7.3984,7.3984,7.3984,7.3984,7.3984,7.3944,7.4176,7.5035,7.5077,7.5006,7.5198,7.5113,7.4688,7.3676,7.3444,7.3358,7.3224,7.3707,7.4207,7.4399,7.5168,7.5707,7.5707,7.5861,7.6015,7.6015,7.6015,7.6015,7.6015,7.663,7.6976,7.6976,7.7784,7.8207,7.8207,7.84,7.8823,7.9515,7.9515,7.9939,8.0785,8.0785,8.09,5.7148,5.9687,6.1836,6.2773,6.3242,6.4297,6.7461,6.6914,6.6367,6.8711,6.9258,6.9531,7.0273,7.1914,7.3288,7.3733,7.3993,7.4364,7.4989,0.0,0.0,0.0,0.0,0.0,0.0,0.0,0.0,0.0,0.0,0.0,6.8615,6.859,6.859,6.859,6.859,6.859,6.859,6.859,6.936,7.0898,7.0898,7.0898,7.0898,7.0898,7.0898,7.0912,7.1108,7.119,7.119,7.119,7.119,7.1158,7.0992,7.1016,7.1135,7.0642,7.0501,7.0597,7.0654,7.0702,7.0898,7.1718,7.1992,7.1992,7.1992,7.2031,7.207,7.2031,7.2109,7.2187,7.2187,7.2187,7.2187,7.2187,7.2055,7.2168,7.3029,7.31,7.3402,7.4761,7.4503,7.3959,7.3561,7.2981,7.2507,7.23,7.2322,7.2668,7.3476,7.4284,7.4784,7.4784,7.5515,7.6015,7.6015,7.6015,7.6015,7.6015,7.6053,7.6092,7.6092,7.6938,7.74,7.74,7.813,7.8515,7.8592,7.8592,7.9054,7.99,7.99,8.0323,5.5195,5.8125,6.1094,6.1953,6.3008,6.4726,6.8164,6.8867,6.9375,7.1445,7.1445,7.0976,7.0742,7.1593,7.2519,7.3157,7.3678,7.4094,0.0,0.0,0.0,0.0,0.0,0.0,0.0,0.0,0.0,0.0,0.0,0.0,6.8732,6.8693,6.8693,6.8693,6.8693,6.8693,6.8693,6.8693,6.9042,6.9653,6.9975,7.0167,7.0181,7.0257,7.0263,7.0285,7.0484,7.0579,7.0618,7.117,7.1403,7.1317,7.0717,7.0596,7.062,6.9354,6.9299,6.9875,6.9882,7.0234,7.0859,7.1719,7.1992,7.1914,7.1367,7.1562,7.1875,7.1328,7.1562,7.1992,7.1992,7.1908,7.1809,7.1809,7.171,7.1811,7.2674,7.2726,7.2773,7.3344,7.3249,7.2801,7.2018,7.1796,7.1629,7.1414,7.186,7.2322,7.2629,7.3437,7.4168,7.4668,7.4976,7.5207,7.5207,7.5207,7.5438,7.5976,7.6015,7.6015,7.6015,7.6322,7.6476,7.6476,7.6784,7.7207,7.7746,7.7746,7.8438,7.9823,7.9823,8.0285,5.4414,5.7344,6.0625,6.1484,6.3008,6.5195,6.8633,6.9883,7.0976,7.3242,7.2812,7.164,7.0547,7.0887,0.0,0.0,7.2784,0.0,0.0,0.0,0.0,0.0,0.0,0.0,0.0,0.0,0.0,0.0,0.0,0.0,0.0,6.8125,6.8125,6.8125,6.8125,6.8125,6.8125,6.8125,6.8125,6.8118,6.8752,6.9192,6.9463,6.9537,6.9574,6.9583,6.9805,6.988,6.9957,7.082,7.1297,7.1407,7.0329,7.0137,7.0288,6.8591,6.8466,6.9062,6.9023,6.957,7.039,7.1015,7.1367,7.1445,7.0586,7.0703,7.1055,7.0469,7.0701,7.1127,7.1127,7.1416,7.1682,7.1651,7.153,7.1583,7.2174,7.2134,7.2086,7.2329,7.2242,7.1938,7.1389,7.1255,7.1126,7.0914,7.1398,7.1783,7.1783,7.2552,7.3514,7.4591,7.4938,7.513,7.513,7.513,7.5361,7.5976,7.6015,7.6015,7.6015,7.6015,7.6015,7.6015,7.6015,7.6284,7.6899,7.6952,7.774,7.9114,7.9114,7.9576,5.5273,5.7773,6.0625,6.1484,6.3008,6.5195,6.8594,6.9453,7.0469,7.3867,7.3203,7.1484,6.9805,7.0156,0.0,7.0408,0.0,0.0,0.0,0.0,0.0,0.0,0.0,0.0,0.0,0.0,0.0,0.0,0.0,0.0,0.0,6.6393,6.6393,6.6393,6.6393,6.6393,6.6393,6.6393,6.6393,6.6393,6.7204,6.8047,6.8889,6.8896,6.8896,6.8903,6.9103,6.9188,6.9266,7.0128,7.0883,7.1349,6.9775,6.9738,7.0294,6.8746,6.8203,6.8203,6.8203,6.8711,6.9414,6.9492,7.0039,7.0547,6.9726,6.9453,6.9414,6.9453,6.936,6.9198,6.9195,7.0441,7.1624,7.1524,7.1361,7.1211,7.1211,7.1026,7.1168,7.2014,7.1629,7.1396,7.2082,7.1641,7.1115,7.0914,7.0898,7.0898,7.0898,7.1668,7.2822,7.4476,7.5438,7.5976,7.5976,7.5976,7.5976,7.5976,7.6015,7.6015,7.6015,7.6015,7.6015,7.6015,7.6015,7.6015,7.6015,7.6183,7.6759,7.76,7.76,7.8026,5.4726,5.7344,6.0469,6.0703,6.3008,6.5625,6.7265,6.9023,7.082,7.2422,7.1875,7.0586,6.8906,6.8789,0.0,0.0,0.0,0.0,0.0,0.0,0.0,0.0,0.0,0.0,0.0,0.0,0.0,0.0,0.0,0.0,0.0,6.6735,6.6735,6.6735,6.6735,6.6735,6.6735,6.6735,6.6735,6.6735,6.7008,6.7419,6.7976,6.812,6.8202,6.8206,6.8412,6.851,6.8549,6.9408,6.9832,6.9937,6.8896,6.8666,6.8745,6.7695,6.7305,6.7383,6.8008,6.8359,6.8672,6.9297,6.9648,6.9648,6.8828,6.8984,6.9297,6.875,6.8891,6.9181,6.9021,6.9299,6.9725,7.0231,7.07,7.0979,7.0979,7.094,7.0975,7.1245,7.1133,7.1056,7.1258,7.1107,7.0979,7.0912,7.0898,7.0898,7.0898,7.1668,7.2168,7.2052,7.2822,7.3322,7.3322,7.3899,7.4476,7.5053,7.5668,7.6015,7.6015,7.6015,7.6015,7.6015,7.6015,7.6015,7.6015,7.6052,7.6611,7.76,7.76,7.8026,5.6172,5.8672,6.1523,6.1875,6.4062,6.6445,6.7617,6.9062,7.0312,7.0859,7.0312,6.9414,6.8398,6.8203,0.0,0.0,0.0,0.0,0.0,0.0,0.0,0.0,0.0,0.0,0.0,0.0,0.0,0.0,0.0,0.0,0.0,6.6562,6.6523,6.6875,6.6562,6.6562,6.6914,6.6914,6.6914,6.6914,6.6914,6.7059,6.7325,6.7456,6.7514,6.7516,6.7615,6.789,6.8203,6.8359,6.8789,6.9297,6.8125,6.789,6.8086,6.7226,6.6914,6.6992,6.75,6.789,6.8242,6.8398,6.8672,6.8789,6.793,6.8008,6.832,6.7812,6.7915,6.8128,6.8018,6.8111,6.8536,6.9557,7.0131,7.0514,7.0821,7.0898,7.0898,7.0898,7.0898,7.0898,7.0898,7.0898,7.0898,7.0898,7.0898,7.0898,7.0898,7.1668,7.2014,7.1475,7.2206,7.2706,7.2706,7.3206,7.386,7.4668,7.5207,7.563,7.5976,7.6015,7.6015,7.6015,7.6015,7.6015,7.6015,7.6093,7.6455,7.7069,7.7058,7.7329,5.8633,6.0937,6.3125,6.4062,6.5625,6.7265,6.8711,6.9062,6.9062,6.914,6.8633,6.8164,6.8008,6.8047,6.8086,0.0,0.0,0.0,0.0,0.0,0.0,0.0,0.0,0.0,0.0,0.0,0.0,0.0,0.0,0.0,0.0,6.5898,6.5859,6.664,6.5898,6.5859,6.664,6.664,6.664,0.0,6.664,6.664,6.668,6.6836,6.6914,6.6914,6.6914,6.7344,6.8008,6.7226,6.7812,6.9023,6.75,6.7383,6.8008,6.7187,6.6914,6.6914,6.6914,6.7422,6.7969,6.7148,6.7422,6.793,6.7148,6.6914,6.6914,6.6914,6.6743,6.6616,6.6616,6.7039,6.7845,6.92,6.9566,6.9836,7.0645,7.0761,7.0761,7.0915,7.0876,7.0876,7.0953,7.0953,7.0953,7.0953,7.0927,7.0952,7.0952,7.1618,7.2091,7.2091,7.2783,7.3283,7.3283,7.336,7.3707,7.4437,7.4553,7.4976,7.5861,7.5976,7.6015,7.6015,7.6015,7.6015,7.6015,7.6197,7.6273,7.6295,7.6295,7.6306,5.8086,6.0039,6.2344,6.3906,6.5625,6.6836,6.6484,6.6406,6.6601,6.7305,6.7851,6.7773,6.6406,6.6719,0.0,0.0,0.0,0.0,0.0,0.0,0.0,0.0,0.0,0.0,0.0,0.0,0.0,0.0,0.0,0.0,6.4883,6.4687,6.4687,6.4844,6.4687,6.4687,6.4844,6.4844,6.4844,0.0,6.4844,6.4844,6.4922,6.6289,6.6914,6.6914,6.6914,6.6992,6.7187,6.6992,6.7109,6.7383,6.7031,6.6992,6.7148,6.6953,6.6914,6.6914,6.6914,6.7031,6.7148,6.6953,6.7031,6.7148,6.6953,6.6914,6.6914,6.6914,6.6743,6.6616,6.6616,6.6615,6.6873,6.7829,6.8574,6.9312,7.0175,6.9817,6.9739,7.1115,7.0804,7.0563,7.1231,7.1348,7.1348,7.1348,7.1233,7.1126,7.1126,7.1146,7.1168,7.1168,7.136,7.1475,7.1475,7.2091,7.2552,7.2745,7.3399,7.413,7.4938,7.563,7.6015,7.6015,7.6015,7.6015,7.6015,7.6024,7.616,7.6295,7.6295,7.6371,5.8164,6.0349,6.2765,6.5,6.6211,6.668,6.5781,6.5586,6.5508,6.5117,6.5742,6.6055,6.5156,6.5703,0.0,0.0,0.0,0.0,0.0,0.0,0.0,0.0,0.0,0.0,0.0,0.0,0.0,0.0,0.0,6.4616,6.4336,6.3906,6.3867,6.4297,6.3906,6.3867,6.4297,6.4297,6.4297,6.4297,6.4297,6.4297,6.4336,6.5234,6.5664,6.5664,6.5664,6.5664,6.5703,6.6094,6.6289,6.6328,6.6758,6.6914,6.6914,6.6914,6.664,6.6328,6.6758,6.664,6.6367,6.6758,6.6914,6.6914,6.6914,6.6914,6.6914,6.6914,6.6832,6.674,6.674,6.668,6.6766,6.7156,6.7769,6.8514,6.9402,6.9207,6.9285,7.0615,7.0498,7.0342,7.0816,7.0894,7.1011,7.1439,7.1397,7.1317,7.1193,7.1131,7.1004,7.0912,7.0898,7.0898,7.0898,7.1321,7.1745,7.2168,7.2629,7.3245,7.4091,7.4553,7.5168,7.5976,7.6015,7.6015,7.6015,7.6015,7.6038,7.6135,7.6147,7.6195,5.7957,6.0604,6.3206,6.5776,6.6445,6.6211,6.5351,6.5156,6.4687,6.3086,6.3594,6.4258,6.4101,0.0,0.0,0.0,0.0,0.0,0.0,0.0,0.0,0.0,0.0,0.0,0.0,0.0,0.0,0.0,0.0,6.3884,6.3867,6.3164,6.3125,6.3828,6.3164,6.3125,6.3828,6.3867,6.3867,6.3867,6.3867,6.3867,6.3867,6.3867,6.4023,6.4297,6.4297,6.4297,6.4375,6.5078,6.539,6.5469,6.6172,6.6445,6.6445,6.6445,6.5976,6.5469,6.6211,6.5976,6.5508,6.6406,6.668,6.6719,6.6836,6.6914,6.6914,6.6914,6.6914,6.6914,6.6914,6.6914,6.6914,6.6914,6.7216,6.7704,6.8594,6.8672,6.8867,6.9885,7.008,7.008,7.0041,7.008,7.0314,7.106,7.1206,7.1225,7.1038,7.1084,7.1085,7.0925,7.0898,7.0898,7.0898,7.0898,7.1206,7.1937,7.1975,7.236,7.3245,7.3283,7.4014,7.5553,7.5553,7.563,7.5784,7.5784,7.5861,7.6015,7.6015,7.6005,5.5918,5.9098,6.2108,6.3982,6.456,6.4414,6.3555,6.3359,6.3086,6.207,6.3164,6.4062,6.332,0.0,0.0,0.0,0.0,0.0,0.0,0.0,0.0,0.0,0.0,0.0,0.0,0.0,0.0,0.0,6.3163,6.2812,6.2109,6.1953,6.1914,6.2031,6.1914,6.1914,6.2031,6.2031,6.2031,6.2031,6.2031,6.2031,6.2031,6.2031,6.2851,6.4297,6.4297,6.4297,6.4297,6.4414,6.4453,6.4492,6.4609,6.4648,6.4648,6.4648,6.457,6.4492,6.4609,6.457,6.4609,6.5508,6.5781,6.5898,6.668,6.6914,6.6914,6.6914,6.6914,6.6914,6.6914,6.6914,6.6914,6.6914,6.6952,6.7222,6.812,6.769,6.7612,6.9214,6.9565,6.9565,6.9526,6.9565,6.9643,6.976,7.0121,7.0374,7.0346,7.0683,7.0914,7.0898,7.0898,7.0898,7.0898,7.0898,7.0937,7.1052,7.1052,7.1475,7.2322,7.236,7.2822,7.3822,7.3822,7.4168,7.4861,7.4861,7.5245,7.6015,7.6015,7.6068,5.5747,5.8704,6.117,6.3379,6.4076,6.3966,6.3107,6.2964,6.2734,6.1875,6.2305,6.2734,0.0,0.0,0.0,0.0,0.0,0.0,0.0,0.0,0.0,0.0,0.0,0.0,0.0,0.0,0.0,0.0,6.2265,6.2109,6.1719,6.1719,6.1719,6.1719,6.1719,6.1719,6.1719,6.1719,6.1719,6.1719,6.1719,6.1719,6.1719,6.1719,6.2109,6.2851,6.2851,6.2851,6.289,6.3359,6.3555,6.3633,6.4101,6.4297,6.4297,6.4297,6.3984,6.3633,6.414,6.3984,6.3711,6.4609,6.4883,6.5039,6.5898,6.6172,6.6289,6.6758,6.6914,6.6914,6.6914,6.6914,6.6914,6.6914,6.6914,6.6992,6.7383,6.7064,6.709,6.83,6.8668,6.8906,6.9375,6.9062,6.8945,6.9414,6.9564,6.979,7.0162,7.0264,7.0488,7.0848,7.0898,7.0898,7.0898,7.0898,7.0898,7.0898,7.0898,7.1052,7.1475,7.1475,7.1668,7.2052,7.3014,7.3668,7.4053,7.4053,7.4207,7.4591,7.4591,7.4938,5.4722,5.7091,5.9003,6.1752,6.2762,6.2964,6.2554,6.2557,6.2458,0.0,6.1719,6.1719,0.0,0.0,0.0,0.0,0.0,0.0,0.0,0.0,0.0,0.0,0.0,0.0,0.0,0.0,0.0,0.0,6.1719,6.1719,6.1719,6.1719,6.1719,6.1719,6.1719,6.1719,6.1719,6.1719,6.1719,6.1719,6.1719,6.1719,6.1719,6.1719,6.1719,6.1719,6.1719,6.1719,6.1758,6.2383,6.2656,6.2734,6.3398,6.3633,6.3633,6.3633,6.3242,6.2773,6.3398,6.3203,6.2812,6.3672,6.3984,6.414,6.5,6.5273,6.539,6.6055,6.6406,6.6562,6.6562,6.6719,6.6914,6.6914,6.6914,6.6914,6.6914,6.6787,6.6878,6.7505,6.7766,6.8086,6.8711,6.8281,6.8086,6.875,6.8847,6.9038,6.9474,6.9735,6.9982,7.0246,7.0667,7.0821,7.0591,7.0783,7.0898,7.0898,7.0898,7.0898,7.0898,7.0898,7.0898,7.0898,7.2168,7.2937,7.3168,7.3168,7.3283,7.3514,7.352,7.3946,5.1453,5.2936,5.4544,5.7931,5.9523,6.0453,6.1368,6.1585,6.1605,6.1679,6.1719,6.1719,0.0,0.0,0.0,0.0,0.0,0.0,0.0,0.0,0.0,0.0,0.0,0.0,0.0,0.0,0.0,0.0,6.1719,6.1719,6.1719,6.1719,6.1719,6.1719,6.1719,6.1719,6.1719,6.1719,6.1719,6.1719,6.1719,6.1719,6.1719,6.1719,6.1719,6.1719,6.1719,6.1719,6.1719,6.1758,6.1758,6.1758,6.1836,6.1836,6.1836,6.1836,6.1797,6.1758,6.1836,6.1797,6.1914,6.2773,6.3086,6.3242,6.4101,6.4375,6.4375,6.4414,6.5039,6.5664,6.5664,6.6289,6.6914,6.6914,6.6914,6.6914,6.6914,6.6875,6.6914,6.6953,6.6953,6.6992,6.7031,6.6992,6.6992,6.7031,6.7555,6.7902,6.7762,6.8989,6.9546,6.8616,6.9937,7.0591,6.9821,7.0475,7.0898,7.0898,7.0898,7.0898,7.0898,7.0898,7.0898,7.0898,7.0975,7.1437,7.2283,7.2283,7.2706,7.3514,7.3647,7.3717,4.9779,5.1356,5.3011,5.5364,5.7486,5.9131,5.9504,6.0528,6.14,6.1527,6.1577,6.1585,0.0,0.0,0.0,0.0,0.0,0.0,0.0,0.0,0.0,0.0,0.0,0.0,0.0,0.0,0.0,0.0,0.0,6.1719,6.1719,6.1719,6.1719,6.1719,6.1719,6.1719,6.1719,6.1719,6.1719,6.1719,6.1719,6.1719,6.1719,6.1719,6.1719,6.1719,6.1719,6.1719,6.1719,6.1719,6.1719,6.1719,6.1719,6.1719,6.1719,6.1719,6.1719,6.1719,6.1719,6.1719,6.1758,6.207,6.2104,6.2201,6.3062,6.3336,6.357,6.4702,6.5306,6.5742,6.6289,6.668,6.6914,6.6914,6.6914,6.6914,6.6914,6.679,6.6692,6.6692,6.6791,6.6914,6.6914,6.6914,6.6914,6.6914,6.6971,6.7227,6.7729,6.865,6.932,6.9544,7.0592,7.1106,7.0695,7.1038,7.118,7.0925,7.1029,7.1014,7.0912,7.0593,7.0378,7.0378,7.0044,7.0386,7.136,7.136,7.1514,7.1822,7.2009,7.2473,4.8163,4.9586,5.1231,5.3857,5.5625,5.7202,5.8936,5.9878,6.0559,6.1279,6.1481,6.1517,0.0,0.0,0.0,0.0,0.0,0.0,0.0,0.0,0.0,0.0,0.0,0.0,0.0,0.0,0.0,0.0,0.0,0.0,6.1719,6.1719,6.1719,6.1719,6.1719,6.1719,6.1719,6.1719,6.1719,6.1719,6.1719,6.1719,6.1719,6.1719,6.1719,6.1719,6.1719,6.1719,6.1719,6.1719,6.1719,6.1719,6.1719,6.1719,6.1719,6.1719,6.1719,6.1719,6.1719,6.1719,6.1719,6.1719,6.1629,6.1621,6.2206,6.2362,6.2677,6.4121,6.4633,6.4922,6.5781,6.625,6.6523,6.6836,6.6834,6.6831,6.6875,6.6789,6.6692,6.6692,6.6791,6.6914,6.6914,6.6914,6.6914,6.6914,6.6788,6.6878,6.7397,6.8115,6.8661,6.8916,7.0194,7.0883,7.0464,7.1093,7.137,7.1029,7.1115,7.1131,7.0912,7.0539,7.0298,7.0112,6.9757,6.9901,7.0637,7.0637,7.0766,7.1004,7.1231,7.1746,0.0,0.0,0.0,5.328,5.3741,5.4544,5.9666,5.9564,5.8971,6.0858,6.1353,6.1423,0.0,0.0,0.0,0.0,0.0,0.0,0.0,0.0,0.0,0.0,0.0,0.0,0.0,0.0,0.0,0.0,6.1632,6.1719,6.1719,6.1719,6.1719,6.1719,6.1719,6.1719,6.1719,6.1719,6.1719,6.1719,6.1719,6.1719,6.1719,6.1719,6.1719,6.1719,6.1719,6.1719,6.1719,6.1719,6.1719,6.1719,6.1719,6.1719,6.1719,6.1719,6.1719,6.1719,6.1719,6.168,6.168,6.1679,6.1585,6.1498,6.1498,6.1501,6.1696,6.2596,6.2915,6.3203,6.4101,6.4961,6.582,6.668,6.6742,6.6678,6.6873,6.6914,6.6914,6.6914,6.6914,6.6914,6.6914,6.6914,6.6914,6.6914,6.6914,6.6833,6.6631,6.7358,6.7516,6.6573,6.8689,6.9818,6.8962,7.0486,7.1373,7.1154,7.1182,7.1142,7.0912,7.0885,7.0637,7.0074,7.0057,7.0019,7.0019,7.0057,7.0445,7.1172,7.135,7.1603,4.5893,0.0,0.0,0.0,0.0,0.0,0.0,0.0,5.7178,5.97,5.9814,5.9906,0.0,0.0,0.0,0.0,0.0,0.0,0.0,0.0,0.0,0.0,0.0,0.0,0.0,0.0,0.0,0.0,6.1632,6.1719,6.1719,6.1719,6.1719,6.1719,6.1719,6.1719,6.1719,6.1719,6.1719,6.1719,6.1719,6.1719,6.1719,6.1719,6.1719,6.1719,6.1719,6.1719,6.1719,6.1719,6.1719,6.1719,6.1719,6.1719,6.1719,6.1719,6.1719,6.1679,6.1584,6.1571,6.1525,6.1424,6.1273,6.1161,6.1318,6.1349,6.168,6.3286,6.3383,6.3359,6.4844,6.543,6.582,6.668,6.6873,6.6833,6.6875,6.6914,6.6914,6.6914,6.6914,6.6914,6.6914,6.6914,6.6914,6.6914,6.6914,6.6874,6.6832,6.7573,6.8,6.7716,6.8886,6.953,6.9155,7.0225,7.0711,7.0273,7.0995,7.1262,7.0925,7.0524,6.996,6.918,6.8771,6.8487,6.8286,6.8858,6.949,7.0092,6.9761,6.9814,4.6124,4.6855,4.7932,4.9346,0.0,0.0,5.4934,5.5357,5.5948,0.0,5.8908,5.9148,0.0,0.0,0.0,0.0,0.0,0.0,0.0,0.0,0.0,0.0,0.0,0.0,0.0,6.1295,6.1404,6.1404,6.1584,6.1719,6.1719,6.1719,6.1719,6.1719,6.1719,6.1719,6.1719,6.1719,6.1719,6.1719,6.1719,6.1719,6.1719,6.1719,6.1719,6.1719,6.1719,6.1719,6.1719,6.1719,6.1719,6.1719,6.1719,6.1719,6.1719,6.1719,6.1678,6.1627,6.1517,6.1439,6.1392,6.1318,6.122,6.1158,6.1259,6.1606,6.221,6.368,6.3813,6.3789,6.4805,6.5078,6.5351,6.6601,6.6914,6.6914,6.6914,6.6914,6.6914,6.6914,6.6914,6.6914,6.6914,6.6914,6.6914,6.6914,6.6914,6.6914,6.6914,6.7344,6.7656,6.7656,6.8437,6.8904,6.8806,6.9645,7.0013,6.9621,7.0206,7.0406,7.0064,6.9755,6.9271,6.8507,6.8197,6.7814,6.7264,6.7951,6.8675,6.9378,6.913,6.9153,4.7038,4.7154,4.8009,5.0885,5.0702,0.0,5.5406,5.528,5.4895,0.0,0.0,5.8398,0.0,0.0,0.0,0.0,0.0,0.0,0.0,0.0,0.0,0.0,0.0,0.0,6.0827,6.1095,6.1265,6.1283,6.1515,6.1677,6.1677,6.1678,6.1679,6.1679,6.1679,6.1719,6.1719,6.1719,6.1719,6.1719,6.1679,6.1679,6.1719,6.1679,6.1679,6.1719,6.1719,6.1719,6.1719,6.1719,6.1719,6.1719,6.1719,6.1719,6.1719,6.1719,6.1632,6.1512,6.1495,6.1392,6.1277,6.1246,6.1246,6.1265,6.1283,6.1933,6.2836,6.3594,6.4053,6.4258,6.4179,6.414,6.4609,6.6328,6.6758,6.6797,6.6875,6.6836,6.6758,6.6758,6.6836,6.6914,6.6914,6.6914,6.6914,6.6914,6.6914,6.6914,6.6914,6.6914,6.6914,6.6914,6.7578,6.8047,6.8047,6.8867,6.9252,6.9078,6.9149,6.9099,6.8903,6.8889,6.8614,6.8055,6.7968,6.7552,6.6777,6.7318,6.7959,6.8637,6.8843,6.8998,4.8048,4.8894,4.9933,4.9894,0.0,0.0,5.2818,5.2654,5.2972,0.0,5.4817,5.4938,0.0,0.0,0.0,0.0,0.0,0.0,0.0,0.0,0.0,0.0,0.0,0.0,6.0944,6.1014,6.1135,6.1277,6.1339,6.1369,6.1369,6.1491,6.1525,6.1525,6.1636,6.1719,6.1719,6.1719,6.1719,6.1719,6.1584,6.1585,6.1719,6.1584,6.1585,6.1719,6.1719,6.1719,6.1719,6.1719,6.1719,6.1719,6.1719,6.1719,6.1719,6.1719,6.1679,6.1633,6.14,6.1312,6.124,6.0983,6.0983,6.1097,6.1246,6.15,6.18,6.1948,6.3119,6.41,6.3295,6.3154,6.3672,6.543,6.5859,6.6055,6.6758,6.6367,6.5859,6.5859,6.6406,6.6914,6.6914,6.6914,6.6914,6.6914,6.6914,6.6914,6.6914,6.6914,6.6914,6.6914,6.7031,6.7148,6.7148,6.7969,6.8353,6.8177,6.8798,6.9099,6.8903,6.8889,6.8532,6.7719,6.7065,6.6638,6.6482,6.7215,6.7404,6.7056,6.7078,6.7201,4.8971,4.9394,5.0164,5.0548,0.0,0.0,0.0,5.2192,5.2385,5.4126,5.3923,5.397,5.576,0.0,0.0,0.0,0.0,0.0,0.0,0.0,0.0,0.0,0.0,0.0,6.1128,6.1065,6.1089,6.1271,6.1283,6.1283,6.1283,6.1354,6.1417,6.1501,6.1575,6.1633,6.1719,6.1719,6.1719,6.1719,6.1633,6.1634,6.1719,6.1633,6.1634,6.1719,6.1719,6.1719,6.1719,6.1719,6.1719,6.1719,6.1719,6.1719,6.1719,6.1719,6.1677,6.158,6.1467,6.1349,6.1259,6.1103,6.1143,6.1262,6.1373,6.1759,6.2147,6.2149,6.2818,6.3458,6.292,6.2915,6.332,6.4648,6.4961,6.5078,6.5508,6.5273,6.4961,6.4961,6.5312,6.5586,6.5586,6.6328,6.6758,6.6328,6.6601,6.6914,6.6914,6.6914,6.6914,6.6914,6.6914,6.6914,6.6914,6.7305,6.7498,6.7406,6.7795,6.8017,6.7897,6.7894,6.7702,6.7276,6.6768,6.6533,6.6655,6.6963,6.6922,6.6616,6.6616,6.6692,0.0,0.0,0.0,0.0,0.0,5.1712,0.0,0.0,0.0,5.3542,0.0,0.0,0.0,0.0,0.0,0.0,0.0,0.0,0.0,0.0,0.0,0.0,0.0,0.0,0.0,6.0942,6.0978,6.1277,6.1103,6.1085,6.124,6.1271,6.1339,6.1474,6.1509,6.1584,6.1719,6.1719,6.1719,6.1719,6.1679,6.1679,6.1719,6.1679,6.1679,6.1719,6.1719,6.1719,6.1719,6.1719,6.1719,6.1719,6.1719,6.1719,6.1719,6.1719,6.1633,6.1522,6.1509,6.1413,6.1323,6.1295,6.1383,6.1507,6.152,6.2148,6.2811,6.2602,6.2686,6.2772,6.2602,6.2641,6.2969,6.3828,6.4062,6.4101,6.4217,6.414,6.4023,6.4022,6.4023,6.414,6.4492,6.5586,6.6289,6.5898,6.6328,6.6719,6.6875,6.6914,6.6914,6.6914,6.6914,6.6914,6.6914,6.6914,6.6914,6.6914,6.6914,6.6914,6.6914,6.6914,6.6914,6.6914,6.6692,6.6685,6.6833,6.6631,6.6586,6.6678,6.6678,6.674,0.0,0.0,0.0,0.0,5.2624,0.0,0.0,0.0,5.1935,5.1432,0.0,0.0,0.0,0.0,0.0,0.0,0.0,0.0,0.0,0.0,0.0,0.0,0.0,0.0,0.0,6.0308,6.0577,6.1256,6.0437,6.0209,6.1001,6.1207,6.1295,6.1312,6.1532,6.1679,6.1719,6.1719,6.1719,6.1719,6.158,6.1582,6.1719,6.1579,6.1582,6.1719,6.1719,6.1719,6.1719,6.1719,6.1719,6.1719,6.1719,6.1719,6.1719,6.1719,6.1679,6.1677,6.1525,6.1498,6.1474,6.1328,6.1383,6.1515,6.1635,6.2305,6.2809,6.1913,6.2285,6.277,6.1871,6.1743,6.207,6.293,6.3164,6.3319,6.3991,6.3623,6.3123,6.2974,6.3076,6.3633,6.5195,6.4961,6.5078,6.6523,6.6172,6.6015,6.6797,6.6914,6.6914,6.6914,6.6914,6.6914,6.6914,6.6914,6.6914,6.6914,6.6914,6.6914,6.6914,6.6914,6.6914,6.6914,6.6692,6.6622,6.6631,6.6488,6.6588,6.6874,6.6874,6.6874,0.0,0.0,0.0,0.0,0.0,0.0,5.2046,0.0,5.1515,0.0,0.0,0.0,0.0,0.0,0.0,0.0,0.0,0.0,0.0,0.0,0.0,0.0,0.0,0.0,0.0,0.0,0.0,0.0,5.9791,5.9585,6.0919,6.1,6.1103,6.1277,6.1396,6.1525,6.1719,6.1719,6.1719,6.1719,6.1636,6.1636,6.1719,6.1635,6.1636,6.1719,6.1719,6.1719,6.1719,6.1719,6.1719,6.1719,6.1719,6.1719,6.1719,6.1719,6.1719,6.1679,6.1634,6.163,6.1627,6.1568,6.1577,6.1632,6.1679,6.1909,6.2047,6.1629,6.1798,6.2045,6.1629,6.1587,6.1797,6.2148,6.2182,6.2201,6.2527,6.2275,6.2017,6.1933,6.1963,6.2421,6.3634,6.4086,6.4335,6.4516,6.5153,6.5702,6.6,6.6559,6.6914,6.6914,6.6914,6.6914,6.6914,6.6914,6.6914,6.6914,6.6914,6.6914,6.6914,6.6914,6.6914,6.6914,6.6613,6.6521,6.6616,6.6335,6.6361,6.6596,6.6683,6.6788,5.089,0.0,0.0,0.0,0.0,0.0,0.0,0.0,0.0,0.0,0.0,0.0,0.0,0.0,0.0,0.0,0.0,5.2925,0.0,0.0,0.0,0.0,0.0,0.0,0.0,0.0,0.0,0.0,0.0,5.8924,6.0654,6.0829,6.1002,6.1277,6.1328,6.1481,6.1719,6.1719,6.1719,6.1719,6.1719,6.1719,6.1719,6.1719,6.1719,6.1719,6.1719,6.1719,6.1719,6.1719,6.1719,6.1719,6.1719,6.1719,6.1719,6.1719,6.1719,6.1719,6.1719,6.1719,6.1719,6.1719,6.1719,6.1719,6.1719,6.1633,6.1532,6.1532,6.1532,6.1532,6.1532,6.1632,6.1719,6.1719,6.1632,6.1527,6.1507,6.1432,6.1378,6.1301,6.1318,6.1528,6.2157,6.2925,6.3408,6.312,6.4021,6.4898,6.534,6.6036,6.6482,6.6523,6.6523,6.6445,6.6211,6.6406,6.664,6.6875,6.6914,6.6914,6.6914,6.6914,6.6874,6.6831,6.6555,6.6423,6.6449,6.6179,6.6137,6.632,6.6483,6.6616,0.0,0.0,0.0,5.1414,0.0,0.0,0.0,0.0,5.2216,0.0,0.0,0.0,0.0,0.0,0.0,5.0956,0.0,0.0,0.0,0.0,0.0,0.0,0.0,0.0,0.0,0.0,0.0,0.0,0.0,0.0,5.9943,6.0639,6.1097,6.1283,6.1413,6.1573,6.1719,6.1719,6.1719,6.1719,6.1719,6.1719,6.1719,6.1719,6.1719,6.1719,6.1719,6.1719,6.1719,6.1719,6.1719,6.1719,6.1719,6.1719,6.1719,6.1719,6.1719,6.1719,6.1719,6.1719,6.1719,6.1719,6.1719,6.1719,6.1719,6.1719,6.168,6.168,6.168,6.168,6.168,6.1719,6.1719,6.1719,6.1719,6.1677,6.1517,6.1587,6.1629,6.1344,6.1396,6.1471,6.1351,6.1373,6.1929,6.3531,6.3103,6.3268,6.5169,6.5415,6.5518,6.5624,6.5625,6.5312,6.4453,6.5156,6.6015,6.6836,6.6914,6.6914,6.6914,6.6914,6.6791,6.6622,6.6468,6.6305,6.6137,6.5963,6.5963,6.6128,6.6312,6.6399,0.0,0.0,5.2275,5.1511,0.0,0.0,0.0,0.0,0.0,0.0,0.0,0.0,0.0,0.0,5.0879,5.0281,5.0386,0.0,0.0,0.0,0.0,0.0,0.0,0.0,0.0,0.0,0.0,0.0,5.7441,0.0,0.0,6.05,6.0982,6.1277,6.1334,6.1488,6.1719,6.1719,6.1719,6.1719,6.1719,6.1719,6.1719,6.1719,6.1719,6.1719,6.1719,6.1719,6.1719,6.1719,6.1719,6.1719,6.1719,6.1719,6.1719,6.1719,6.1719,6.1719,6.1719,6.1719,6.1719,6.1719,6.1719,6.1719,6.1719,6.1719,6.1719,6.1719,6.1719,6.1719,6.1719,6.1719,6.1719,6.1719,6.1633,6.1571,6.1509,6.1481,6.1396,6.1306,6.1328,6.1318,6.1143,6.1112,6.1306,6.1858,6.2369,6.289,6.3478,6.4213,6.4684,6.4726,6.4726,6.4609,6.4336,6.5117,6.5742,6.6015,6.6562,6.6914,6.6914,6.6785,6.668,6.6616,6.6322,6.6153,6.6109,6.5978,6.5921,6.5951,6.6052,6.6203,5.1015,5.1648,0.0,5.1523,5.1836,0.0,5.1523,0.0,0.0,0.0,0.0,0.0,0.0,0.0,0.0,4.9987,4.9629,4.9317,0.0,4.9975,0.0,0.0,0.0,0.0,0.0,0.0,5.5288,5.6637,5.6759,0.0,0.0,0.0,6.0923,6.1186,6.1259,6.1396,6.1632,6.1679,6.1719,6.1719,6.1719,6.1719,6.1719,6.1719,6.1719,6.1719,6.1719,6.1719,6.1719,6.1719,6.1719,6.1719,6.1719,6.1719,6.1719,6.1719,6.1719,6.1719,6.1719,6.1719,6.1719,6.1719,6.1719,6.1719,6.1719,6.1719,6.1719,6.1719,6.1719,6.1719,6.1719,6.1719,6.1719,6.1719,6.1634,6.1577,6.1577,6.1504,6.1413,6.1373,6.1364,6.1318,6.115,6.1056,6.097,6.0925,6.1614,6.2279,6.2546,6.3296,6.3785,6.3828,6.3828,6.3945,6.4258,6.4805,6.539,6.6015,6.6601,6.6874,6.6789,6.668,6.6545,6.6418,6.6228,6.6061,6.6046,6.5931,6.5897,6.5897,6.5897,6.6008]}]]